[[[{"header":{"parameterUnit":"kt","parameterCategory":2,"dx":1,"dy":1,"la1":29.285339999999998,"la2":30.599998999999997,"lo1":-89.70041500000002,"lo2":-87.6738589999976,"nx":112,"ny":82,"refTime":"2022-10-26T06:00:00:Z","depth":0,"parameterNumber":1,"parameterNumberName":"U-component_of_WINDS"},"data":[4.1465,4.5598,0.0,4.5473,4.6158,0.0,4.1145,0.0,3.8363,0.0,0.0,0.0,0.0,0.0,3.6069,3.6435,3.4971,3.3409,0.0,0.0,0.0,0.0,0.0,0.0,0.0,0.0,0.0,0.0,0.0,0.0,0.0,0.0,5.8154,5.9985,6.1351,6.1717,6.101,6.1693,6.1693,6.101,6.0741,6.057,6.0522,6.1254,6.1742,6.2108,6.3206,6.3279,6.2596,6.2303,6.2352,6.2596,6.2303,6.3963,6.6224,6.4847,6.519,6.6489,6.6698,6.8161,7.0197,7.1974,7.2368,7.2082,7.306,7.222,7.103,7.2308,7.1865,7.0818,7.0382,6.9626,6.9015,6.9015,6.9015,6.9015,6.9015,6.9015,6.9015,6.9015,6.9015,6.9015,6.9015,6.9015,6.9015,6.9015,6.9015,6.9015,6.9015,6.9015,6.9015,6.9015,6.9015,6.9015,6.9015,6.9015,6.9015,6.9015,6.9015,6.9015,6.9015,6.9015,6.9015,6.9015,6.9015,6.9015,6.9015,6.9015,6.8782,6.8346,7.012,6.9771,0.0,0.0,4.5865,4.1195,0.0,0.0,0.0,0.0,0.0,0.0,0.0,0.0,0.0,3.5874,3.5386,3.5386,3.48,0.0,0.0,0.0,0.0,0.0,0.0,0.0,0.0,0.0,0.0,0.0,0.0,0.0,0.0,5.6568,5.8008,5.9472,6.0863,6.14,6.101,6.1717,6.1717,6.101,6.0351,6.0204,6.0522,6.1229,6.1742,6.2132,6.3255,6.3108,6.201,6.1302,6.1229,6.1571,6.1571,6.3369,6.5433,6.2935,6.2083,6.2381,6.4501,6.6369,6.812,7.0052,7.0591,7.0743,7.1268,6.9866,6.8638,7.0618,7.0505,7.0166,7.0775,7.0294,6.9655,6.9655,6.9335,6.9015,6.9015,6.9015,6.9015,6.9015,6.9015,6.9015,6.9015,6.9015,6.9015,6.9015,6.9015,6.9015,6.9015,6.9015,6.9015,6.9015,6.9015,6.9015,6.9015,6.9015,6.9015,6.9015,6.9015,6.9015,6.9015,6.9015,6.9015,6.9015,6.9451,6.9655,6.9655,6.9655,6.9451,6.9044,6.9887,6.9364,0.0,0.0,0.0,3.6998,0.0,0.0,0.0,0.0,3.3751,0.0,0.0,0.0,0.0,3.5312,3.5312,3.5361,3.541,0.0,0.0,0.0,0.0,0.0,0.0,0.0,0.0,0.0,0.0,0.0,0.0,0.0,5.5836,5.6275,5.7251,5.9399,5.9521,6.0033,6.101,6.1083,6.1107,6.1107,6.1058,6.0522,5.9692,6.1644,6.1986,6.1132,6.2132,6.1986,6.101,6.101,6.0424,5.9716,6.1766,6.2571,6.2449,6.14,6.101,6.1277,6.3178,6.6008,6.8468,6.8645,6.8645,6.8645,6.8794,6.718,6.5607,6.7444,6.7991,6.856,7.0383,7.0934,7.0876,7.0963,6.9975,6.9015,6.9073,6.9044,6.9015,6.9015,6.9015,6.9015,6.9015,6.9015,6.9015,6.9015,6.9015,6.9015,6.9015,6.9015,6.9015,6.9015,6.9015,6.9015,6.9015,6.9015,6.9015,6.9015,6.9015,6.9015,6.9015,6.9015,6.9015,6.9015,7.0265,7.0905,7.0847,7.0905,7.0265,6.9015,6.9015,6.9015,3.2177,0.0,0.0,0.0,0.0,0.0,0.0,0.0,0.0,0.0,0.0,0.0,0.0,0.0,0.0,3.5142,0.0,3.6557,0.0,0.0,0.0,0.0,0.0,0.0,0.0,0.0,0.0,0.0,0.0,5.159,5.5982,5.7007,5.7715,5.8325,5.9814,6.0741,6.101,6.2596,6.3401,6.3377,6.1791,6.1278,6.1742,6.079,6.1034,6.2157,6.1668,6.1302,6.101,6.101,6.0424,5.9643,6.0936,6.1449,6.1424,6.1132,6.0546,5.9814,5.9772,6.0625,6.2391,6.4683,6.5398,6.5674,6.7142,6.6098,6.4856,6.6904,6.7666,6.8323,6.9797,6.9902,7.0004,7.1807,7.0585,6.9277,7.0207,6.9655,6.9015,6.9015,6.9015,6.9015,6.9015,6.9015,6.9015,6.9015,6.9015,6.9015,6.9015,6.9015,6.9015,6.9015,6.9015,6.9015,6.9015,6.9015,6.9015,6.9015,6.9015,6.9015,6.9015,6.9015,6.9015,6.9015,7.0265,7.0469,6.9538,7.0469,7.0265,6.9015,6.9015,6.9015,0.0,0.0,0.0,0.0,0.0,0.0,3.5337,0.0,3.4214,0.0,0.0,0.0,0.0,0.0,0.0,0.0,3.8094,0.0,0.0,0.0,0.0,0.0,0.0,0.0,0.0,0.0,0.0,0.0,5.3932,5.3518,5.6763,5.7569,5.8106,5.8569,6.0155,6.1229,6.1693,6.3426,6.4304,6.428,6.2523,6.201,6.2571,6.1376,6.1473,6.2571,6.1961,6.1693,6.1668,6.1205,6.0668,6.0253,6.1278,6.1424,6.0961,6.0546,6.0009,5.935,5.8276,5.8301,5.9162,6.1402,6.2188,6.2468,6.3629,6.287,6.2062,6.4876,6.6278,6.7529,7.0358,7.0782,7.108,7.3057,7.1632,7.0033,7.076,6.9916,6.9015,6.9015,6.9015,6.9015,6.9015,6.9015,6.9015,6.9015,6.9015,6.8732,6.785,6.8449,6.8732,6.7879,6.8449,6.9015,6.9015,6.9015,6.9015,6.9015,6.9015,6.9015,6.9015,6.9015,6.9015,6.9015,7.076,7.1051,6.9829,7.1051,7.076,6.9015,6.9015,6.9015,0.0,0.0,0.0,0.0,3.371,0.0,0.0,0.0,3.6513,3.6175,0.0,0.0,0.0,0.0,0.0,0.0,0.0,0.0,0.0,0.0,0.0,0.0,0.0,0.0,0.0,5.4152,5.4787,5.7691,5.5226,5.486,5.7764,5.791,5.835,5.9301,6.0424,6.1473,6.2425,6.367,6.4304,6.428,6.3157,6.262,6.262,6.2376,6.2327,6.2425,6.2181,6.2157,6.2205,6.1376,6.0936,6.0936,6.201,6.1791,6.0741,5.9838,5.9423,5.9204,5.8252,5.791,5.8081,5.9008,5.9326,5.9326,5.9326,5.8795,5.8858,6.2126,6.4108,6.6476,7.1002,7.2372,7.2825,7.4104,7.2621,7.0934,7.0934,6.9916,6.9015,6.9015,6.9015,6.9015,6.9015,6.9015,6.9015,6.9015,6.9015,6.8449,6.6698,6.8008,6.8293,6.6567,6.8008,6.9015,6.9015,6.9015,6.9015,6.9015,6.9015,6.9015,6.9015,6.9015,6.9015,6.9015,7.1312,7.1923,7.0702,7.1923,7.1312,6.9015,6.9015,6.9015,0.0,0.0,0.0,0.0,0.0,3.4073,0.0,0.0,0.0,0.0,0.0,0.0,0.0,0.0,0.0,0.0,0.0,0.0,0.0,0.0,0.0,0.0,0.0,0.0,0.0,5.7105,5.7227,5.7861,5.7325,5.7251,5.7886,5.791,5.8008,5.8203,6.0033,6.1107,6.1327,6.3304,6.4304,6.428,6.3157,6.262,6.2571,6.0863,6.0546,6.1229,5.9545,5.9326,6.0155,6.0766,6.0522,5.9911,6.0912,6.0717,5.9789,5.9594,5.896,5.8179,5.7984,5.791,5.7959,5.8154,5.8203,5.8203,5.8203,5.9156,6.0345,6.1041,6.3517,6.6357,6.8425,7.0057,7.1574,7.2796,7.1981,7.0934,7.0934,6.9916,6.9015,6.9015,6.9015,6.9015,6.9015,6.9015,6.9015,6.9015,6.9015,6.8888,6.8449,6.8732,6.8888,6.8449,6.8732,6.9015,6.9015,6.9015,6.9015,6.9015,6.9015,6.9015,6.9015,6.9015,6.9015,6.9015,7.0498,7.0643,6.9393,7.0643,7.0498,6.9015,6.9015,6.9015,2.7696,2.8585,3.0183,3.158,0.0,0.0,0.0,0.0,3.6105,0.0,3.9805,3.9164,4.1514,0.0,0.0,0.0,0.0,0.0,0.0,0.0,0.0,0.0,0.0,0.0,5.7861,5.791,5.791,5.791,5.791,5.791,5.791,5.791,5.791,5.791,5.9936,6.101,6.101,6.3206,6.4304,6.428,6.3157,6.262,6.2571,6.0985,6.0546,6.0961,5.9911,5.9765,6.0302,6.0814,6.0717,6.0351,6.14,6.0888,5.9521,5.9521,5.8838,5.791,5.791,5.791,5.791,5.791,5.791,5.791,5.791,5.8586,5.9668,6.1444,6.3356,6.5458,6.8679,7.0166,7.1225,7.2447,7.1807,7.0934,7.0934,6.9916,6.9015,6.9015,6.9015,6.9015,6.9015,6.9015,6.9015,6.9015,6.9015,6.8605,6.7722,6.8449,6.8605,6.7722,6.8449,6.9015,6.9015,6.9015,6.9015,6.9015,6.9015,6.9015,6.9015,6.9015,6.8695,6.8026,6.8637,6.8666,6.8026,6.8666,6.8637,6.8026,6.8695,6.9015,2.7553,2.8208,2.9215,3.0221,3.1851,0.0,3.4904,3.5673,3.728,0.0,4.0439,4.0122,4.2438,0.0,0.0,0.0,0.0,0.0,0.0,0.0,0.0,0.0,0.0,0.0,5.7813,5.791,5.791,5.791,5.791,5.791,5.791,5.791,5.8008,5.8203,6.0033,6.1107,6.1327,6.3304,6.4304,6.428,6.3377,6.2962,6.2889,6.162,6.1132,6.1302,6.0888,6.0839,6.1034,6.1229,6.1083,6.079,6.1424,6.0668,5.9204,5.9204,5.8642,5.791,5.791,5.791,5.791,5.791,5.791,5.791,5.791,5.791,5.8586,6.187,6.3356,6.4997,6.9401,7.0731,7.1109,7.1807,7.1458,7.0847,7.0614,6.9742,6.916,6.9655,6.9567,6.9393,6.9393,6.9393,6.9306,6.9073,6.9015,6.8449,6.6857,6.8008,6.8449,6.6857,6.8008,6.9015,6.9015,6.9015,6.9015,6.9015,6.8782,6.8608,6.8608,6.8375,6.7764,6.6659,6.663,6.663,6.663,6.6397,6.6514,6.7037,6.8113,6.8753,2.7383,2.8626,3.0221,3.1834,3.184,0.0,3.632,3.7263,3.8834,0.0,4.4765,4.4949,4.6232,4.8929,0.0,0.0,0.0,0.0,0.0,0.0,0.0,0.0,0.0,0.0,5.7886,5.791,5.791,5.791,5.791,5.791,5.791,5.791,5.835,5.9301,6.0424,6.1473,6.2425,6.367,6.4304,6.4304,6.4158,6.4109,6.4036,6.1961,6.1546,6.2352,6.0473,6.018,6.1107,6.2035,6.1351,5.9594,5.8764,5.8301,5.8081,5.8081,5.8008,5.791,5.791,5.791,5.791,5.791,5.791,5.791,5.791,5.791,5.8312,6.0345,6.3218,6.6331,6.8622,7.0062,7.0673,6.9684,7.0207,7.0614,6.948,6.9102,6.9655,7.1894,7.1458,7.0702,7.0702,7.0702,7.0324,6.9189,6.9015,6.8888,6.8732,6.8859,6.8888,6.8732,6.8859,6.9015,6.9015,6.9015,6.9015,6.9015,6.791,6.7241,6.7241,6.6136,6.5467,6.5321,6.5321,6.5321,6.5321,6.4187,6.4798,6.7008,6.7183,6.7881,2.7943,2.9063,3.0259,3.1455,0.0,0.0,3.6143,3.6751,0.0,0.0,4.3331,4.3527,4.5404,4.8956,5.135,0.0,0.0,0.0,0.0,0.0,0.0,0.0,0.0,0.0,0.0,5.791,5.791,5.791,5.791,5.791,5.791,5.791,5.8106,5.8569,6.0155,6.1229,6.1668,6.3426,6.4304,6.4304,6.3621,6.3328,6.3255,6.1107,6.0717,6.1571,5.9472,5.9521,6.1058,6.1498,6.0839,5.9472,5.9008,5.8472,5.791,5.791,5.791,5.791,5.791,5.791,5.791,5.791,5.791,5.791,5.791,5.791,5.8036,5.8858,6.1728,6.5182,6.8165,6.9422,6.9887,7.0091,7.0556,7.0963,7.1138,7.0614,7.0643,7.2388,7.233,7.1981,7.1981,7.1981,7.1545,7.0324,7.012,6.9858,6.9102,6.9015,6.9015,6.9015,6.9015,6.9015,6.9015,6.9015,6.9015,6.9015,6.7764,6.7008,6.7008,6.5787,6.4769,6.4012,6.3983,6.3634,6.2878,6.2355,6.3024,6.4827,6.6339,6.7735,2.8683,0.0,0.0,0.0,0.0,0.0,0.0,0.0,3.8915,4.2199,4.2559,4.2844,4.4648,4.8058,5.0652,5.0652,0.0,0.0,0.0,0.0,0.0,0.0,0.0,0.0,0.0,0.0,0.0,0.0,5.791,5.791,5.791,5.791,5.8057,5.835,6.0082,6.1156,6.1449,6.3328,6.4304,6.428,6.3157,6.262,6.2547,6.0741,6.0497,6.1351,5.9545,5.9619,6.0961,6.0399,5.9911,5.9497,5.9204,5.8594,5.791,5.791,5.791,5.791,5.791,5.791,5.791,5.791,5.791,5.791,5.791,5.791,5.791,5.791,6.0251,6.3383,6.6623,6.8165,6.9247,7.0178,7.0673,7.1167,7.2039,7.2069,7.233,7.3552,7.3494,7.3261,7.3261,7.2941,7.233,7.1109,7.0614,7.0062,6.9131,6.9015,6.9015,6.9015,6.9015,6.9015,6.9015,6.9015,6.8869,6.8491,6.7212,6.6339,6.5961,6.474,6.3605,6.2704,6.2675,6.2209,6.1195,6.1195,6.1773,6.2733,6.4943,6.6863,0.0,0.0,0.0,3.6276,3.6732,3.7244,4.1402,0.0,4.2616,4.3547,4.4344,4.4894,4.497,4.6747,4.8347,4.8347,5.1871,5.4591,0.0,0.0,0.0,0.0,0.0,0.0,0.0,0.0,0.0,0.0,5.791,5.791,5.791,5.791,5.8398,5.9423,6.0473,6.1522,6.2547,6.3718,6.4304,6.428,6.3157,6.262,6.2571,6.1473,6.1571,6.2498,6.14,6.0961,6.0863,5.8838,5.8594,5.9423,5.8374,5.7935,5.791,5.791,5.791,5.791,5.791,5.791,5.791,5.791,5.791,5.791,5.791,5.791,5.791,5.791,5.9277,6.1158,6.3106,6.6199,6.9015,6.9073,7.0033,7.0934,7.0963,7.2825,7.4919,7.6257,7.5471,7.457,7.457,7.3523,7.233,7.1109,6.9887,6.9073,6.9015,6.9015,6.9015,6.9015,6.9015,6.9015,6.9015,6.9015,6.8462,6.7153,6.5874,6.4623,6.3373,6.2093,6.1282,6.1224,6.1224,6.1224,6.1195,6.1195,6.1195,6.1282,6.2704,6.4652,3.1132,3.2669,3.434,3.6865,3.8535,3.9959,4.1383,4.2559,4.3433,4.3698,4.442,4.497,4.497,4.546,4.5947,4.5947,4.8512,5.0932,5.2415,5.4326,0.0,0.0,0.0,0.0,0.0,0.0,0.0,0.0,5.791,0.0,5.791,5.791,5.8081,5.8447,5.8764,5.9789,6.1546,6.3377,6.4304,6.428,6.3157,6.262,6.2547,6.0814,6.057,6.1473,5.9716,5.935,5.9911,5.8496,5.813,5.8398,5.8057,5.791,5.791,5.791,5.791,5.791,5.791,5.791,5.791,5.791,5.791,5.791,5.791,5.791,5.791,5.791,5.9277,6.0728,6.1444,6.3383,6.5806,6.7903,7.0322,7.2359,7.3203,7.4046,7.4773,7.521,7.4919,7.4366,7.3494,7.2999,7.233,7.1109,7.0556,6.9975,6.9131,6.9015,6.9015,6.9015,6.9015,6.8666,6.7764,6.7677,6.7124,6.5816,6.4565,6.3634,6.3227,6.1977,6.1195,6.1195,6.1195,6.1195,6.1195,6.1195,6.1195,6.1224,6.2616,6.3663,3.265,3.4188,3.5688,3.8573,4.0528,4.1876,4.2465,4.3433,4.4192,4.4192,4.461,4.497,4.497,4.497,4.497,4.497,4.6747,4.9004,5.1136,5.3341,5.5434,5.7584,5.791,5.791,5.791,5.791,5.791,5.791,5.791,5.791,5.791,5.791,5.791,5.791,5.791,5.874,6.0448,6.262,6.3499,6.3108,6.2401,6.1864,6.1449,6.0107,5.9863,6.0375,5.8667,5.8301,5.8886,5.8203,5.791,5.791,5.791,5.791,5.791,5.791,5.791,5.791,5.791,5.791,5.791,5.791,5.791,5.791,5.791,5.791,5.791,5.791,5.871,5.9789,6.0465,6.156,6.2987,6.571,6.8341,7.0839,7.2865,7.3639,7.393,7.393,7.393,7.3668,7.2854,7.2359,7.1807,7.1051,7.0556,6.9945,6.9131,6.9015,6.9015,6.9015,6.8045,6.7129,6.6266,6.5777,6.4727,6.2804,6.3019,6.2734,6.1663,6.0859,6.0685,6.1195,6.0685,6.0685,6.1195,6.1195,6.1195,6.1195,6.2122,6.25,3.4078,3.5099,3.6504,4.1383,4.2635,4.3072,4.4629,4.497,4.497,4.497,4.497,4.497,4.497,4.497,4.497,4.497,4.6747,4.9004,5.0975,5.3183,5.5434,5.756,5.791,5.791,5.791,5.791,5.791,5.791,5.791,5.791,5.791,5.791,5.791,5.791,5.791,5.8423,5.9497,6.1522,6.2059,6.1107,6.1034,6.0497,5.9521,5.9448,5.9423,5.9375,5.835,5.791,5.791,5.791,5.791,5.791,5.791,5.791,5.791,5.791,5.791,5.791,5.791,5.791,5.791,5.791,5.791,5.791,5.791,5.791,5.791,5.791,5.791,5.8312,6.008,6.0465,6.1015,6.2827,6.4615,6.6905,7.0066,7.1514,7.2326,7.2488,7.2488,7.2459,7.2534,7.1574,7.0818,7.0818,6.98,6.8986,6.8928,6.8898,6.8898,6.8685,6.6181,6.4312,6.4256,6.3064,6.1211,5.8347,6.1203,6.1692,5.9011,5.8955,5.9682,6.1166,5.9566,5.945,6.0941,6.1054,6.1054,6.1054,6.1166,6.1195,3.3407,3.7197,4.0301,4.2825,4.3907,4.4477,4.4875,4.497,4.497,0.0,4.497,4.497,4.497,4.497,4.497,4.497,4.6747,4.8347,4.9004,5.2211,5.4769,5.5434,5.6906,5.791,5.791,5.791,5.791,5.791,5.791,5.791,5.791,5.791,5.791,5.791,5.791,5.8423,5.9497,6.079,6.1693,6.2205,6.14,6.0497,5.9497,5.8691,5.8301,5.8301,5.8032,5.791,5.791,5.791,5.791,5.791,5.791,5.791,5.791,5.791,5.791,5.791,5.791,5.791,5.791,5.791,5.791,5.791,5.791,5.791,5.791,5.791,5.791,5.8036,5.8461,5.8586,5.9129,6.0897,6.2688,6.4943,6.8143,6.7941,6.7556,6.8983,6.9282,6.9429,6.9834,6.9713,6.948,6.948,6.9218,6.8666,6.7648,6.7532,6.6725,6.445,6.3554,6.2184,6.011,5.9629,5.8697,5.701,5.8781,5.9644,5.8983,5.8955,5.9682,6.1166,5.723,5.6006,5.7592,5.8837,5.945,5.9566,6.0685,6.1195,3.0207,3.5266,3.9821,4.2131,4.3746,4.497,4.497,4.497,4.497,4.497,4.497,4.497,4.497,4.497,4.497,4.497,4.5947,4.7061,4.8017,5.1093,5.3655,5.4435,5.6578,5.791,5.791,5.791,5.791,5.791,5.791,5.791,5.791,5.791,5.791,5.791,5.791,5.8203,5.8813,5.9375,6.0204,6.1254,6.0644,5.9814,5.8789,5.8179,5.791,5.791,5.791,5.791,5.791,5.791,5.791,5.791,5.791,5.791,5.791,5.791,5.791,5.791,5.791,5.791,5.791,5.791,5.791,5.791,5.791,5.791,5.791,5.791,5.791,5.791,5.791,5.791,5.8186,5.9252,6.0897,6.2707,6.4355,6.4629,6.5047,6.6882,6.7875,6.8551,6.9004,6.9015,6.8811,6.823,6.8142,6.7677,6.6339,6.5526,6.4443,6.281,6.0846,5.8974,5.728,5.665,5.5688,5.4324,5.6499,5.7472,5.6744,5.6744,5.7472,5.9072,5.5633,5.4654,5.6376,5.7351,5.7833,5.786,5.945,5.9826,2.6653,3.1619,3.692,4.0496,4.2852,4.4498,4.4781,4.497,4.497,4.497,4.497,4.497,4.497,4.497,4.497,4.497,4.497,4.5629,4.7541,5.0004,5.2256,5.3968,5.6425,5.791,5.791,5.791,5.791,5.791,5.791,5.791,5.791,5.791,5.791,5.791,5.791,5.791,5.791,5.8057,5.8594,5.9521,5.9521,5.896,5.791,5.791,5.791,5.791,5.791,5.791,5.791,5.791,5.791,5.791,5.791,5.791,5.791,5.791,5.791,5.791,5.791,5.791,5.791,5.791,5.791,5.791,5.791,5.791,5.791,5.791,5.791,5.791,5.791,5.791,5.791,5.791,5.9129,6.0345,6.0609,6.1728,6.3244,6.502,6.6885,6.8293,6.8293,6.8305,6.8066,6.6936,6.6588,6.6038,6.503,6.3539,6.2445,6.1876,5.8369,5.5981,5.5614,5.4479,5.3295,5.1927,5.4527,5.5384,5.3915,5.3786,5.44,5.5633,5.4273,5.4273,5.5758,5.5882,5.6006,5.613,5.798,5.8099,2.7778,3.0261,3.3406,3.9328,4.1155,4.2028,4.4291,4.497,4.497,4.497,4.497,4.497,4.497,4.497,4.497,4.497,4.497,4.497,4.546,4.9025,5.1639,5.1937,5.5481,5.791,5.791,5.791,5.791,5.791,5.791,5.791,5.791,5.791,5.791,5.791,5.791,5.791,5.791,5.8789,5.9326,5.9521,5.9521,5.896,5.791,5.791,5.791,5.791,5.791,5.791,5.791,5.791,5.791,5.791,5.791,5.791,5.791,5.791,5.791,5.791,5.791,5.791,5.791,5.791,5.791,5.791,5.791,5.791,5.791,5.791,5.791,5.791,5.791,5.791,5.791,5.791,5.8186,5.8858,6.0345,5.9668,5.9424,6.1158,6.3106,6.4343,6.4343,6.491,6.5246,6.4821,6.4017,6.3409,6.3459,6.3285,6.1589,5.7816,5.8031,5.7164,5.4454,5.4017,5.3786,5.3425,5.3915,5.4145,5.3915,5.3786,5.3425,5.2299,5.206,5.206,5.2299,5.3657,5.4273,5.44,5.7472,5.872,2.5002,2.6734,2.9227,3.3967,3.6915,3.9507,4.2137,4.2895,4.2822,4.1746,4.3373,4.4856,4.442,4.4686,4.497,4.497,4.497,4.497,4.497,4.8717,5.1479,5.1479,5.5326,5.791,5.791,5.791,5.791,5.791,5.791,5.791,5.791,5.791,5.791,5.791,5.791,5.791,5.791,5.8423,5.8667,5.8667,5.8667,5.8398,5.791,5.791,5.791,5.791,5.791,5.791,5.791,5.791,5.791,5.791,5.791,5.791,5.791,5.791,5.791,5.791,5.791,5.791,5.791,5.791,5.791,5.791,5.791,5.791,5.791,5.791,5.791,5.791,5.791,5.791,5.791,5.791,5.791,5.8186,5.8981,5.8586,5.8461,6.0345,6.1301,6.2548,6.4479,6.3896,6.2947,6.2463,6.1266,6.0463,6.0878,6.0209,5.8735,5.6553,5.7109,5.6866,5.5258,5.44,5.3786,5.3786,5.3035,5.2668,5.2668,5.2668,5.2299,5.1577,5.1577,5.1577,5.1577,5.2299,5.2668,5.2668,5.5133,5.5882,2.236,2.3905,2.6093,2.8616,3.2544,3.6358,3.8855,3.937,3.9149,3.8872,4.1361,4.3821,4.3893,4.4401,4.478,4.4951,4.497,4.497,4.497,4.8717,5.1479,5.1479,5.5326,5.791,5.791,5.791,5.791,5.791,5.791,5.791,5.791,5.791,5.791,5.791,5.791,5.791,5.791,5.791,5.791,5.791,5.791,5.791,5.791,5.791,5.791,5.791,5.791,5.791,5.791,5.791,5.791,5.791,5.791,5.791,5.791,5.791,5.791,5.791,5.791,5.791,5.791,5.791,5.791,5.791,5.791,5.791,5.791,5.791,5.791,5.791,5.791,5.791,5.791,5.791,5.791,5.791,5.791,5.791,5.8312,5.9814,6.0345,6.156,6.4479,6.2824,6.0913,6.0033,5.8419,5.7548,5.8237,5.7472,5.6744,5.6376,5.6988,5.7109,5.6376,5.5133,5.4273,5.3915,5.2299,5.1577,5.1577,5.1819,5.1819,5.1577,5.1577,5.1577,5.1577,5.1577,5.1577,5.1552,5.3165,5.3165,2.2854,2.4049,2.5277,2.6544,2.884,3.1647,3.5143,3.4142,3.3968,3.8557,3.9673,4.0756,4.4234,4.4325,4.4116,4.4856,4.497,4.497,4.497,4.8717,5.1479,5.1479,5.5326,5.791,5.791,5.791,5.791,5.791,5.791,5.791,5.791,5.791,5.791,5.791,5.791,5.791,5.791,5.791,5.791,5.791,5.791,5.791,5.791,5.791,5.791,5.791,5.791,5.791,5.791,5.791,5.791,5.791,5.791,5.791,5.791,5.791,5.791,5.791,5.791,5.791,5.791,5.791,5.791,5.791,5.791,5.791,5.791,5.791,5.791,5.791,5.791,5.791,5.791,5.791,5.791,5.791,5.791,5.791,5.8061,5.8186,5.9546,6.0753,6.1158,6.0137,5.8974,5.7818,5.5745,5.4758,5.6376,5.786,5.8099,5.6499,5.8955,5.9566,5.6622,5.6253,5.5509,5.3915,5.2299,5.1577,5.1577,5.293,5.293,5.1577,5.1577,5.1577,5.1577,5.1577,5.1577,5.1552,5.3165,5.3786,2.0542,2.21,2.3698,2.3477,2.5436,2.7799,2.9213,2.8697,2.947,3.4497,3.8012,4.0572,4.2301,4.33,0.0,4.4192,4.4249,4.442,4.4913,4.8717,5.1479,5.1479,5.5326,5.791,5.791,5.791,5.791,5.791,5.791,5.791,5.791,5.791,5.791,5.791,5.791,5.791,5.791,5.791,5.791,5.791,5.791,5.791,5.791,5.791,5.791,5.791,5.791,5.791,5.791,5.791,5.791,5.791,5.791,5.791,5.791,5.791,5.791,5.791,5.791,5.791,5.791,5.791,5.791,5.791,5.791,5.791,5.791,5.791,5.791,5.791,5.791,5.791,5.791,5.791,5.791,5.791,5.791,5.791,5.791,5.791,5.7894,5.8395,5.9518,5.7362,5.561,5.6326,5.4915,5.4171,5.4781,5.5384,5.6006,5.6376,5.8456,5.9334,5.798,5.6988,5.5633,5.3915,5.3295,5.2562,5.1552,5.206,5.2192,5.1577,5.1577,5.1577,5.1577,5.1577,5.1577,5.1577,5.2192,5.2431,1.8984,2.0529,2.2165,2.1529,2.3022,2.4775,2.5295,2.5282,2.635,3.0358,3.5157,3.9169,4.095,4.2237,4.311,4.3357,4.3604,4.404,4.4856,4.8223,5.0814,5.1479,5.466,5.7233,5.791,5.791,5.791,5.791,5.791,5.791,5.791,5.791,5.791,5.791,5.791,5.791,5.791,5.791,5.791,5.791,5.791,5.791,5.791,5.791,5.791,5.791,5.791,5.791,5.791,5.791,5.791,5.791,5.791,5.791,5.791,5.791,5.791,5.791,5.791,5.791,5.791,5.791,5.791,5.791,5.791,5.791,5.791,5.791,5.791,5.791,5.791,5.791,5.791,5.791,5.791,5.791,5.791,5.7642,5.7398,5.7398,5.6519,5.6172,5.7549,5.5181,5.3554,5.4834,5.4005,5.3165,5.3165,5.3165,5.3786,5.5384,5.7592,5.8456,5.7472,5.6744,5.5509,5.3295,5.3165,5.2668,5.1552,5.1927,5.1927,5.1577,5.1577,5.1577,5.1577,5.1577,5.1577,5.1577,5.1577,5.1577,1.8984,1.979,2.0685,2.123,2.1815,2.2685,2.4545,2.4347,2.4581,2.7053,3.0715,3.5217,4.0319,4.1288,4.1572,4.2408,4.3224,4.404,4.4856,4.6895,4.9004,5.1318,5.3341,5.5588,5.7735,5.791,5.791,5.791,5.791,5.791,5.791,5.791,5.791,5.791,5.791,5.791,5.791,5.791,5.791,5.791,5.791,5.791,5.791,5.791,5.791,5.791,5.791,5.791,5.791,5.791,5.791,5.791,5.791,5.791,5.791,5.791,5.791,5.791,5.791,5.791,5.791,5.791,5.791,5.791,5.791,5.791,5.791,5.791,5.791,5.791,5.791,5.791,5.791,5.791,5.791,5.791,5.791,5.7032,5.6251,5.6251,5.5372,5.464,5.464,5.3737,5.303,5.303,5.2262,5.1577,5.1577,5.1577,5.2192,5.3657,5.6866,5.7472,5.4145,5.5384,5.5007,5.1686,5.1577,5.1577,5.1577,5.306,5.3035,5.1552,5.1577,5.1577,5.1577,5.1577,5.1577,5.1577,5.1577,5.1577,1.7712,1.9062,2.0691,2.0874,2.1503,2.2659,2.4532,2.5853,2.6736,2.6308,3.0102,3.4571,3.8641,4.0965,4.2237,4.2503,4.3224,4.404,4.4856,4.6747,4.8512,4.9168,5.237,5.4924,5.5588,5.7082,5.791,5.791,5.791,5.791,5.791,5.791,5.791,5.791,5.791,5.791,5.791,5.791,5.791,5.791,5.791,5.791,5.791,5.791,5.791,5.791,5.791,5.791,5.791,5.791,5.791,5.791,5.791,5.791,5.791,5.791,5.791,5.791,5.791,5.791,5.791,5.791,5.791,5.791,5.791,5.791,5.791,5.791,5.791,5.791,5.791,5.791,5.791,5.791,5.7325,5.6763,5.6763,5.5909,5.5128,5.5128,5.4274,5.3542,5.3542,5.2639,5.1931,5.1931,5.1797,5.1577,5.1577,5.1577,5.1686,5.2192,5.4145,5.5007,5.3915,5.4273,5.3786,5.1686,5.1577,5.1577,5.1577,5.1927,5.206,5.1577,5.1577,5.1577,5.1577,5.1577,5.1577,5.1577,5.1577,5.1577,1.7543,1.8633,2.0156,2.0685,2.1526,2.2809,2.5514,2.6597,2.6754,2.6323,3.0351,3.4625,3.6759,3.9862,4.218,4.2484,4.3224,4.404,4.4856,4.6096,4.7228,4.8182,5.0588,5.2845,5.4435,5.5918,5.7082,5.791,5.791,5.791,5.791,5.791,5.791,5.791,5.791,5.791,5.791,5.791,5.791,5.791,5.791,5.791,5.791,5.791,5.791,5.791,5.791,5.791,5.791,5.791,5.791,5.791,5.791,5.791,5.791,5.791,5.791,5.791,5.791,5.791,5.791,5.791,5.791,5.791,5.791,5.791,5.791,5.791,5.791,5.791,5.791,5.791,5.7813,5.7373,5.6739,5.6129,5.5714,5.4787,5.403,5.403,5.3152,5.2419,5.2419,5.1883,5.1577,5.1577,5.1577,5.1577,5.1577,5.206,5.2192,5.1552,5.293,5.3657,5.306,5.3554,5.3165,5.1552,5.1577,5.1577,5.1577,5.1577,5.1577,5.1577,5.1577,5.1577,5.1577,5.1577,5.1577,5.1577,5.1577,5.1577,1.8589,1.873,1.9616,2.1321,2.2054,2.3412,2.7518,2.6733,2.5436,2.6868,3.1285,3.4775,3.4373,3.7859,4.1155,4.2199,4.3148,4.4021,4.478,0.0,4.561,4.7706,4.8182,4.98,5.3788,5.4458,5.5434,5.7584,5.791,5.791,5.791,5.791,5.791,5.791,5.791,5.791,5.791,5.791,5.791,5.791,5.791,5.791,5.791,5.791,5.791,5.791,5.791,5.791,5.791,5.791,5.791,5.791,5.791,5.791,5.791,5.791,5.791,5.791,5.791,5.791,5.791,5.791,5.791,5.791,5.791,5.791,5.791,5.791,5.791,5.791,5.791,5.7861,5.752,5.647,5.6129,5.5738,5.4738,5.3664,5.2908,5.2908,5.2127,5.1577,5.1577,5.1577,5.1577,5.1577,5.1577,5.1577,5.1577,5.2799,5.3165,5.1686,5.2799,5.3035,5.1686,5.2799,5.3035,5.1552,5.1577,5.1577,5.1577,5.1577,5.1577,5.1577,5.1577,5.1577,5.1577,5.1577,5.1577,5.1577,5.1577,5.1577,2.1507,2.2268,2.3456,2.4587,2.5739,2.6823,2.8335,2.8869,2.8558,2.7275,2.9916,3.2404,3.2645,3.4779,3.7377,4.013,4.237,4.3831,4.4021,4.4591,4.514,4.561,4.7228,4.8676,4.9637,5.2665,5.4769,5.5434,5.693,5.791,5.791,5.791,5.791,5.791,5.791,5.791,5.791,5.791,5.791,5.791,5.791,5.791,5.791,5.791,5.791,5.791,5.791,5.791,5.791,5.791,5.791,5.791,5.791,5.791,5.791,5.791,5.791,5.791,5.791,5.791,5.791,5.791,5.791,5.791,5.791,5.791,5.791,5.791,5.791,5.791,5.791,5.7276,5.6568,5.63,5.4982,5.3713,5.3469,5.2566,5.1944,5.1944,5.1748,5.1577,5.1577,5.1577,5.1577,5.1577,5.1577,5.1577,5.1577,5.1819,5.1927,5.1552,5.1819,5.1927,5.1552,5.1819,5.1927,5.1577,5.1577,5.1577,5.1577,5.1577,5.1577,5.1577,5.1577,5.1577,5.1577,5.1577,5.1577,5.1577,5.1577,5.1577,2.3536,2.3871,2.5072,2.7222,2.7629,2.7636,2.8568,2.8767,2.8488,2.752,3.0126,3.2657,3.2921,3.5427,3.7757,3.9162,4.087,4.2028,4.2028,4.2749,4.3433,0.0,0.0,4.6624,4.8141,5.0265,5.2507,5.4435,5.5765,5.6906,5.791,5.791,5.791,5.791,5.791,5.791,5.791,5.791,5.791,5.791,5.791,5.791,5.791,5.791,5.791,5.791,5.791,5.791,5.791,5.791,5.791,5.791,5.791,5.791,5.791,5.791,5.791,5.791,5.791,5.791,5.791,5.791,5.791,5.791,5.791,5.791,5.791,5.791,5.7544,5.7154,5.7154,5.6324,5.5372,5.4884,5.3884,5.2908,5.2419,5.1834,5.1577,5.1577,5.1577,5.1577,5.1577,5.1577,5.1577,5.1577,5.1577,5.1577,5.1577,5.2192,5.2299,5.1552,5.2192,5.2299,5.1552,5.1577,5.1577,5.1577,5.1577,5.1577,5.1577,5.1577,5.1577,5.1577,5.1907,5.2175,5.2175,5.2663,5.2639,5.2175,5.2175,5.2042,2.535,2.5231,2.6032,2.9201,2.8623,2.7579,2.8785,2.8188,2.7418,2.7833,3.0915,3.3429,3.3581,3.6561,3.8915,3.8573,3.9124,3.9693,3.994,4.0718,4.1534,4.2275,4.3072,4.4637,4.7078,4.7611,4.942,5.3249,5.3739,5.4938,5.7233,5.7409,5.7584,5.791,5.791,5.7837,5.7666,5.7666,5.7739,5.791,5.791,5.791,5.791,5.791,5.791,5.791,5.791,5.791,5.791,5.791,5.791,5.791,5.791,5.791,5.791,5.791,5.791,5.791,5.791,5.791,5.791,5.791,5.791,5.791,5.791,5.791,5.791,5.791,5.7105,5.6226,5.6226,5.5323,5.4152,5.3249,5.2908,5.2541,5.1773,5.1577,5.1577,5.1577,5.1577,5.1577,5.1577,5.1577,5.1577,5.1577,5.1577,5.1577,5.1577,5.2668,5.293,5.1686,5.2668,5.293,5.1686,5.1577,5.1699,5.2042,5.1931,5.1931,5.1931,5.1895,5.1614,5.1577,5.2322,5.2883,5.303,5.3957,5.4006,5.3274,5.3274,5.2785,2.8326,2.855,2.922,2.9804,2.9747,2.9483,2.9746,2.9615,2.9465,2.9577,3.0712,3.1834,3.2575,3.3827,3.5384,3.7358,3.7776,3.8364,3.9769,4.0718,4.1326,4.1458,4.2218,4.293,4.3367,4.5031,4.6718,4.812,4.9902,5.215,5.5055,5.5102,5.5918,5.791,5.791,5.7447,5.6495,5.6495,5.6959,5.791,5.791,5.791,5.791,5.791,5.791,5.791,5.791,5.791,5.791,5.791,5.791,5.791,5.791,5.791,5.791,5.791,5.791,5.791,5.791,5.791,5.791,5.791,5.791,5.791,5.791,5.791,5.791,5.791,5.7105,5.6226,5.6226,5.4762,5.3249,5.3078,5.2346,5.1773,5.1601,5.1577,5.1577,5.1577,5.1577,5.1577,5.1577,5.1577,5.1577,5.1577,5.1577,5.1577,5.1577,5.1686,5.1819,5.1577,5.1686,5.1819,5.1577,5.1577,5.22,5.403,5.4152,5.4152,5.4152,5.3274,5.2346,5.1577,5.1724,5.2127,5.303,5.32,5.3664,5.4396,5.4396,5.4299,2.9499,2.9993,3.0638,3.0638,2.9704,2.8665,2.8665,2.7975,2.7379,2.7379,2.8318,2.9628,3.0887,3.2466,3.4383,3.6479,3.7187,3.7928,3.9124,4.0035,4.0566,4.0566,4.1326,4.2028,0.0,4.3443,4.4653,4.6102,4.7222,4.8793,5.1432,5.1607,5.2543,5.4537,5.4561,5.43,5.3801,5.4746,5.5616,5.6129,5.6739,5.7007,5.7032,5.7617,5.791,5.791,5.791,5.791,5.791,5.791,5.791,5.791,5.791,5.791,5.791,5.791,5.791,5.791,5.791,5.791,5.791,5.791,5.791,5.791,5.791,5.791,5.7788,5.7178,5.6202,5.5226,5.464,5.3347,5.2175,5.2175,5.1919,5.1577,5.1577,5.1577,5.1577,5.1577,5.1577,5.1577,5.1577,5.1577,5.1577,5.1577,5.1577,5.1577,5.1577,5.1577,5.1577,5.1577,5.2091,5.2297,5.2297,5.2834,5.3591,5.4567,5.464,5.464,5.464,5.4152,5.3664,5.3176,5.3737,5.4274,5.4762,5.5372,5.5616,5.5494,5.5494,5.4884,3.098,0.0,3.2031,3.2309,3.036,2.8154,0.0,2.6699,2.5335,2.5376,2.6522,2.7805,2.9375,3.1534,3.362,3.5202,3.6491,3.7548,3.8573,3.9275,3.975,3.9959,4.0566,4.1231,4.1876,4.1933,4.2761,4.4447,4.4603,4.5616,4.8149,4.8149,4.9036,5.0975,5.0485,5.0599,5.1294,5.2691,5.3587,5.3872,5.5125,5.5685,5.5468,5.6807,5.7373,5.7154,5.7398,5.752,5.7544,5.7813,5.791,5.791,5.791,5.7739,5.7544,5.7813,5.7739,5.7569,5.7813,5.791,5.791,5.791,5.791,5.791,5.791,5.7544,5.6959,5.6104,5.5079,5.4079,5.3249,5.2224,5.1577,5.1577,5.1577,5.1577,5.1577,5.1577,5.1577,5.1577,5.1577,5.1577,5.1577,5.1577,5.1577,5.1577,5.1577,5.1577,5.1577,5.1577,5.1577,5.1577,5.2395,5.303,5.303,5.4494,5.5397,5.5397,5.5397,5.5397,5.5397,5.5153,5.5006,5.5006,5.5568,5.586,5.586,5.6983,5.7203,5.6641,5.6641,5.5763,0.0,3.415,3.3979,3.5498,3.2854,2.9998,2.9998,2.7559,0.0,2.5861,2.6734,2.7581,2.8207,3.0527,3.2589,3.343,3.5137,3.6865,3.8478,3.8763,3.9086,3.9883,4.0035,4.0092,4.0149,4.0149,4.0643,4.1444,4.1501,4.2726,4.578,4.5977,4.6904,4.908,4.6883,4.7127,4.9867,5.0045,5.066,5.1739,5.3831,5.4166,5.3413,5.5369,5.5812,5.4933,5.5909,5.6348,5.6446,5.7471,5.791,5.791,5.791,5.7276,5.647,5.752,5.7251,5.6495,5.7544,5.791,5.791,5.791,5.791,5.791,5.791,5.6495,5.4835,5.4762,5.3981,5.3127,5.3054,5.2224,5.1577,5.1577,5.1577,5.1577,5.1577,5.1577,5.1577,5.1577,5.1577,5.1577,5.1577,5.1577,5.1577,5.1577,5.1577,5.1577,5.1577,5.1577,5.1577,5.1577,5.2395,5.303,5.303,5.5885,5.7691,5.7691,5.7691,5.7691,5.7691,5.6666,5.6129,5.6129,5.5201,5.4738,5.4738,5.5812,5.6861,5.7788,5.7788,5.7715,3.5498,3.6295,3.6884,3.6979,3.3771,3.0192,2.8966,2.5943,2.3283,2.3143,2.3722,2.4608,2.6437,2.7798,2.9999,3.3637,3.4845,3.6466,3.9846,4.0301,4.0433,4.0737,3.9845,3.9408,3.9921,3.9503,3.9541,4.0395,4.0471,4.1044,4.208,4.2627,4.3232,4.4161,4.4408,4.6025,4.8952,5.0215,5.1774,5.3535,5.4941,5.4713,5.3111,5.5993,5.5878,5.3791,5.5422,5.586,0.0,5.569,5.586,5.586,5.586,5.5616,5.5299,5.5714,5.5592,5.5299,5.5714,5.586,5.586,5.586,5.586,5.586,5.586,5.5299,5.4494,5.3835,5.3347,5.2883,5.2224,5.1736,5.1577,5.1577,5.1577,5.1577,5.1577,5.1577,5.1577,5.1577,5.1577,5.1577,5.1577,5.1577,5.1577,5.1577,5.1577,5.1577,5.1577,5.2005,5.2175,5.1626,5.3591,5.4762,5.4079,5.6422,5.791,5.791,5.791,5.791,5.791,5.7495,5.7276,5.7276,5.6885,5.669,5.669,5.7081,5.7495,5.791,5.791,5.7544,3.7472,3.8649,3.9446,3.9162,3.5337,3.1059,2.9061,2.5369,2.2321,2.175,2.2088,2.3053,2.4865,2.601,2.7845,3.1635,3.3455,3.5523,3.9045,4.0218,4.0965,4.125,4.0244,3.9655,3.994,3.9446,3.9351,3.994,3.9978,3.9978,3.9978,4.0547,4.1231,4.2028,4.3507,4.5284,4.7473,4.8723,5.0112,5.1633,5.2947,5.3085,5.2178,5.5115,5.5353,5.3714,5.547,5.5812,5.5177,5.5519,5.5665,5.5665,5.5665,5.525,5.4689,5.5006,5.4713,5.4177,5.4518,5.464,5.464,5.464,5.464,5.464,5.464,5.4152,5.3469,5.2737,5.2517,5.2346,5.1773,5.1577,5.1577,5.1577,5.1577,5.1577,5.1577,5.1577,5.1577,5.1577,5.1577,5.1577,5.1577,5.1577,5.1577,5.1577,5.1577,5.1577,5.1577,5.2078,5.2249,5.165,5.4006,5.5299,5.4225,5.5812,5.6885,5.6885,5.6885,5.6885,5.6885,5.6885,5.6885,5.6885,5.6885,5.7056,5.7373,5.7373,5.7569,5.791,5.791,5.7495,4.0111,4.1269,4.1496,4.2332,3.7933,3.2738,3.0794,2.6624,2.2919,2.2334,2.2672,2.3243,2.3802,2.5461,2.6578,2.6578,3.0506,3.3939,3.5779,3.8361,4.0301,4.1155,4.1269,4.0927,4.0054,3.9978,3.9978,3.9978,3.9978,0.0,3.9997,3.9997,4.1155,4.3679,4.4553,4.497,4.497,4.497,4.497,4.497,4.7228,4.883,4.9842,5.2178,5.3644,5.4547,5.5763,5.6226,5.63,5.7422,5.7886,5.7886,5.7886,5.6544,5.4762,5.5812,5.4884,5.3176,5.425,5.4616,5.4591,5.4591,5.4591,5.4591,5.4591,5.3103,5.1577,5.1577,5.1577,5.1577,5.1577,5.1577,5.1577,5.1577,5.1577,5.1577,5.1577,5.1577,5.1577,5.1577,5.1577,5.1577,5.1577,5.1577,5.1577,5.1577,5.1552,5.1552,5.1552,5.1552,5.1552,5.1552,5.3347,5.4177,5.3127,5.4006,5.464,5.464,5.464,5.464,5.464,5.464,5.464,5.464,5.464,5.5153,5.6226,5.6226,5.6788,5.7886,5.7886,5.7886,3.813,4.0775,4.2958,4.2635,3.8979,3.4394,3.1141,2.7176,2.3879,2.249,2.2672,2.3243,2.3802,2.4335,2.5313,2.7314,2.9082,3.1576,3.5403,3.7601,3.9115,4.0243,4.0908,4.0699,3.9218,3.9636,3.9978,3.9978,3.9978,4.0244,4.0851,4.0889,4.1781,4.3698,4.4002,4.5032,4.7228,4.8697,5.0308,5.1712,5.4013,5.3697,5.118,5.4859,5.46,5.1421,5.4686,5.5812,5.5128,5.547,5.5592,5.5592,5.5592,5.5201,5.4665,5.4982,5.4225,5.3078,5.3396,5.3005,5.2371,5.2371,5.2371,5.2371,5.2371,5.1931,5.1577,5.1577,5.1577,5.1577,5.1577,5.1577,5.1577,5.1577,5.1577,5.1577,5.1577,5.1577,5.1577,5.1577,5.1577,5.1577,5.1577,5.1577,5.1577,5.1577,5.076,5.0247,5.0247,5.0247,5.0247,5.0247,5.22,5.3371,5.3054,5.4006,5.464,5.464,5.464,5.464,5.464,5.464,5.464,5.464,5.464,5.4787,5.5104,5.5104,5.5275,5.5592,5.5592,5.6007,3.5708,3.8639,4.0984,4.0032,3.7079,3.3432,3.015,2.7098,2.4295,2.2568,2.2841,2.3659,2.4464,2.423,2.4599,2.6757,2.7874,2.9493,3.2706,3.4725,3.6679,3.8574,3.9187,3.9402,3.9313,3.9674,3.9978,3.9978,3.9978,4.0509,4.1724,4.1781,4.254,4.4192,4.4249,4.5109,4.6895,4.8223,4.9983,5.203,5.3363,5.352,5.289,5.5457,5.5282,5.3099,5.5796,5.6544,5.5934,5.5934,5.5934,5.5934,5.5934,5.5665,5.5275,5.5275,5.4591,5.3664,5.3664,5.2981,5.2078,5.2078,5.2078,5.2005,5.1699,5.1577,5.1577,5.1577,5.1577,5.1577,5.1577,5.1577,5.1577,5.1577,5.1577,5.1577,5.1577,5.1577,5.1577,5.1577,5.1577,5.1577,5.1577,5.1053,5.076,5.076,4.9833,4.9296,4.9711,4.9759,4.993,5.037,5.1199,5.1907,5.2346,5.2981,5.3347,5.3347,5.3347,5.3347,5.3347,5.3347,5.3347,5.3347,5.3347,5.3566,5.3981,5.3981,5.4225,5.464,5.464,5.4982,3.3288,3.5337,3.6609,3.5925,3.376,3.1096,2.8541,2.6416,2.4347,2.2568,2.3113,2.4269,2.5464,2.471,2.4321,2.5554,2.6886,2.7982,2.8758,3.1054,3.3709,3.6607,3.7004,3.7791,3.9827,3.9978,3.9978,3.9978,3.9978,4.068,4.2332,4.2578,4.3376,4.4932,4.497,4.497,4.497,4.514,4.6264,4.8182,4.8347,5.0427,5.3968,5.428,5.5434,5.7282,5.7584,5.7735,5.791,5.791,5.791,5.791,5.791,5.73,5.6373,5.6373,5.5714,5.4787,5.4787,5.4079,5.3176,5.3078,5.303,5.2859,5.1883,5.165,5.1577,5.1577,5.1577,5.1577,5.1577,5.1577,5.1577,5.1577,5.1577,5.1577,5.1577,5.1577,5.1577,5.1577,5.1577,5.1528,5.143,5.0418,4.9711,4.9637,4.8832,4.8588,4.9491,4.9613,5.0207,5.1804,5.0754,5.0451,5.1588,5.1552,5.1577,5.1577,5.1577,5.1577,5.1577,5.1577,5.1577,5.1577,5.1577,5.1907,5.2883,5.2883,5.3396,5.4347,5.4347,5.4396,3.1471,3.332,3.4933,3.5556,3.376,3.1096,2.8541,2.6761,2.4866,2.2659,2.3113,2.4269,2.5464,2.471,2.4451,2.6074,2.6163,2.6885,2.929,3.0372,3.2559,3.6523,3.7004,3.7791,3.9827,3.9978,0.0,3.9978,3.9978,4.0433,4.1496,4.2787,4.3945,4.4951,4.497,4.497,4.497,4.658,4.7706,4.8182,4.9983,5.0308,4.9637,5.1435,5.2437,5.2912,5.4637,5.6248,5.791,5.791,5.791,5.791,5.791,5.7764,5.7569,5.7569,5.6837,5.5885,5.5885,5.5201,5.4152,5.3298,5.303,5.2981,5.2761,5.2102,5.1577,5.1577,5.1577,5.1577,5.1577,5.1577,5.1577,5.1577,5.1577,5.1577,5.1577,5.1577,5.1577,5.1577,5.1577,5.1283,5.0272,4.993,4.9491,4.8686,4.8393,4.832,4.8539,4.8564,5.0264,5.4797,5.2833,5.1812,5.327,5.2192,5.1577,5.1577,5.1577,5.1577,5.1577,5.1577,5.1577,5.1577,5.1577,5.1675,5.1895,5.1895,5.1907,5.2127,5.2127,5.2566,2.8298,2.9707,3.1096,3.1913,3.0848,2.9086,2.7246,2.5744,2.4412,2.2932,2.31,2.3957,2.5412,2.471,2.4399,2.5879,2.5619,2.5895,2.7534,2.8297,2.9873,3.3489,3.4794,3.6213,3.8421,3.9505,3.9978,3.9978,3.9978,3.9997,4.0035,4.1648,4.2958,4.3774,4.3812,4.3812,4.3812,4.4908,4.6209,4.7713,4.8845,5.0021,5.1392,5.2551,5.3543,5.4527,5.4614,5.5918,5.791,5.6754,5.693,5.791,5.791,5.791,5.791,5.791,5.7544,5.7032,5.7032,5.6324,5.5299,5.4738,5.4567,5.4372,5.3347,5.2639,5.2102,5.1699,5.1577,5.1577,5.1577,5.1577,5.1577,5.1577,5.1577,5.1577,5.1577,5.1577,5.1406,5.0736,5.0638,5.0296,4.9223,4.8612,4.8271,4.8246,4.7807,4.808,4.994,5.1367,5.2857,5.4876,5.44,5.3325,5.2021,5.1867,5.1305,5.006,4.9906,4.9906,4.9906,4.9906,4.9906,4.9906,5.037,5.0638,5.0638,5.1308,5.1577,5.1577,5.1577,5.1736,2.4243,2.5151,2.621,2.6761,2.6727,2.6433,2.5311,2.4465,2.3879,2.3204,2.323,2.3866,2.5529,2.4866,2.4542,2.6035,2.5606,2.5282,2.5892,2.6463,2.7843,0.0,3.2509,3.4588,3.6963,3.8827,0.0,0.0,3.9807,3.9731,3.9181,4.0509,4.1667,4.2522,4.254,4.254,4.254,4.254,4.3792,4.6192,4.6192,4.8438,5.2509,5.2799,5.4259,5.6227,5.4765,5.5398,5.7175,5.5375,5.5702,5.7349,5.7002,5.7147,5.7617,5.7293,5.7439,5.791,5.791,5.73,5.647,5.608,5.5836,5.5299,5.3347,5.2615,5.2273,5.1394,5.115,5.1308,5.1504,5.1577,5.1577,5.1577,5.1577,5.1577,5.1577,5.1577,5.1102,4.9979,4.9613,4.9174,4.8149,4.7392,4.7173,4.7856,4.7761,4.8769,5.1867,5.4487,5.5686,5.4818,5.5376,5.4381,5.1018,5.1666,5.1309,4.8746,4.8572,4.8472,4.8246,4.8246,4.8246,4.8246,4.9076,4.9491,4.9491,5.0418,5.0882,5.0882,5.0882,5.098,1.9488,2.0075,2.0559,2.1359,2.2733,2.3392,2.2549,2.3571,2.4506,2.3435,2.4009,2.4931,2.6178,2.5451,2.5681,2.8203,2.732,2.6489,2.7074,2.7645,2.909,3.2105,3.3153,3.4856,3.8177,3.873,3.8592,3.7871,3.9162,4.0263,4.0908,4.1155,4.1667,4.2522,4.254,4.254,4.254,4.254,4.2758,4.3175,4.3175,4.3535,4.4254,4.5877,4.7704,4.9908,5.1282,5.3102,5.5055,5.4744,5.4744,5.4912,5.32,5.4062,5.6152,5.4595,5.5662,5.791,5.791,5.7813,5.7373,5.547,5.4225,5.3225,5.2005,5.0955,5.015,5.0028,4.9979,5.0199,5.1175,5.1577,5.1577,5.1577,5.1577,5.1577,5.1577,5.1577,5.1102,4.9979,4.9052,4.8124,4.7051,4.7514,4.7758,4.6977,4.9464,5.179,5.2196,5.368,5.5677,5.8261,5.5271,5.3324,5.4247,5.3163,5.1799,5.0141,5.002,4.9462,4.8246,4.8246,4.8246,4.8246,4.8393,4.8442,4.8442,4.8612,4.8686,4.8686,4.8686,4.9125,1.8832,1.9181,1.9426,2.0192,2.0951,2.1194,2.0287,2.0625,2.0907,2.0468,2.057,2.1073,2.1788,2.2491,2.3334,2.4675,0.0,0.0,2.6334,2.6918,2.7828,0.0,3.21,0.0,3.573,3.8024,3.9275,3.8915,3.9124,3.9427,3.9807,4.0282,4.0718,4.1098,4.1098,4.1098,4.1098,4.1098,4.1345,4.1838,4.1838,4.2662,4.4336,4.5218,4.675,4.8907,4.9531,5.0997,5.2943,5.2991,5.3591,5.4498,5.3687,5.4143,5.518,5.4408,5.489,5.608,5.608,5.608,5.5909,5.4933,5.4323,5.3737,5.2639,5.198,5.1346,5.0101,4.9759,4.9735,4.9662,4.9637,4.9637,4.9637,4.9637,4.9637,4.9637,4.9637,4.9515,4.9003,4.8539,4.7905,4.6831,4.7539,4.8521,4.9687,5.1262,5.2963,5.4631,5.5693,5.6317,5.6869,5.592,5.4643,5.2845,5.2874,5.213,4.9917,4.9092,4.8333,4.768,4.6872,4.6416,4.6416,4.7026,4.7343,4.7343,4.7954,4.8246,4.8246,4.8246,4.849,1.5669,1.6319,1.6671,1.6674,1.7351,1.8109,1.7326,1.769,1.807,1.807,1.8001,1.8167,1.8479,1.9752,2.105,2.1762,2.3238,0.0,2.5619,2.6165,0.0,2.7482,0.0,3.2732,3.301,3.6581,0.0,3.8385,3.8306,3.827,3.827,3.9317,3.9978,3.9978,3.9978,3.9978,3.9978,3.9978,4.0301,4.0946,4.0946,4.2143,4.4241,4.4683,4.5885,4.7416,4.7715,4.8733,5.0198,5.0121,5.1014,5.2327,5.2327,5.2779,5.3445,5.3445,5.3946,5.4543,5.4006,5.3506,5.3225,5.367,5.381,5.3615,5.2517,5.22,5.1858,5.0223,4.9759,4.9637,4.9198,4.8856,4.8637,4.8637,4.8442,4.8246,4.8246,4.8246,4.8246,4.8246,4.8246,4.8002,4.7197,4.8302,4.999,5.1995,5.2963,5.4405,5.6824,5.7091,5.6555,5.5295,5.6027,5.5214,5.1941,5.2742,5.2483,5.0066,4.861,4.7642,4.722,4.5765,4.4859,4.4859,4.5782,4.6221,4.6221,4.7026,4.7417,4.7417,4.7417,4.7563,0.7117,0.8073,0.9245,0.7205,0.9889,1.2783,1.2518,1.5375,1.807,1.807,1.8395,1.8832,1.8852,1.8861,1.991,2.2856,2.3102,2.3434,2.5363,2.6165,2.6881,0.0,0.0,0.0,0.0,0.0,0.0,3.4118,3.5868,3.7105,3.7105,3.886,3.9978,3.9978,3.9978,3.9978,3.9978,3.9978,3.9997,4.0035,4.0035,4.0205,4.0394,4.2114,4.296,4.3254,4.4999,4.5861,4.6003,4.6003,4.6003,4.6146,4.6146,4.784,5.0415,5.0415,5.2232,5.4347,5.2297,5.0461,4.9205,5.1027,5.1724,5.1394,5.0272,4.993,4.9906,4.9784,4.9759,5.0003,5.1004,5.0467,4.9662,4.9662,4.8954,4.8246,4.8246,4.8246,4.8246,4.8246,4.8246,4.8222,4.8173,5.0365,5.217,5.2222,5.4869,5.6936,5.7412,5.648,5.5695,5.5564,5.456,5.3775,5.3589,5.3589,5.3036,5.1532,5.0011,4.861,4.7332,4.5765,4.4859,4.4859,4.4908,4.5049,4.5049,4.5005,4.503,4.503,4.503,4.5708,0.6309,0.6832,0.724,0.6514,0.7465,0.8657,0.826,0.933,1.0771,1.198,1.2633,1.3314,1.4566,1.599,1.7256,1.8205,2.0414,2.2175,2.311,2.4825,2.6123,2.6448,2.8658,3.0244,0.0,0.0,0.0,3.1617,3.495,3.7004,3.7004,3.8879,3.9978,3.9978,3.9978,3.9978,3.9978,3.9978,3.9978,3.9978,3.9978,3.9693,3.9181,4.0441,4.0972,4.1122,4.2984,4.3839,4.3984,4.5137,4.5708,4.5851,4.7026,4.8233,4.9253,5.0545,5.0921,5.0603,4.9849,4.8305,4.6863,4.7586,4.8581,4.9519,4.9142,4.9854,5.0687,4.9955,4.9759,4.9711,4.9442,4.8564,4.7758,4.7758,4.6929,4.6148,4.6148,4.6709,4.7221,4.7221,4.7783,4.8442,4.9101,5.0867,5.2963,5.4987,5.5786,5.6114,5.6231,5.5113,5.4299,5.4299,5.3891,5.3699,5.3699,5.3699,5.3473,5.2879,5.1504,5.0117,4.8719,4.7195,4.5995,4.4976,4.4859,4.4859,4.4859,4.4859,4.4365,4.3391,4.3391,4.3603,0.2576,0.2956,0.3006,0.2445,0.2826,0.3497,0.3825,0.4604,0.5549,0.7689,0.8665,0.9706,1.1331,1.3356,1.4906,1.5515,1.8434,2.091,2.1847,2.4177,2.5684,2.5684,2.7728,0.0,0.0,0.0,0.0,2.8967,3.2215,3.4218,3.4218,3.6194,3.7581,3.8215,3.8233,3.8531,3.9143,3.9143,3.9143,3.9143,3.9143,3.8839,3.8326,3.8877,3.9143,3.929,4.0533,4.095,4.1095,4.3083,4.3769,4.405,4.6453,4.7429,4.7746,5.0025,4.9104,4.6726,4.7452,4.6041,4.4072,4.4611,4.6019,4.7657,4.8094,4.9452,5.0809,5.0418,5.0321,5.015,4.9491,4.8515,4.7685,4.7685,4.6855,4.5977,4.5611,4.6392,4.7197,4.7197,4.8027,4.9101,5.015,5.1695,5.3503,5.5748,5.6089,5.5988,5.5593,5.4415,5.3699,5.3699,5.3699,5.3699,5.3699,5.3699,5.3699,5.3699,5.2348,5.0882,4.9477,4.7976,4.6542,4.4976,4.4365,4.4129,4.4129,4.3487,4.2744,4.1774,4.1774,4.1774,-0.4837,-0.4214,-0.3497,-0.5281,-0.44,-0.2645,-0.0609,0.1363,0.3462,0.5455,0.7328,0.8855,0.9374,1.0952,1.2966,1.5424,1.7732,1.977,2.1812,2.4041,2.5492,2.5466,2.5982,2.6331,0.0,2.584,2.5517,2.5517,2.7591,2.8758,2.8758,3.0805,3.2737,3.4715,3.486,3.5724,3.7491,3.7491,3.7491,3.7491,3.7472,3.7472,3.7491,3.7472,3.7472,3.7491,3.7491,3.7491,3.7633,3.9238,3.991,4.0323,4.3785,4.5248,4.5493,4.8474,4.6556,4.2945,4.4858,4.3299,4.0618,4.2476,4.4071,4.5739,4.6796,4.818,4.98,5.0871,5.1321,5.1321,5.1321,5.0492,4.9662,4.9662,4.8905,4.7905,4.6831,4.7465,4.8246,4.8198,4.9027,5.0052,5.1283,5.2829,5.3934,5.4379,5.5844,5.6595,5.5635,5.4386,5.3699,5.3699,5.3699,5.3699,5.3699,5.3699,5.3669,5.364,5.232,5.0854,4.9423,4.806,4.6542,4.4976,4.3367,4.2647,4.2526,4.0893,4.0025,4.0025,4.0025,4.0025,-0.5453,-0.4867,-0.4687,-0.5891,-0.554,-0.4921,-0.4658,-0.3153,-0.1104,0.1211,0.4352,0.7227,0.8948,1.1088,1.2762,1.3167,1.5167,1.6765,1.7107,1.9146,2.1061,2.2192,2.3113,2.3202,2.1763,2.2749,2.3613,2.3613,2.679,2.8758,2.8758,3.0805,3.2737,3.4715,3.486,3.5724,3.7491,3.7491,3.7491,3.7491,3.6865,3.6903,3.7472,3.6865,3.6903,3.7491,3.7491,3.7491,3.7491,3.8037,3.8158,3.858,4.2051,4.3498,4.3454,4.3687,4.2181,3.9938,4.1434,4.0344,3.8439,3.8979,4.0344,4.1866,4.2235,4.3517,4.505,4.5344,4.6386,4.7351,4.7351,4.7363,4.749,4.749,4.7295,4.6782,4.566,4.6904,4.8027,4.7246,4.7929,4.9089,5.0414,5.2036,5.3483,5.469,5.5521,5.5573,5.4357,5.3804,5.3699,5.3699,5.4414,5.4605,5.3699,5.4414,5.4472,5.3426,5.3213,5.1836,4.9232,4.8939,4.7505,4.4976,4.4483,4.3749,4.2526,4.2162,4.0646,3.8281,3.8281,3.8281,-0.8379,-0.7941,-0.781,-0.7889,-0.8156,-0.8203,-0.7316,-0.624,-0.4586,-0.1801,0.1195,0.4048,0.6368,0.8444,1.0242,0.0,1.3235,1.4844,1.5588,1.7743,1.95,2.0433,1.9946,1.9429,1.9123,2.005,2.1116,2.2025,2.4231,2.588,2.6646,2.794,2.938,3.1284,3.1427,3.2707,3.5284,3.5284,3.5719,3.6447,3.5953,3.5972,3.6447,3.5953,3.5991,3.6447,3.6447,3.6447,3.6447,3.7251,3.7504,3.7756,4.0503,4.1658,4.1593,4.1048,3.9828,3.8239,3.9034,3.8027,3.6447,3.6447,3.764,3.9279,3.9668,4.1095,4.2772,4.3828,4.4881,4.5812,4.6502,4.6985,4.7319,4.7319,4.7319,4.7026,4.5904,4.7026,4.7929,4.6855,4.7514,4.8472,4.9364,5.1365,5.2994,5.3475,5.4252,5.4473,5.3688,5.3699,5.3699,5.3699,5.47,5.5328,5.5112,5.5153,5.4845,5.4053,5.37,5.2387,4.9936,4.9563,4.8281,4.5995,4.3938,4.2382,4.153,3.903,3.684,3.4858,3.4858,3.4451,-1.2255,-1.1863,-1.1832,-1.0771,-1.1458,-1.1777,0.0,0.0,-0.7209,-0.4184,-0.1885,0.0438,0.2835,0.4817,0.6739,0.9074,1.1381,1.3485,1.525,1.7475,1.8897,1.8731,1.6107,1.5269,1.7186,1.7629,1.8501,2.0234,2.0525,2.1563,2.3475,2.3619,2.4464,2.6578,2.6578,2.8352,3.1933,3.2204,3.3047,3.4721,3.4872,3.5004,3.5004,3.5004,3.5004,3.5004,3.5004,3.5004,3.5136,3.665,3.7277,3.7385,3.9147,3.965,3.9524,3.9524,3.8515,3.7277,3.7277,3.626,3.5004,3.5004,3.6018,3.7418,3.8341,3.9599,4.1333,4.3771,4.4821,4.5359,4.6955,4.7631,4.788,4.788,4.7978,4.7758,4.6685,4.7319,4.7758,4.666,4.7221,4.788,4.8129,5.0527,5.2235,5.1423,5.265,5.3699,5.3699,5.3767,5.3865,5.3865,5.486,5.6034,5.7248,5.6056,5.5037,5.4725,5.3774,5.2564,5.1129,5.0063,4.8777,4.7332,4.2891,4.031,3.958,3.4159,3.1365,3.0906,3.0906,2.9945,0.0,0.0,0.0,0.0,0.0,0.0,0.0,-0.9823,-0.7616,-0.6683,-0.2706,0.0684,0.1211,0.3822,0.6184,0.6698,0.8552,1.0144,1.0449,1.2302,1.3069,1.1363,1.0667,1.1072,1.3201,1.483,1.5863,1.6299,1.7766,1.9527,2.1407,2.1552,2.3125,2.6578,2.6578,2.7685,3.0025,3.151,3.2473,3.276,3.4304,3.5004,3.5004,3.5004,3.5004,3.5004,3.5004,3.5004,3.5004,3.5381,3.5513,3.5644,3.7385,3.7148,3.6018,3.6018,3.5756,3.5513,3.5513,3.5249,3.5004,3.5004,3.5269,3.5551,3.5705,3.6008,3.6423,3.6976,3.9059,4.1221,4.1596,4.3592,4.5492,4.5492,4.6294,4.666,4.5538,4.6172,4.6636,4.5513,4.5464,4.5941,4.7199,4.8851,5.0015,4.988,5.2016,5.3699,5.3699,5.451,5.5078,5.5078,5.6124,5.7248,5.8472,5.7249,5.5356,5.2947,5.2838,5.2255,5.0689,5.0767,4.9665,4.7307,4.4989,4.1617,3.7051,3.4532,3.1648,2.8481,2.8481,2.7276,0.0,0.0,0.0,0.0,0.0,0.0,0.0,0.0,0.0,0.0,0.0,-0.3035,0.0,0.0,0.2291,0.3249,0.5003,0.6533,0.7437,0.85,0.8806,0.7744,0.7589,0.8046,0.9108,1.0002,1.103,1.1915,1.3859,1.5933,1.7826,1.89,2.0816,2.3698,2.384,2.5264,2.8104,2.906,3.042,3.2339,3.3181,3.4152,3.5004,3.5004,3.5004,3.5004,3.5004,3.5004,3.5004,3.5004,3.5004,3.5004,3.5887,3.5756,3.5004,3.5004,3.5004,3.5004,3.5004,3.5004,3.5004,3.5004,3.5004,3.5004,3.5004,3.5004,3.5136,3.6018,3.7534,3.9021,3.9775,4.1262,4.2503,4.2503,4.3527,4.4414,4.3868,4.4798,4.5635,4.4957,4.4859,4.5185,4.597,4.7949,4.9369,4.9369,5.1812,5.3699,5.3699,5.47,5.4214,5.131,5.3966,5.5481,5.4601,5.5067,5.5225,5.4868,5.4106,5.3217,5.2031,5.1144,4.9619,4.7306,4.3667,3.9846,3.5611,3.1913,2.8754,2.5977,2.4758,2.3619,0.0,0.0,0.0,0.0,0.0,0.0,0.0,0.0,0.0,0.0,0.0,0.0,0.0,0.0,0.0,0.0416,0.2034,0.3614,0.5312,0.5163,0.5011,0.5466,0.5469,0.5618,0.592,0.6072,0.6666,0.8294,0.9959,1.1902,1.4266,1.5942,1.8041,2.0391,2.0391,2.2118,2.5561,2.5844,2.778,3.1238,3.151,0.0,3.3904,3.4304,3.4455,3.4455,3.4872,3.4721,3.4455,3.4455,3.4455,3.4455,3.4455,3.4721,3.5004,3.5004,3.5004,3.5004,3.5004,3.5004,3.4872,3.4588,3.4721,3.4872,3.4588,3.4721,0.0,3.665,3.7277,3.777,3.9147,3.9775,4.0025,4.0025,4.1162,4.2018,4.2018,4.3128,4.4105,4.4365,4.4483,4.46,4.4859,4.681,4.8138,4.7759,5.0107,5.1906,5.2022,5.3729,5.3246,4.8674,5.2769,5.4767,5.2133,5.2534,5.4093,5.6943,5.4353,5.2445,5.1884,5.008,4.7907,4.5318,4.0252,3.633,3.3645,2.8487,2.5139,2.3418,2.0647,1.996,0.0,0.0,0.0,0.0,0.0,0.0,0.0,0.0,0.0,0.0,0.0,0.0,0.0,0.0,0.0,0.0,0.1794,0.3186,0.3481,0.1829,0.1372,0.3198,0.3502,0.4108,0.592,0.6072,0.6069,0.6368,0.6519,0.8321,1.2207,1.2661,0.0,0.0,0.0,1.937,2.1685,2.3217,2.5081,2.7266,2.906,2.9888,3.0162,3.1798,3.2608,3.2608,3.4304,3.4019,3.2608,3.2608,3.2608,3.2608,3.2608,3.36,3.5004,3.5004,3.5004,3.5004,3.5004,0.0,0.0,3.3047,3.36,3.4721,3.3029,3.3734,3.5004,3.5269,3.639,3.7514,3.777,3.8895,4.0025,4.0025,4.0149,4.0274,4.0274,4.0522,4.1016,4.2526,4.2911,4.3271,4.4718,4.4763,4.383,4.1711,4.3781,4.5702,4.6143,5.0457,5.3566,5.3739,5.7503,0.0,5.8524,5.2458,5.0919,5.614,4.9805,4.5903,4.6039,4.5685,4.3176,3.8227,3.4267,3.1529,2.9835,2.6147,2.3169,2.0898,1.7083,1.67,0.0,0.0,0.0,0.0,0.0,0.0,0.0,0.0,0.0,0.0,0.0,0.0,0.0,0.0,0.0,0.0,0.0137,0.1283,0.1311,0.0585,-0.0148,-0.0455,-0.0457,-0.0152,0.0608,-0.0303,0.0,0.2283,0.258,0.3785,0.6666,0.9083,1.1636,1.4461,1.6863,1.8511,1.9234,2.2262,2.4269,2.4953,2.6956,2.8506,2.9612,3.1374,3.1958,3.152,3.2477,3.2206,3.1036,3.0404,3.0725,3.1485,0.0,0.0,0.0,0.0,3.2742,3.3562,3.3562,3.3562,3.3237,3.1922,3.1933,3.2436,3.1119,3.1933,3.3467,3.3467,3.4664,3.5998,3.5998,3.652,3.7148,3.7148,3.7898,3.8515,3.8515,3.9399,4.0274,4.0893,4.1896,0.0,4.3391,4.4807,4.5807,4.5679,4.7285,4.9153,5.0979,5.369,5.4515,5.1719,5.5079,5.6518,5.4038,5.1701,0.0,0.0,0.0,5.1625,5.2402,5.1967,0.0,0.0,0.0,3.2844,2.9807,2.3413,0.0,0.0,1.8978,1.8135,0.0,0.0,0.0,0.0,0.0,0.0,0.0,0.0,0.0,0.0,0.0,0.0,0.0,0.0,0.0,0.0,0.0,-0.0136,-0.0553,-0.0561,-0.1291,-0.3418,-0.3324,-0.3047,-0.3047,-0.441,-0.3802,-0.0305,0.0,0.0911,0.3047,0.5927,0.8641,1.118,1.4031,1.6133,1.7334,2.0111,2.1902,2.2706,2.4159,2.5771,2.7538,2.942,2.994,2.9289,3.0068,2.9759,2.8697,2.7918,2.839,2.9239,2.63,2.6246,2.7884,2.9026,3.0193,3.1226,3.1226,3.1226,3.0943,2.9656,2.9684,3.0086,2.8889,2.9998,3.1663,3.2069,3.3181,3.4304,3.4872,3.5004,3.5004,3.5004,3.5887,3.676,3.676,3.777,3.8789,3.9273,4.0398,4.1105,4.1047,4.3262,4.5448,4.6778,4.8011,4.9948,5.2768,5.4814,5.4706,5.1194,5.4118,5.5186,5.228,5.1564,5.3165,5.7715,5.5461,5.5105,5.7651,5.5583,5.292,4.9782,4.1037,3.4651,0.0,0.0,0.0,0.0,0.0,0.0,0.0,0.0,0.0,0.0,0.0,0.0,0.0,0.0,0.0,0.0,0.0,0.0,0.0,0.0,0.0,0.0,0.0,0.0,-0.182,-0.2055,-0.2827,-0.495,-0.3992,-0.3047,-0.3047,-0.3199,-0.2286,-0.0153,0.0,0.0915,0.3047,0.3199,0.5171,0.9108,0.941,1.1367,1.5277,1.5426,1.7117,2.0381,2.0381,2.1106,2.239,2.4363,2.5281,2.5382,2.7164,2.6891,2.5222,2.5251,2.5266,2.5251,2.5106,2.6246,2.7756,2.7884,2.7884,2.7884,2.7884,2.7884,2.7645,2.5887,2.6838,2.8283,2.6466,2.7721,3.0009,3.1781,3.2339,3.276,3.4588,3.5004,3.5004,3.5004,3.5004,3.5004,3.5004,3.5136,3.5644,3.7277,3.7642,3.7447,3.7073,3.8366,3.9781,4.0562,4.1718,0.0,4.6896,5.0847,5.3823,5.4914,5.7622,5.8959,5.7964,5.2339,5.1441,5.7365,5.2106,5.1485,5.7468,5.1994,4.859,4.8072,4.0863,3.5494,3.2212,0.0,0.0,0.0,0.0,0.0,0.0,0.0,0.0,0.0,0.0,0.0,0.0,0.0,0.0,0.0,0.0,0.0,0.0,0.0,0.0,0.0,0.0,0.0,0.0,0.0,-0.479,-0.687,-0.6634,-0.6255,-0.6509,-0.6419,-0.5088,-0.17,-0.1753,-0.119,0.0893,0.2417,0.3777,0.505,0.768,0.9659,1.0966,1.3491,1.5814,1.7945,1.9192,2.0609,2.2204,2.4174,2.4727,2.4161,2.5064,2.4683,2.3566,2.2887,2.2449,2.2096,2.2096,2.2458,2.3303,2.5383,2.6114,2.6478,2.8518,2.9229,2.8964,2.7774,2.7968,2.8378,2.708,2.7561,2.9038,3.0887,3.18,3.276,3.4588,3.5004,3.5004,3.5004,3.5004,3.5004,3.5004,3.5004,3.5136,3.5776,3.7642,3.924,3.9489,4.2223,4.4671,4.5151,4.7647,5.0518,5.3379,5.5165,5.6501,5.729,5.7885,5.7978,5.7514,5.5518,5.5477,5.8202,5.6436,5.6397,5.8801,5.6824,5.4973,5.3436,5.0154,4.35,3.3425,0.0,0.0,0.0,0.0,0.0,0.0,0.0,0.0,0.0,0.0,0.0,0.0,0.0,0.0,0.0,0.0,0.0,0.0,0.0,0.0,0.0,0.0,0.0,0.0,0.0,0.0,-0.6803,-0.6459,0.0,-0.6398,-0.5886,-0.4185,-0.0806,-0.0969,-0.0425,0.1572,0.2468,0.3501,0.4921,0.7343,0.8994,0.9579,1.2177,1.4459,1.6403,1.7757,1.9531,2.1607,2.2897,2.3171,2.2638,2.2791,2.2566,2.2093,2.1406,2.171,2.259,2.1441,2.1277,2.2115,2.4099,2.4641,2.4696,2.732,2.8321,2.8179,2.7614,2.7289,2.7152,2.6331,2.6207,2.667,2.7886,2.9309,3.0829,3.2679,3.3657,3.4131,3.4131,3.4131,3.4131,3.4131,3.4359,3.4603,3.4793,3.6555,3.8347,3.898,4.2484,4.5419,4.6369,4.9939,5.3533,5.6037,5.7139,5.7741,5.7783,5.7616,5.7477,5.7365,5.7407,5.785,5.8818,5.9006,5.9153,5.9443,5.9409,5.8173,5.5593,5.3043,4.6834,0.0,0.0,0.0,0.0,0.0,0.0,0.0,0.0,0.0,0.0,0.0,0.0,0.0,0.0,0.0,0.0,0.0,0.0,0.0,0.0,0.0,0.0,0.0,0.0,0.0,0.0,0.0,-0.465,-0.3808,0.0,0.0,0.0,0.0,0.2075,0.2205,0.3016,0.4835,0.3369,0.4231,0.7852,0.7996,0.8977,1.1095,1.1227,1.2852,1.5964,1.5964,1.7692,2.0652,2.0652,2.0652,2.0652,2.0652,2.0652,2.0762,2.0819,2.3037,2.6009,2.3035,2.2754,2.4083,2.4083,2.3618,2.3092,2.4811,2.5462,2.5511,2.5479,2.5345,2.507,2.4756,2.3923,0.0,0.0,2.5411,2.7585,2.9558,3.1287,3.2526,3.2499,3.2518,3.2518,3.2518,3.3163,3.3913,3.4422,3.4597,3.4816,3.5823,0.0,4.175,4.4069,4.8245,5.2175,5.4669,5.6557,5.7349,5.6472,5.7065,5.7574,5.7731,5.7872,5.836,5.9247,5.9525,5.9624,5.9525,5.9326,5.7591,5.4105,4.9345,0.0,0.0,0.0,0.0,0.0,0.0,0.0,0.0,0.0,0.0,0.0,0.0,0.0,0.0,0.0,0.0,0.0,0.0,0.0,0.0,0.0,0.0,0.0,0.0,0.0,0.0,0.0948,-0.0248,-0.1158,-0.101,-0.0874,0.0,0.0,0.0,0.0,0.0,0.0,0.5111,0.3898,0.3882,0.5284,0.5291,0.638,0.8634,0.9938,1.224,1.5643,1.6934,1.8642,2.0652,2.0652,2.0652,2.0652,2.0652,2.1239,2.2449,2.3359,2.4125,2.4682,2.5005,2.4372,2.352,2.4725,2.4969,2.4955,2.6594,2.8209,2.9534,2.8668,2.8348,2.8129,2.7186,0.0,0.0,0.0,0.0,2.7345,3.1557,3.3008,3.3488,3.3942,3.4022,3.3781,3.2744,3.2688,3.2948,3.347,3.4093,3.4168,3.3317,3.5974,0.0,4.2457,0.0,5.0954,5.4295,5.5912,5.6652,5.6383,5.6871,5.7379,5.7727,5.8193,5.8767,5.9374,5.9517,5.9643,5.9896,5.7198,5.3582,4.9028,0.0,0.0,0.0,0.0,0.0,0.0,0.0,0.0,0.0,0.0,0.0,0.0,0.0,0.0,0.0,0.0,0.0,0.0,0.0,0.0,0.0,0.0,0.0,0.0,0.0,0.0,0.0,0.486,0.3739,0.3082,0.3007,0.2947,0.0,0.0,0.0,0.0,0.0,0.0,0.0,0.0,0.0,0.7603,0.7153,0.7667,0.9252,1.0482,1.2605,1.5602,1.7255,1.9022,2.0652,2.0652,2.0994,2.1564,2.0793,2.1996,2.4284,2.4068,2.5435,2.7497,0.0,0.0,0.0,0.0,2.5696,2.5519,2.6696,2.8864,3.0661,2.8546,0.0,0.0,0.0,0.0,0.0,0.0,0.0,2.7119,3.0031,3.2299,3.3997,3.4303,3.444,3.4212,3.3427,3.1076,2.9355,3.0239,3.0822,3.0989,3.0595,3.3399,0.0,0.0,0.0,4.9154,5.1423,5.448,5.6132,5.5479,5.6461,5.7333,5.7781,5.8394,5.9026,5.9555,5.9559,5.9058,5.7918,5.4228,4.9509,0.0,0.0,0.0,0.0,0.0,0.0,0.0,0.0,0.0,0.0,0.0,0.0,0.0,0.0,0.0,0.0,0.0,0.0,0.0,0.0,0.0,0.0,0.0,0.0,0.0,0.0,0.0,0.0,0.0,0.9045,0.8058,0.0,0.0,0.0,0.0,0.0,0.0,0.0,0.0,0.0,0.0,0.0,0.0,0.0,1.1111,1.1775,1.2417,1.378,1.5614,1.7471,1.9072,2.0542,2.0542,2.1191,2.2419,2.1599,0.0,2.632,2.4358,0.0,0.0,0.0,0.0,0.0,0.0,0.0,0.0,0.0,0.0,0.0,0.0,0.0,0.0,0.0,0.0,0.0,0.0,0.0,0.0,0.0,0.0,3.3672,3.37,3.3727,3.381,3.3643,2.9336,2.5609,2.6404,2.6565,2.6845,0.0,0.0,0.0,0.0,0.0,0.0,4.7729,5.264,5.5639,5.4407,5.6029,5.7443,5.7982,5.8635,5.9155,5.9643,5.8878,5.718,5.4442,5.0462,0.0,0.0,0.0,0.0,0.0,0.0,0.0,0.0,0.0,0.0,0.0,0.0,0.0,0.0,0.0,0.0,0.0,0.0,0.0,0.0,0.0,0.0,0.0,0.0,0.0,0.0,0.0,0.0,0.0,0.0,0.0,0.0,0.0,0.0,0.0,0.0,0.0,0.0,0.0,0.0,0.0,0.0,0.0,0.0,0.0,0.0,0.0,0.0,0.0,0.0,1.8631,2.0027,2.0249,2.0249,2.0052,1.9954,2.357,2.6661,2.8834,2.7244,0.0,0.0,0.0,0.0,0.0,0.0,0.0,0.0,0.0,0.0,0.0,0.0,0.0,0.0,0.0,0.0,0.0,0.0,0.0,0.0,0.0,0.0,3.1055,3.0733,3.1415,3.1828,3.0872,0.0,0.0,0.0,0.0,0.0,0.0,0.0,0.0,0.0,0.0,0.0,4.6333,5.144,5.4619,5.4712,5.6454,5.7882,5.8511,5.9062,5.9442,5.9643,5.4509,5.1315,0.0,0.0,0.0,0.0,0.0,0.0,0.0,0.0,0.0,0.0,0.0,0.0,0.0,0.0,0.0,0.0,0.0,0.0,0.0,0.0,0.0,0.0,0.0,0.0,0.0,0.0,0.0,0.0,0.0,0.0,0.0,0.0,0.0,0.0,0.0,0.0,0.0,0.0,0.0,0.0,0.0,0.0,0.0,0.0,0.0,0.0,0.0,0.0,0.0,0.0,0.0,0.0,0.0,0.0,0.0,0.0,0.0,0.0,2.5052,2.6419,0.0,0.0,0.0,0.0,0.0,0.0,0.0,0.0,0.0,0.0,0.0,0.0,0.0,0.0,0.0,0.0,0.0,0.0,0.0,0.0,0.0,0.0,0.0,0.0,0.0,0.0,0.0,0.0,0.0,0.0,0.0,0.0,0.0,0.0,0.0,0.0,0.0,0.0,0.0,0.0,4.446,5.0392,5.4397,5.4759,5.658,5.8008,5.8744,5.9237,5.8115,5.4822,5.1559,0.0,0.0,0.0,0.0,0.0,0.0,0.0,0.0,0.0,0.0,0.0,0.0,0.0,0.0,0.0,0.0,0.0,0.0,0.0,0.0,0.0,0.0,0.0,0.0,0.0,0.0,0.0,0.0,0.0,0.0,0.0,0.0,0.0,0.0,0.0,0.0,0.0,0.0,0.0,0.0,0.0,0.0,0.0,0.0,0.0,0.0,0.0,0.0,0.0,0.0,0.0,0.0,0.0,0.0,0.0,0.0,0.0,0.0,0.0,2.718,2.647,0.0,0.0,0.0,0.0,0.0,0.0,0.0,0.0,0.0,0.0,0.0,0.0,0.0,0.0,0.0,0.0,0.0,0.0,0.0,0.0,0.0,0.0,0.0,0.0,0.0,0.0,0.0,0.0,0.0,0.0,0.0,0.0,0.0,0.0,0.0,0.0,0.0,0.0,0.0,0.0,4.3017,4.9735,5.4469,5.5116,5.6741,5.8107,5.8968,5.9313,5.6795,5.038,4.8545,0.0,0.0,0.0,0.0,0.0,0.0,0.0,0.0,0.0,0.0,0.0,0.0,0.0,0.0,0.0,0.0,0.0,0.0,0.0,0.0,0.0,0.0,0.0,0.0,0.0,0.0,0.0,0.0,0.0,0.0,0.0,0.0,0.0,0.0,0.0,0.0,0.0,0.0,0.0,0.0,0.0,0.0,0.0,0.0,0.0,0.0,0.0,0.0,0.0,0.0,0.0,0.0,0.0,0.0,0.0,0.0,0.0,0.0,0.0,0.0,0.0,0.0,0.0,0.0,0.0,0.0,0.0,0.0,0.0,0.0,0.0,0.0,0.0,0.0,0.0,0.0,0.0,0.0,0.0,0.0,0.0,0.0,0.0,0.0,0.0,0.0,0.0,0.0,0.0,0.0,0.0,0.0,0.0,0.0,0.0,0.0,0.0,0.0,0.0,0.0,0.0,4.3109,4.9742,5.4766,5.6274,5.729,5.8313,5.9327,5.9565,5.6871,5.038,0.0,0.0,0.0,0.0,0.0,0.0,0.0,0.0,0.0,0.0,0.0,0.0,0.0,0.0,0.0,0.0,0.0,0.0,0.0,0.0,0.0,0.0,0.0,0.0,0.0,0.0,0.0,0.0,0.0,0.0,0.0,0.0,0.0,0.0,0.0,0.0,0.0,0.0,0.0,0.0,0.0,0.0,0.0,0.0,0.0,0.0,0.0,0.0,0.0,0.0,0.0,0.0,0.0,0.0,0.0,0.0,0.0,0.0,0.0,0.0,0.0,0.0,0.0,0.0,0.0,0.0,0.0,0.0,0.0,0.0,0.0,0.0,0.0,0.0,0.0,0.0,0.0,0.0,0.0,0.0,0.0,0.0,0.0,0.0,0.0,0.0,0.0,0.0,0.0,0.0,0.0,0.0,0.0,0.0,0.0,0.0,0.0,0.0,0.0,0.0,0.0,0.0,4.3628,4.9956,5.4817,5.636,5.7392,5.8346,5.9376,5.9613,5.562,4.609,0.0,0.0,0.0,0.0,0.0,0.0,0.0,0.0,0.0,0.0,0.0,0.0,0.0,0.0,0.0,0.0,0.0,0.0,0.0,0.0,0.0,0.0,0.0,0.0,0.0,0.0,0.0,0.0,0.0,0.0,0.0,0.0,0.0,0.0,0.0,0.0,0.0,0.0,0.0,0.0,0.0,0.0,0.0,0.0,0.0,0.0,0.0,0.0,0.0,0.0,0.0,0.0,0.0,0.0,0.0,0.0,0.0,0.0,0.0,0.0,0.0,0.0,0.0,0.0,0.0,0.0,0.0,0.0,0.0,0.0,0.0,0.0,0.0,0.0,0.0,0.0,0.0,0.0,0.0,0.0,0.0,0.0,0.0,0.0,0.0,0.0,0.0,0.0,0.0,0.0,0.0,0.0,0.0,0.0,0.0,0.0,0.0,0.0,0.0,0.0,0.0,0.0,4.4374,5.034,5.5048,5.6705,5.7693,5.8557,5.9407,5.8773,5.3797,4.3243,0.0,0.0,0.0,0.0,0.0,0.0,0.0,0.0,0.0,0.0,0.0,0.0,0.0,0.0,0.0,0.0,0.0,0.0,0.0,0.0,0.0,0.0,0.0,0.0,0.0,0.0,0.0,0.0,0.0,0.0,0.0,0.0,0.0,0.0,0.0,0.0,0.0,0.0,0.0,0.0,0.0,0.0,0.0,0.0,0.0,0.0,0.0,0.0,0.0,0.0,0.0,0.0,0.0,0.0,0.0,0.0,0.0,0.0,0.0,0.0,0.0,0.0,0.0,0.0,0.0,0.0,0.0,0.0,0.0,0.0,0.0,0.0,0.0,0.0,0.0,0.0,0.0,0.0,0.0,0.0,0.0,0.0,0.0,0.0,0.0,0.0,0.0,0.0,0.0,0.0,0.0,0.0,0.0,0.0,0.0,0.0,0.0,0.0,0.0,0.0,0.0,0.0,4.5291,5.0906,5.5572,5.7513,5.8425,5.9062,5.9457,5.6762,5.1481,0.0,0.0,0.0,0.0,0.0,0.0,0.0,0.0,0.0,0.0,0.0,0.0,0.0,0.0,0.0,0.0,0.0,0.0,0.0,0.0,0.0,0.0,0.0,0.0,0.0,0.0,0.0,0.0,0.0,0.0,0.0,0.0,0.0,0.0,0.0,0.0,0.0,0.0,0.0,0.0,0.0,0.0,0.0,0.0,0.0,0.0,0.0,0.0,0.0,0.0,0.0,0.0,0.0,0.0,0.0,0.0,0.0,0.0,0.0,0.0,0.0,0.0,0.0,0.0,0.0,0.0,0.0,0.0,0.0,0.0,0.0,0.0,0.0,0.0,0.0,0.0,0.0,0.0,0.0,0.0,0.0,0.0,0.0,0.0,0.0,0.0,0.0,0.0,0.0,0.0,0.0,0.0,0.0,0.0,0.0,0.0,0.0,0.0,0.0,0.0,0.0,0.0,0.0,4.506,4.9563,5.38,0.0,5.8425,5.9062,5.9457,5.8849,5.4367,4.4761,0.0,0.0,0.0,0.0,0.0,0.0,0.0,0.0,0.0,0.0,0.0,0.0,0.0,0.0,0.0,0.0,0.0,0.0,0.0,0.0,0.0,0.0,0.0,0.0,0.0,0.0,0.0,0.0,0.0,0.0,0.0,0.0,0.0,0.0,0.0,0.0,0.0,0.0,0.0,0.0,0.0,0.0,0.0,0.0,0.0,0.0,0.0,0.0,0.0,0.0,0.0,0.0,0.0,0.0,0.0,0.0,0.0,0.0,0.0,0.0,0.0,0.0,0.0,0.0,0.0,0.0,0.0,0.0,0.0,0.0,0.0,0.0,0.0,0.0,0.0,0.0,0.0,0.0,0.0,0.0,0.0,0.0,0.0,0.0,0.0,0.0,0.0,0.0,0.0,0.0,0.0,0.0,0.0,0.0,0.0,0.0,0.0,0.0,0.0,0.0,0.0,0.0,0.0,5.0053,5.4414,0.0,5.8573,5.9213,5.9457,5.8659,5.4367,4.5483,0.0,0.0,0.0,0.0,0.0,0.0,0.0,0.0,0.0,0.0,0.0,0.0,0.0,0.0,0.0,0.0,0.0,0.0,0.0,0.0,0.0,0.0,0.0,0.0,0.0,0.0,0.0,0.0,0.0,0.0,0.0,0.0,0.0,0.0,0.0,0.0,0.0,0.0,0.0,0.0,0.0,0.0,0.0,0.0,0.0,0.0,0.0,0.0,0.0,0.0,0.0,0.0,0.0,0.0,0.0,0.0,0.0,0.0,0.0,0.0,0.0,0.0,0.0,0.0,0.0,0.0,0.0,0.0,0.0,0.0,0.0,0.0,0.0,0.0,0.0,0.0,0.0,0.0,0.0,0.0,0.0,0.0,0.0,0.0,0.0,0.0,0.0,0.0,0.0,0.0,0.0,0.0,0.0,0.0,0.0,0.0,0.0,0.0,0.0,0.0,0.0,0.0,0.0,5.17,5.6568,5.7617,5.8675,5.9382,5.9495,5.697,5.2351,4.5331,4.2066,0.0,0.0,0.0,0.0,0.0,0.0,0.0,0.0,0.0,0.0,0.0,0.0,0.0,0.0,0.0,0.0,0.0,0.0,0.0,0.0,0.0,0.0,0.0,0.0,0.0,0.0,0.0,0.0,0.0,0.0,0.0,0.0,0.0,0.0,0.0,0.0,0.0,0.0,0.0,0.0,0.0,0.0,0.0,0.0,0.0,0.0,0.0,0.0,0.0,0.0,0.0,0.0,0.0,0.0,0.0,0.0,0.0,0.0,0.0,0.0,0.0,0.0,0.0,0.0,0.0,0.0,0.0,0.0,0.0,0.0,0.0,0.0,0.0,0.0,0.0,0.0,0.0,0.0,0.0,0.0,0.0,0.0,0.0,0.0,0.0,0.0,0.0,0.0,0.0,0.0,0.0,0.0,0.0,0.0,0.0,0.0,0.0,0.0,0.0,0.0,0.0,0.0,4.9288,5.3446,5.7321,5.7699,5.8182,5.9394,5.9117,5.4862,4.5482,4.4192,0.0,0.0,0.0,0.0,0.0,0.0,0.0,0.0,0.0,0.0,0.0,0.0,0.0,0.0,0.0,0.0,0.0,0.0,0.0,0.0,0.0,0.0,0.0,0.0,0.0,0.0,0.0,0.0,0.0,0.0,0.0,0.0,0.0,0.0,0.0,0.0,0.0,0.0,0.0,0.0,0.0,0.0,0.0,0.0,0.0,0.0,0.0,0.0,0.0,0.0,0.0,0.0,0.0,0.0,0.0,0.0,0.0,0.0,0.0,0.0,0.0,0.0,0.0,0.0,0.0,0.0,0.0,0.0,0.0,0.0,0.0,0.0,0.0,0.0,0.0,0.0,0.0,0.0,0.0,0.0,0.0,0.0,0.0,0.0,0.0,0.0,0.0,0.0,0.0,0.0,0.0,0.0,0.0,0.0,0.0,0.0,0.0,0.0,0.0,0.0,0.0,0.0,4.5914,4.9598,5.4943,5.6387,5.7374,5.832,5.9327,5.5655,4.5633,4.4095,0.0,0.0,0.0,0.0,0.0,0.0,0.0,0.0,0.0,0.0,0.0,0.0,0.0,0.0,0.0,0.0,0.0,0.0,0.0,0.0,0.0,0.0,0.0,0.0,0.0,0.0,0.0,0.0,0.0,0.0,0.0,0.0,0.0,0.0,0.0,0.0,0.0,0.0,0.0,0.0,0.0,0.0,0.0,0.0,0.0,0.0,0.0,0.0,0.0,0.0,0.0,0.0,0.0,0.0,0.0,0.0,0.0,0.0,0.0,0.0,0.0,0.0,0.0,0.0,0.0,0.0,0.0,0.0,0.0,0.0,0.0,0.0,0.0,0.0,0.0,0.0,0.0,0.0,0.0,0.0,0.0,0.0,0.0,0.0,0.0,0.0,0.0,0.0,0.0,0.0,0.0,0.0,0.0,0.0,0.0,0.0,0.0,0.0,0.0,0.0,0.0,0.0,0.0,4.6591,5.1621,5.4466,5.6192,5.6736,5.8101,5.4843,4.53,0.0,0.0,0.0,0.0,0.0,0.0,0.0,0.0,0.0,0.0,0.0,0.0,0.0,0.0,0.0,0.0,0.0,0.0,0.0,0.0,0.0,0.0,0.0,0.0,0.0,0.0,0.0,0.0,0.0,0.0,0.0,0.0,0.0,0.0,0.0,0.0,0.0,0.0,0.0,0.0,0.0,0.0,0.0,0.0,0.0,0.0,0.0,0.0,0.0,0.0,0.0,0.0,0.0,0.0,0.0,0.0,0.0,0.0,0.0,0.0,0.0,0.0,0.0,0.0,0.0,0.0,0.0,0.0,0.0,0.0,0.0,0.0,0.0,0.0,0.0,0.0,0.0,0.0,0.0,0.0,0.0,0.0,0.0,0.0,0.0,0.0,0.0,0.0,0.0,0.0,0.0,0.0,0.0,0.0,0.0,0.0,0.0,0.0,0.0,0.0,0.0,0.0,0.0,0.0,4.8157,4.8841,5.1169,5.3284,5.4897,5.5234,5.1792,4.3308,0.0,0.0,0.0,0.0,0.0,0.0,0.0,0.0,0.0,0.0,0.0,0.0,0.0,0.0]}],[{"header":{"parameterUnit":"kt","parameterCategory":2,"dx":1,"dy":1,"la1":29.285339999999998,"la2":30.599998999999997,"lo1":-89.70041500000002,"lo2":-87.6738589999976,"nx":112,"ny":82,"refTime":"2022-10-26T06:00:00:Z","depth":0,"parameterNumber":2,"parameterNumberName":"V-component_of_WINDS"},"data":[6.6357,6.6969,0.0,6.0619,5.8028,0.0,4.9035,0.0,4.5719,0.0,0.0,0.0,0.0,0.0,4.2985,4.3421,4.1676,3.9815,0.0,0.0,0.0,0.0,0.0,0.0,0.0,0.0,0.0,0.0,0.0,0.0,0.0,0.0,6.9306,7.1487,7.3116,7.3552,7.2708,7.3523,7.3523,7.2708,7.2388,7.2185,7.2127,7.2999,7.3581,7.4017,7.5326,7.5413,7.4599,7.425,7.4308,7.4599,7.425,7.4233,7.4525,7.4271,7.3361,7.1928,7.0902,6.8161,6.5174,6.4806,6.4308,6.3772,6.2124,6.2229,6.2842,6.1484,6.0302,5.9423,5.9057,5.8423,5.791,5.791,5.791,5.791,5.791,5.791,5.791,5.791,5.791,5.791,5.791,5.791,5.791,5.791,5.791,5.791,5.791,5.791,5.791,5.791,5.791,5.791,5.791,5.791,5.791,5.791,5.791,5.791,5.791,5.791,5.791,5.791,5.791,5.791,5.791,5.791,5.7715,5.7349,5.8838,5.8545,0.0,0.0,6.1701,5.4668,0.0,0.0,0.0,0.0,0.0,0.0,0.0,0.0,0.0,4.2753,4.2171,4.2171,4.1473,0.0,0.0,0.0,0.0,0.0,0.0,0.0,0.0,0.0,0.0,0.0,0.0,0.0,0.0,6.7415,6.9131,7.0876,7.2534,7.3174,7.2708,7.3552,7.3552,7.2708,7.1923,7.1749,7.2127,7.297,7.3581,7.4046,7.5384,7.521,7.3901,7.3057,7.297,7.3377,7.3377,7.3543,7.3958,7.4014,7.3988,7.3687,7.1635,6.933,6.7234,6.6768,6.6696,6.6258,6.417,6.402,6.4006,6.193,6.102,6.0192,5.9651,5.8984,5.8447,5.8447,5.8179,5.791,5.791,5.791,5.791,5.791,5.791,5.791,5.791,5.791,5.791,5.791,5.791,5.791,5.791,5.791,5.791,5.791,5.791,5.791,5.791,5.791,5.791,5.791,5.791,5.791,5.791,5.791,5.791,5.791,5.8276,5.8447,5.8447,5.8447,5.8276,5.7935,5.8642,5.8203,0.0,0.0,0.0,4.8655,0.0,0.0,0.0,0.0,4.0222,0.0,0.0,0.0,0.0,4.2084,4.2084,4.2142,4.22,0.0,0.0,0.0,0.0,0.0,0.0,0.0,0.0,0.0,0.0,0.0,0.0,0.0,6.6543,6.7066,6.823,7.0789,7.0934,7.1545,7.2708,7.2796,7.2825,7.2825,7.2767,7.2127,7.1138,7.3465,7.3872,7.2854,7.4046,7.3872,7.2708,7.2708,7.201,7.1167,7.361,7.457,7.4424,7.3174,7.2708,7.2384,7.0475,6.9255,6.8767,6.8645,6.8645,6.8645,6.8495,6.6887,6.4753,6.2893,6.2302,6.1732,6.0113,5.9521,5.9472,5.9545,5.8716,5.791,5.7959,5.7935,5.791,5.791,5.791,5.791,5.791,5.791,5.791,5.791,5.791,5.791,5.791,5.791,5.791,5.791,5.791,5.791,5.791,5.791,5.791,5.791,5.791,5.791,5.791,5.791,5.791,5.791,5.896,5.9497,5.9448,5.9497,5.896,5.791,5.791,5.791,5.0265,0.0,0.0,0.0,0.0,0.0,0.0,0.0,0.0,0.0,0.0,0.0,0.0,0.0,0.0,4.188,0.0,4.3567,0.0,0.0,0.0,0.0,0.0,0.0,0.0,0.0,0.0,0.0,0.0,6.1482,6.6717,6.7939,6.8782,6.9509,7.1283,7.2388,7.2708,7.4599,7.5559,7.5529,7.3639,7.3028,7.3581,7.2447,7.2737,7.4075,7.3494,7.3057,7.2708,7.2708,7.201,7.108,7.2621,7.3232,7.3203,7.2854,7.2156,7.1283,6.9676,6.9741,7.0211,6.9668,6.952,6.9206,6.773,6.7851,6.8046,6.6034,6.3933,6.2333,6.257,6.0498,5.874,6.0253,5.9228,5.813,5.8911,5.8447,5.791,5.791,5.791,5.791,5.791,5.791,5.791,5.791,5.791,5.791,5.791,5.791,5.791,5.791,5.791,5.791,5.791,5.791,5.791,5.791,5.791,5.791,5.791,5.791,5.791,5.791,5.896,5.913,5.835,5.913,5.896,5.791,5.791,5.791,0.0,0.0,0.0,0.0,0.0,0.0,4.3833,0.0,4.0775,0.0,0.0,0.0,0.0,0.0,0.0,0.0,4.5399,0.0,0.0,0.0,0.0,0.0,0.0,0.0,0.0,0.0,0.0,0.0,6.4274,6.378,6.7648,6.8608,6.9247,6.98,7.169,7.297,7.3523,7.5588,7.6635,7.6606,7.4512,7.3901,7.457,7.3145,7.3261,7.457,7.3843,7.3523,7.3494,7.2941,7.2301,7.1807,7.3028,7.3203,7.265,7.2156,7.1516,7.0731,6.9451,6.948,7.0195,7.0324,7.029,6.999,6.8833,6.8912,6.8927,6.6019,6.4284,6.3247,6.2797,6.099,5.9643,6.1302,6.0107,5.8764,5.9375,5.8667,5.791,5.791,5.791,5.791,5.791,5.791,5.791,5.791,5.791,5.8186,5.8981,5.8461,5.8186,5.9006,5.8461,5.791,5.791,5.791,5.791,5.791,5.791,5.791,5.791,5.791,5.791,5.791,5.9375,5.9619,5.8594,5.9619,5.9375,5.791,5.791,5.791,0.0,0.0,0.0,0.0,4.8142,0.0,0.0,0.0,4.4491,4.3884,0.0,0.0,0.0,0.0,0.0,0.0,0.0,0.0,0.0,0.0,0.0,0.0,0.0,0.0,0.0,6.4536,6.5292,6.8753,6.5816,6.5379,6.884,6.9015,6.9538,7.0673,7.201,7.3261,7.4395,7.5878,7.6635,7.6606,7.5268,7.4628,7.4628,7.4337,7.4279,7.4395,7.4104,7.4075,7.4133,7.3145,7.2621,7.2621,7.3901,7.3639,7.2388,7.1312,7.0818,7.0556,6.9422,6.9015,6.9218,7.0324,7.0702,7.0702,7.0702,6.9759,6.8008,6.4615,6.4108,6.3915,6.1721,6.0997,6.1107,6.2181,6.0936,5.9521,5.9521,5.8667,5.791,5.791,5.791,5.791,5.791,5.791,5.791,5.791,5.791,5.8461,6.0055,5.8858,5.8586,6.02,5.8858,5.791,5.791,5.791,5.791,5.791,5.791,5.791,5.791,5.791,5.791,5.791,5.9838,6.0351,5.9326,6.0351,5.9838,5.791,5.791,5.791,0.0,0.0,0.0,0.0,0.0,4.8212,0.0,0.0,0.0,0.0,0.0,0.0,0.0,0.0,0.0,0.0,0.0,0.0,0.0,0.0,0.0,0.0,0.0,0.0,0.0,6.8055,6.82,6.8957,6.8317,6.823,6.8986,6.9015,6.9131,6.9364,7.1545,7.2825,7.3086,7.5442,7.6635,7.6606,7.5268,7.4628,7.457,7.2534,7.2156,7.297,7.0963,7.0702,7.169,7.2418,7.2127,7.14,7.2592,7.2359,7.1254,7.1022,7.0265,6.9335,6.9102,6.9015,6.9073,6.9306,6.9364,6.9364,6.9364,6.8051,6.6435,6.5745,6.3517,6.1609,6.1881,6.0899,6.0058,6.1083,6.0399,5.9521,5.9521,5.8667,5.791,5.791,5.791,5.791,5.791,5.791,5.791,5.791,5.791,5.8061,5.8461,5.8186,5.8061,5.8461,5.8186,5.791,5.791,5.791,5.791,5.791,5.791,5.791,5.791,5.791,5.791,5.791,5.9155,5.9277,5.8228,5.9277,5.9155,5.791,5.791,5.791,4.7971,4.8287,4.9497,5.1535,0.0,0.0,0.0,0.0,5.1563,0.0,5.5548,5.4653,5.8201,0.0,0.0,0.0,0.0,0.0,0.0,0.0,0.0,0.0,0.0,0.0,6.8957,6.9015,6.9015,6.9015,6.9015,6.9015,6.9015,6.9015,6.9015,6.9015,7.1429,7.2708,7.2708,7.5326,7.6635,7.6606,7.5268,7.4628,7.457,7.2679,7.2156,7.265,7.14,7.1225,7.1865,7.2476,7.2359,7.1923,7.3174,7.2563,7.0934,7.0934,7.012,6.9015,6.9015,6.9015,6.9015,6.9015,6.9015,6.9015,6.9015,6.8293,6.7146,6.5317,6.3356,6.1847,6.1029,6.0192,5.9765,6.079,6.0253,5.9521,5.9521,5.8667,5.791,5.791,5.791,5.791,5.791,5.791,5.791,5.791,5.791,5.8336,5.9129,5.8461,5.8336,5.9129,5.8461,5.791,5.791,5.791,5.791,5.791,5.791,5.791,5.791,5.791,5.7642,5.7081,5.7593,5.7617,5.7081,5.7617,5.7593,5.7081,5.7642,5.791,4.7965,4.8858,5.0601,5.2344,5.2748,0.0,5.6131,5.5194,5.527,0.0,6.0237,5.9764,6.3513,0.0,0.0,0.0,0.0,0.0,0.0,0.0,0.0,0.0,0.0,0.0,6.8898,6.9015,6.9015,6.9015,6.9015,6.9015,6.9015,6.9015,6.9131,6.9364,7.1545,7.2825,7.3086,7.5442,7.6635,7.6606,7.5529,7.5035,7.4948,7.3435,7.2854,7.3057,7.2563,7.2505,7.2737,7.297,7.2796,7.2447,7.3203,7.2301,7.0556,7.0556,6.9887,6.9015,6.9015,6.9015,6.9015,6.9015,6.9015,6.9015,6.9015,6.9015,6.8293,6.4913,6.3356,6.2221,5.98,5.935,5.9667,6.0253,5.996,5.9448,5.9253,5.852,5.8032,5.8447,5.8374,5.8228,5.8228,5.8228,5.8154,5.7959,5.791,5.8461,5.9935,5.8858,5.8461,5.9935,5.8858,5.791,5.791,5.791,5.791,5.791,5.7715,5.7569,5.7569,5.7373,5.6861,5.5934,5.5909,5.5909,5.5909,5.5714,5.5812,5.6251,5.7154,5.7691,4.7669,4.9582,5.2344,5.5138,5.4872,0.0,6.228,6.3576,6.463,0.0,6.993,7.0218,7.1876,6.9233,0.0,0.0,0.0,0.0,0.0,0.0,0.0,0.0,0.0,0.0,6.8986,6.9015,6.9015,6.9015,6.9015,6.9015,6.9015,6.9015,6.9538,7.0673,7.201,7.3261,7.4395,7.5878,7.6635,7.6635,7.646,7.6402,7.6315,7.3843,7.3348,7.4308,7.2069,7.172,7.2825,7.393,7.3116,7.1022,7.0033,6.948,6.9218,6.9218,6.9131,6.9015,6.9015,6.9015,6.9015,6.9015,6.9015,6.9015,6.9015,6.9015,6.8576,6.6435,6.3494,6.0516,5.8609,5.8789,5.9301,5.8472,5.8911,5.9253,5.8301,5.7984,5.8447,6.0326,5.996,5.9326,5.9326,5.9326,5.9008,5.8057,5.791,5.8061,5.8186,5.8036,5.8061,5.8186,5.8036,5.791,5.791,5.791,5.791,5.791,5.6983,5.6422,5.6422,5.5494,5.4933,5.4811,5.4811,5.4811,5.4811,5.3859,5.4372,5.6226,5.6373,5.6959,4.8398,5.0338,5.2409,5.4481,0.0,0.0,6.2602,6.3654,0.0,0.0,7.2115,7.244,7.5565,7.3268,7.133,0.0,0.0,0.0,0.0,0.0,0.0,0.0,0.0,0.0,0.0,6.9015,6.9015,6.9015,6.9015,6.9015,6.9015,6.9015,6.9247,6.98,7.169,7.297,7.3494,7.5588,7.6635,7.6635,7.582,7.5471,7.5384,7.2825,7.2359,7.3377,7.0876,7.0934,7.2767,7.329,7.2505,7.0876,7.0324,6.9684,6.9015,6.9015,6.9015,6.9015,6.9015,6.9015,6.9015,6.9015,6.9015,6.9015,6.9015,6.9015,6.8859,6.8008,6.5048,6.1586,5.8734,5.8252,5.8642,5.8813,5.9204,5.9545,5.9692,5.9253,5.9277,6.0741,6.0692,6.0399,6.0399,6.0399,6.0033,5.9008,5.8838,5.8618,5.7984,5.791,5.791,5.791,5.791,5.791,5.791,5.791,5.791,5.791,5.6861,5.6226,5.6226,5.5201,5.4347,5.3713,5.3688,5.3396,5.2761,5.2322,5.2883,5.4396,5.5665,5.6837,4.968,0.0,0.0,0.0,0.0,0.0,0.0,0.0,6.7402,7.309,7.3715,7.4208,7.7332,7.58,7.4045,7.4045,0.0,0.0,0.0,0.0,0.0,0.0,0.0,0.0,0.0,0.0,0.0,0.0,6.9015,6.9015,6.9015,6.9015,6.9189,6.9538,7.1603,7.2883,7.3232,7.5471,7.6635,7.6606,7.5268,7.4628,7.4541,7.2388,7.2098,7.3116,7.0963,7.1051,7.265,7.1981,7.14,7.0905,7.0556,6.9829,6.9015,6.9015,6.9015,6.9015,6.9015,6.9015,6.9015,6.9015,6.9015,6.9015,6.9015,6.9015,6.9015,6.9015,6.6623,6.3383,6.0251,5.8734,5.8106,5.8886,5.9301,5.9716,6.0448,6.0473,6.0692,6.1717,6.1668,6.1473,6.1473,6.1205,6.0692,5.9667,5.9253,5.8789,5.8008,5.791,5.791,5.791,5.791,5.791,5.791,5.791,5.7788,5.7471,5.6397,5.5665,5.5348,5.4323,5.3371,5.2615,5.259,5.22,5.1577,5.1577,5.1834,5.2639,5.4494,5.6104,0.0,0.0,0.0,6.2832,6.3621,6.4509,7.171,0.0,7.3814,7.5425,7.6806,7.7759,7.7891,7.666,7.5526,7.5526,7.3057,7.1144,0.0,0.0,0.0,0.0,0.0,0.0,0.0,0.0,0.0,0.0,6.9015,6.9015,6.9015,6.9015,6.9596,7.0818,7.2069,7.3319,7.4541,7.5937,7.6635,7.6606,7.5268,7.4628,7.457,7.3261,7.3377,7.4482,7.3174,7.265,7.2534,7.012,6.9829,7.0818,6.9567,6.9044,6.9015,6.9015,6.9015,6.9015,6.9015,6.9015,6.9015,6.9015,6.9015,6.9015,6.9015,6.9015,6.9015,6.9015,6.7592,6.5584,6.3659,6.066,5.791,5.7959,5.8764,5.9521,5.9545,6.1107,6.2864,6.3987,6.3328,6.2571,6.2571,6.1693,6.0692,5.9667,5.8642,5.7959,5.791,5.791,5.791,5.791,5.791,5.791,5.791,5.791,5.7447,5.6348,5.5275,5.4225,5.3176,5.2102,5.165,5.1601,5.1601,5.1601,5.1577,5.1577,5.1577,5.165,5.2615,5.425,5.3922,5.6585,5.9478,6.3851,6.6745,6.9211,7.1677,7.3715,7.5228,7.5688,7.6937,7.7891,7.7891,7.7562,7.723,7.723,7.542,7.3761,7.2809,7.1442,0.0,0.0,0.0,0.0,0.0,0.0,0.0,0.0,6.9015,0.0,6.9015,6.9015,6.9218,6.9655,7.0033,7.1254,7.3348,7.5529,7.6635,7.6606,7.5268,7.4628,7.4541,7.2476,7.2185,7.3261,7.1167,7.0731,7.14,6.9713,6.9277,6.9596,6.9189,6.9015,6.9015,6.9015,6.9015,6.9015,6.9015,6.9015,6.9015,6.9015,6.9015,6.9015,6.9015,6.9015,6.9015,6.9015,6.7592,6.5983,6.5317,6.3383,6.1365,6.0872,6.0593,6.0717,6.1424,6.2132,6.2742,6.3108,6.2864,6.2401,6.1668,6.1254,6.0692,5.9667,5.9204,5.8716,5.8008,5.791,5.791,5.791,5.791,5.7617,5.6861,5.6788,5.6324,5.5226,5.4177,5.3396,5.3054,5.2005,5.1577,5.1577,5.1577,5.1577,5.1577,5.1577,5.1577,5.1601,5.2541,5.342,5.6552,5.9215,6.1813,6.6811,7.0197,7.2531,7.3551,7.5228,7.6543,7.6543,7.7266,7.7891,7.7891,7.7891,7.7891,7.7891,7.666,7.5101,7.3712,7.2086,7.0634,6.9238,6.9015,6.9015,6.9015,6.9015,6.9015,6.9015,6.9015,6.9015,6.9015,6.9015,6.9015,6.9015,6.9015,7.0004,7.2039,7.4628,7.5675,7.521,7.4366,7.3726,7.3232,7.1632,7.1341,7.1952,6.9916,6.948,7.0178,6.9364,6.9015,6.9015,6.9015,6.9015,6.9015,6.9015,6.9015,6.9015,6.9015,6.9015,6.9015,6.9015,6.9015,6.9015,6.9015,6.9015,6.9015,6.9015,6.8136,6.6988,6.6275,6.5155,6.4096,6.2904,6.1805,6.1039,6.1413,6.1791,6.2035,6.2035,6.2035,6.1815,6.1132,6.0717,6.0253,5.9619,5.9204,5.8691,5.8008,5.791,5.791,5.791,5.8116,5.7842,5.7099,5.6677,5.6266,5.5809,5.4062,5.3109,5.3367,5.2672,5.206,5.1577,5.206,5.206,5.1577,5.1577,5.1577,5.1577,5.2127,5.2444,5.9323,6.1101,6.3227,7.1677,7.3847,7.4603,7.7299,7.7891,7.7891,7.7891,7.7891,7.7891,7.7891,7.7891,7.7891,7.7891,7.666,7.5101,7.3824,7.2202,7.0634,6.9208,6.9015,6.9015,6.9015,6.9015,6.9015,6.9015,6.9015,6.9015,6.9015,6.9015,6.9015,6.9015,6.9015,6.9626,7.0905,7.3319,7.3959,7.2825,7.2737,7.2098,7.0934,7.0847,7.0818,7.076,6.9538,6.9015,6.9015,6.9015,6.9015,6.9015,6.9015,6.9015,6.9015,6.9015,6.9015,6.9015,6.9015,6.9015,6.9015,6.9015,6.9015,6.9015,6.9015,6.9015,6.9015,6.9015,6.9015,6.8576,6.6726,6.6275,6.5717,6.3934,6.2126,6.0506,5.9842,6.0541,6.1228,6.1095,6.1095,6.107,6.0863,6.0058,5.9423,5.9423,5.8569,5.7886,5.7837,5.7813,5.7813,5.7889,5.8295,5.8673,5.8622,5.7788,5.733,5.784,5.4866,5.3392,5.3837,5.3786,5.3035,5.1552,5.3165,5.3295,5.1819,5.1686,5.1686,5.1686,5.1552,5.1577,6.3161,6.6762,6.9803,7.4175,7.605,7.7036,7.7726,7.7891,7.7891,0.0,7.7891,7.7891,7.7891,7.7891,7.7891,7.7891,7.666,7.5526,7.5101,7.2861,7.1055,7.0634,6.9649,6.9015,6.9015,6.9015,6.9015,6.9015,6.9015,6.9015,6.9015,6.9015,6.9015,6.9015,6.9015,6.9626,7.0905,7.2447,7.3523,7.4133,7.3174,7.2098,7.0905,6.9945,6.948,6.948,6.916,6.9015,6.9015,6.9015,6.9015,6.9015,6.9015,6.9015,6.9015,6.9015,6.9015,6.9015,6.9015,6.9015,6.9015,6.9015,6.9015,6.9015,6.9015,6.9015,6.9015,6.9015,6.9015,6.8859,6.8449,6.8293,6.7722,6.5878,6.407,6.2442,6.1626,6.2804,6.3551,6.2113,6.1836,6.1156,5.9119,5.8496,5.8301,5.8301,5.8081,5.7617,5.6763,5.6666,5.6738,5.7272,5.7476,5.7734,5.8047,5.7835,5.7431,5.6762,5.4814,5.3704,5.3812,5.3786,5.3035,5.1552,5.5509,5.6744,5.5133,5.3915,5.3295,5.3165,5.206,5.1577,6.1934,6.703,7.2209,7.6398,7.7715,7.7891,7.7891,7.7891,7.7891,7.7891,7.7891,7.7891,7.7891,7.7891,7.7891,7.7891,7.723,7.6423,7.5736,7.365,7.1852,7.1263,6.9867,6.9015,6.9015,6.9015,6.9015,6.9015,6.9015,6.9015,6.9015,6.9015,6.9015,6.9015,6.9015,6.9364,7.0091,7.076,7.1749,7.2999,7.2272,7.1283,7.0062,6.9335,6.9015,6.9015,6.9015,6.9015,6.9015,6.9015,6.9015,6.9015,6.9015,6.9015,6.9015,6.9015,6.9015,6.9015,6.9015,6.9015,6.9015,6.9015,6.9015,6.9015,6.9015,6.9015,6.9015,6.9015,6.9015,6.9015,6.9015,6.9015,6.8732,6.7564,6.5878,6.437,6.4075,6.4068,6.3644,6.1825,6.0847,5.9853,5.8159,5.791,5.7739,5.7251,5.7178,5.6788,5.5665,5.6212,5.6764,5.7052,5.7993,5.8717,5.9056,5.8662,5.8427,5.8511,5.6253,5.5258,5.6006,5.6006,5.5258,5.3657,5.7109,5.8099,5.6376,5.5384,5.4881,5.4907,5.3295,5.293,5.9863,6.5553,7.2459,7.7791,7.8514,7.7856,7.7956,7.7891,7.7891,7.7891,7.7891,7.7891,7.7891,7.7891,7.7891,7.7891,7.7891,7.7463,7.6081,7.4485,7.2923,7.1617,6.9991,6.9015,6.9015,6.9015,6.9015,6.9015,6.9015,6.9015,6.9015,6.9015,6.9015,6.9015,6.9015,6.9015,6.9015,6.9189,6.9829,7.0934,7.0934,7.0265,6.9015,6.9015,6.9015,6.9015,6.9015,6.9015,6.9015,6.9015,6.9015,6.9015,6.9015,6.9015,6.9015,6.9015,6.9015,6.9015,6.9015,6.9015,6.9015,6.9015,6.9015,6.9015,6.9015,6.9015,6.9015,6.9015,6.9015,6.9015,6.9015,6.9015,6.9015,6.9015,6.7722,6.6435,6.6143,6.5048,6.3521,6.1702,5.996,5.8586,5.8586,5.8338,5.7622,5.6665,5.6371,5.5905,5.4567,5.5722,5.6721,5.6948,5.8624,5.977,6.0163,5.9453,5.945,6.0799,5.8218,5.7351,5.8837,5.8955,5.8337,5.7109,5.8456,5.8456,5.6988,5.6866,5.6744,5.6622,5.4781,5.4654,6.6243,7.0013,7.3728,7.6771,7.7402,7.7406,7.7886,7.7891,7.7891,7.7891,7.7891,7.7891,7.7891,7.7891,7.7891,7.7891,7.7891,7.7891,7.7562,7.5133,7.3407,7.315,7.0693,6.9015,6.9015,6.9015,6.9015,6.9015,6.9015,6.9015,6.9015,6.9015,6.9015,6.9015,6.9015,6.9015,6.9015,7.0062,7.0702,7.0934,7.0934,7.0265,6.9015,6.9015,6.9015,6.9015,6.9015,6.9015,6.9015,6.9015,6.9015,6.9015,6.9015,6.9015,6.9015,6.9015,6.9015,6.9015,6.9015,6.9015,6.9015,6.9015,6.9015,6.9015,6.9015,6.9015,6.9015,6.9015,6.9015,6.9015,6.9015,6.9015,6.9015,6.9015,6.8732,6.8008,6.6435,6.7146,6.7463,6.5584,6.3659,6.2408,6.2408,6.0266,5.849,5.8621,5.7642,5.61,5.3722,5.3575,5.449,5.6322,5.5553,5.6175,5.8908,5.8949,5.8955,5.9334,5.8837,5.8574,5.8837,5.8955,5.9334,6.0429,6.0685,6.0685,6.0429,5.9072,5.8456,5.8337,5.5258,5.4043,6.4293,6.8304,7.2338,7.368,7.6107,7.7958,7.7607,7.8188,7.8054,7.57,7.6661,7.7694,7.6937,7.7398,7.7891,7.7891,7.7891,7.7891,7.7891,7.5378,7.352,7.352,7.0814,6.9015,6.9015,6.9015,6.9015,6.9015,6.9015,6.9015,6.9015,6.9015,6.9015,6.9015,6.9015,6.9015,6.9015,6.9626,6.9916,6.9916,6.9916,6.9596,6.9015,6.9015,6.9015,6.9015,6.9015,6.9015,6.9015,6.9015,6.9015,6.9015,6.9015,6.9015,6.9015,6.9015,6.9015,6.9015,6.9015,6.9015,6.9015,6.9015,6.9015,6.9015,6.9015,6.9015,6.9015,6.9015,6.9015,6.9015,6.9015,6.9015,6.9015,6.9015,6.9015,6.8732,6.785,6.8293,6.8449,6.6435,6.545,6.4207,6.2267,6.0901,5.9474,5.7488,5.7382,5.6629,5.3861,5.4212,5.5252,5.6307,5.5633,5.5882,5.7472,5.8337,5.8955,5.8955,5.9682,6.0057,6.0057,6.0057,6.0429,6.1195,6.1195,6.1195,6.1195,6.0429,6.0057,6.0057,5.7592,5.6866,6.1434,6.568,7.0255,7.1274,7.4402,7.7089,7.6671,7.7687,7.7671,7.3884,7.5392,7.7061,7.6409,7.6904,7.7562,7.7858,7.7891,7.7891,7.7891,7.5378,7.352,7.352,7.0814,6.9015,6.9015,6.9015,6.9015,6.9015,6.9015,6.9015,6.9015,6.9015,6.9015,6.9015,6.9015,6.9015,6.9015,6.9015,6.9015,6.9015,6.9015,6.9015,6.9015,6.9015,6.9015,6.9015,6.9015,6.9015,6.9015,6.9015,6.9015,6.9015,6.9015,6.9015,6.9015,6.9015,6.9015,6.9015,6.9015,6.9015,6.9015,6.9015,6.9015,6.9015,6.9015,6.9015,6.9015,6.9015,6.9015,6.9015,6.9015,6.9015,6.9015,6.9015,6.9015,6.9015,6.9015,6.9015,6.8576,6.7016,6.6435,6.5155,6.2267,6.2007,6.0913,5.7469,5.7659,5.7298,5.4784,5.5258,5.6006,5.6376,5.5758,5.5633,5.6376,5.7592,5.8456,5.8837,6.0429,6.1195,6.1195,6.0941,6.0941,6.1195,6.1195,6.1195,6.1195,6.1195,6.1195,6.1166,5.9566,5.9566,6.279,6.5627,6.8978,7.195,7.2289,7.235,7.4094,7.5353,7.5848,7.4862,7.5008,7.585,7.7394,7.6773,7.6411,7.7694,7.7891,7.7891,7.7891,7.5378,7.352,7.352,7.0814,6.9015,6.9015,6.9015,6.9015,6.9015,6.9015,6.9015,6.9015,6.9015,6.9015,6.9015,6.9015,6.9015,6.9015,6.9015,6.9015,6.9015,6.9015,6.9015,6.9015,6.9015,6.9015,6.9015,6.9015,6.9015,6.9015,6.9015,6.9015,6.9015,6.9015,6.9015,6.9015,6.9015,6.9015,6.9015,6.9015,6.9015,6.9015,6.9015,6.9015,6.9015,6.9015,6.9015,6.9015,6.9015,6.9015,6.9015,6.9015,6.9015,6.9015,6.9015,6.9015,6.9015,6.9015,6.9015,6.8888,6.8732,6.7305,6.6011,6.5584,6.4771,6.3519,6.2002,6.0041,5.821,5.6376,5.4907,5.4654,5.6253,5.3786,5.3165,5.613,5.6499,5.723,5.8837,6.0429,6.1195,6.1195,5.9826,5.9826,6.1195,6.1195,6.1195,6.1195,6.1195,6.1195,6.1166,5.9566,5.8955,5.6439,6.0721,6.5109,6.4502,6.7582,7.1027,7.1852,7.2387,7.2485,7.192,7.4203,7.5905,7.4388,7.4997,0.0,7.6543,7.6641,7.6937,7.7792,7.5378,7.352,7.352,7.0814,6.9015,6.9015,6.9015,6.9015,6.9015,6.9015,6.9015,6.9015,6.9015,6.9015,6.9015,6.9015,6.9015,6.9015,6.9015,6.9015,6.9015,6.9015,6.9015,6.9015,6.9015,6.9015,6.9015,6.9015,6.9015,6.9015,6.9015,6.9015,6.9015,6.9015,6.9015,6.9015,6.9015,6.9015,6.9015,6.9015,6.9015,6.9015,6.9015,6.9015,6.9015,6.9015,6.9015,6.9015,6.9015,6.9015,6.9015,6.9015,6.9015,6.9015,6.9015,6.9015,6.9015,6.9015,6.9015,6.9015,6.9015,6.7785,6.6295,6.5238,6.4268,6.3132,6.1469,5.9929,5.8602,5.798,5.7351,5.6744,5.6376,5.4273,5.3425,5.4781,5.5758,5.7109,5.8837,5.945,6.02,6.1166,6.0685,6.0572,6.1195,6.1195,6.1195,6.1195,6.1195,6.1195,6.1195,6.0572,6.0315,5.2158,5.6404,6.0899,5.9151,6.3254,6.807,6.9497,6.9461,6.955,7.1087,7.3709,7.4844,7.2012,7.3156,7.4669,7.5096,7.5524,7.628,7.7694,7.5695,7.3935,7.352,7.1234,6.943,6.9015,6.9015,6.9015,6.9015,6.9015,6.9015,6.9015,6.9015,6.9015,6.9015,6.9015,6.9015,6.9015,6.9015,6.9015,6.9015,6.9015,6.9015,6.9015,6.9015,6.9015,6.9015,6.9015,6.9015,6.9015,6.9015,6.9015,6.9015,6.9015,6.9015,6.9015,6.9015,6.9015,6.9015,6.9015,6.9015,6.9015,6.9015,6.9015,6.9015,6.9015,6.9015,6.9015,6.9015,6.9015,6.9015,6.9015,6.9015,6.9015,6.9015,6.9015,6.9015,6.9015,6.8695,6.8404,6.8404,6.7357,6.606,6.4762,6.3759,6.2704,6.1436,6.0242,5.9566,5.9566,5.9566,5.8955,5.7351,5.5133,5.4273,5.5258,5.6006,5.723,5.945,5.9566,6.0057,6.1166,6.0799,6.0799,6.1195,6.1195,6.1195,6.1195,6.1195,6.1195,6.1195,6.1195,6.1195,5.2158,5.4006,5.6832,5.833,5.9936,6.2326,6.6982,6.6893,6.7535,7.3826,7.3697,7.2205,7.1628,7.1512,7.2005,7.3452,7.4866,7.628,7.7694,7.6525,7.5101,7.3632,7.2086,7.0513,6.9112,6.9015,6.9015,6.9015,6.9015,6.9015,6.9015,6.9015,6.9015,6.9015,6.9015,6.9015,6.9015,6.9015,6.9015,6.9015,6.9015,6.9015,6.9015,6.9015,6.9015,6.9015,6.9015,6.9015,6.9015,6.9015,6.9015,6.9015,6.9015,6.9015,6.9015,6.9015,6.9015,6.9015,6.9015,6.9015,6.9015,6.9015,6.9015,6.9015,6.9015,6.9015,6.9015,6.9015,6.9015,6.9015,6.9015,6.9015,6.9015,6.9015,6.9015,6.9015,6.9015,6.7968,6.7037,6.7037,6.599,6.5118,6.5118,6.4042,6.3198,6.3198,6.2008,6.1195,6.1195,6.1195,6.0572,5.9072,5.5882,5.5258,5.8574,5.7351,5.7713,6.1054,6.1195,6.1195,6.1195,5.9711,5.9682,6.1166,6.1195,6.1195,6.1195,6.1195,6.1195,6.1195,6.1195,6.1195,4.8662,5.2372,5.6466,5.6965,5.9079,6.2255,6.6946,7.1031,7.3457,7.228,7.2225,7.1674,6.8999,7.0953,7.3156,7.3617,7.4866,7.628,7.7694,7.666,7.542,7.4994,7.2747,7.0935,7.0513,6.9554,6.9015,6.9015,6.9015,6.9015,6.9015,6.9015,6.9015,6.9015,6.9015,6.9015,6.9015,6.9015,6.9015,6.9015,6.9015,6.9015,6.9015,6.9015,6.9015,6.9015,6.9015,6.9015,6.9015,6.9015,6.9015,6.9015,6.9015,6.9015,6.9015,6.9015,6.9015,6.9015,6.9015,6.9015,6.9015,6.9015,6.9015,6.9015,6.9015,6.9015,6.9015,6.9015,6.9015,6.9015,6.9015,6.9015,6.9015,6.9015,6.8317,6.7648,6.7648,6.663,6.5699,6.5699,6.4681,6.3809,6.3809,6.2733,6.1889,6.1889,6.1457,6.1195,6.1195,6.1195,6.1054,6.0572,5.8574,5.7713,5.8837,5.8456,5.8955,6.1054,6.1195,6.1195,6.1195,6.0799,6.0685,6.1195,6.1195,6.1195,6.1195,6.1195,6.1195,6.1195,6.1195,6.1195,4.7875,5.1195,5.5004,5.6832,5.7574,5.9808,6.6903,6.9741,7.0615,6.9479,7.0222,7.0212,6.735,7.0098,7.3058,7.3584,7.4866,7.628,7.7694,7.7097,7.632,7.5631,7.3951,7.2403,7.1263,7.0299,6.9554,6.9015,6.9015,6.9015,6.9015,6.9015,6.9015,6.9015,6.9015,6.9015,6.9015,6.9015,6.9015,6.9015,6.9015,6.9015,6.9015,6.9015,6.9015,6.9015,6.9015,6.9015,6.9015,6.9015,6.9015,6.9015,6.9015,6.9015,6.9015,6.9015,6.9015,6.9015,6.9015,6.9015,6.9015,6.9015,6.9015,6.9015,6.9015,6.9015,6.9015,6.9015,6.9015,6.9015,6.9015,6.9015,6.8898,6.8375,6.7619,6.6892,6.6397,6.5292,6.4391,6.4391,6.3344,6.2471,6.2471,6.1831,6.1195,6.1195,6.1195,6.1195,6.1195,6.0685,6.0572,6.1166,5.9826,5.9072,5.9711,5.9217,5.9566,6.1166,6.1195,6.1195,6.1195,6.1195,6.1195,6.1195,6.1195,6.1195,6.1195,6.1195,6.1195,6.1195,6.1195,6.1195,4.9065,5.0431,5.2816,5.7407,5.5988,5.6175,6.6433,6.4539,6.1789,6.5674,6.7475,6.7884,6.6383,6.8652,7.1282,7.309,7.4734,7.6247,7.7562,0.0,7.743,7.5977,7.5631,7.453,7.1705,7.1293,7.0634,6.9238,6.9015,6.9015,6.9015,6.9015,6.9015,6.9015,6.9015,6.9015,6.9015,6.9015,6.9015,6.9015,6.9015,6.9015,6.9015,6.9015,6.9015,6.9015,6.9015,6.9015,6.9015,6.9015,6.9015,6.9015,6.9015,6.9015,6.9015,6.9015,6.9015,6.9015,6.9015,6.9015,6.9015,6.9015,6.9015,6.9015,6.9015,6.9015,6.9015,6.9015,6.9015,6.9015,6.9015,6.8957,6.8549,6.7299,6.6892,6.6426,6.5234,6.3954,6.3053,6.3053,6.2122,6.1195,6.1195,6.1195,6.1195,6.1195,6.1195,6.1195,6.1195,5.9942,5.9566,6.1054,5.9942,5.9682,6.1054,5.9942,5.9682,6.1166,6.1195,6.1195,6.1195,6.1195,6.1195,6.1195,6.1195,6.1195,6.1195,6.1195,6.1195,6.1195,6.1195,6.1195,4.8024,4.9722,5.2684,5.621,5.8151,6.0245,6.4018,6.5609,6.5289,6.1623,6.237,6.3596,6.3045,6.3067,6.4739,6.9507,7.3386,7.5918,7.6247,7.7233,7.7793,7.743,7.632,7.5314,7.4639,7.2487,7.1055,7.0634,6.9679,6.9015,6.9015,6.9015,6.9015,6.9015,6.9015,6.9015,6.9015,6.9015,6.9015,6.9015,6.9015,6.9015,6.9015,6.9015,6.9015,6.9015,6.9015,6.9015,6.9015,6.9015,6.9015,6.9015,6.9015,6.9015,6.9015,6.9015,6.9015,6.9015,6.9015,6.9015,6.9015,6.9015,6.9015,6.9015,6.9015,6.9015,6.9015,6.9015,6.9015,6.9015,6.9015,6.8259,6.7415,6.7095,6.5525,6.4012,6.3722,6.2646,6.1631,6.1631,6.1399,6.1195,6.1195,6.1195,6.1195,6.1195,6.1195,6.1195,6.1195,6.0941,6.0799,6.1166,6.0941,6.0799,6.1166,6.0941,6.0799,6.1195,6.1195,6.1195,6.1195,6.1195,6.1195,6.1195,6.1195,6.1195,6.1195,6.1195,6.1195,6.1195,6.1195,6.1195,4.9345,5.0615,5.2271,5.4007,5.5416,5.6978,5.9227,5.9974,5.9392,5.6739,5.8492,6.0462,6.0319,6.2618,6.5397,6.783,7.0789,7.2795,7.2795,7.4044,7.5228,0.0,0.0,7.5711,7.5567,7.4171,7.2602,7.1263,7.0421,6.9649,6.9015,6.9015,6.9015,6.9015,6.9015,6.9015,6.9015,6.9015,6.9015,6.9015,6.9015,6.9015,6.9015,6.9015,6.9015,6.9015,6.9015,6.9015,6.9015,6.9015,6.9015,6.9015,6.9015,6.9015,6.9015,6.9015,6.9015,6.9015,6.9015,6.9015,6.9015,6.9015,6.9015,6.9015,6.9015,6.9015,6.9015,6.9015,6.8579,6.8113,6.8113,6.7124,6.599,6.5408,6.4216,6.3053,6.2471,6.1773,6.1195,6.1195,6.1195,6.1195,6.1195,6.1195,6.1195,6.1195,6.1195,6.1195,6.1195,6.0572,6.0429,6.1166,6.0572,6.0429,6.1166,6.1195,6.1195,6.1195,6.1195,6.1195,6.1195,6.1195,6.1195,6.1195,6.186,6.218,6.218,6.2762,6.2733,6.218,6.218,6.1747,5.1122,5.1731,5.1928,5.1876,5.1373,5.1597,5.4137,5.2735,5.1295,5.2623,5.5485,5.79,5.8163,6.3325,6.7402,6.6811,6.7764,6.875,6.9178,7.0526,7.194,7.3222,7.4603,7.5403,7.534,7.5095,7.3962,7.1634,7.1314,7.0635,6.943,6.9334,6.9238,6.9015,6.9015,6.8928,6.8724,6.8724,6.8811,6.9015,6.9015,6.9015,6.9015,6.9015,6.9015,6.9015,6.9015,6.9015,6.9015,6.9015,6.9015,6.9015,6.9015,6.9015,6.9015,6.9015,6.9015,6.9015,6.9015,6.9015,6.9015,6.9015,6.9015,6.9015,6.9015,6.9015,6.9015,6.9015,6.8055,6.7008,6.7008,6.5932,6.4536,6.346,6.3053,6.2616,6.1428,6.1195,6.1195,6.1195,6.1195,6.1195,6.1195,6.1195,6.1195,6.1195,6.1195,6.1195,6.1195,6.0057,5.9826,6.1054,6.0057,5.9826,6.1054,6.1195,6.134,6.1747,6.1889,6.1889,6.1889,6.1573,6.1511,6.1195,6.2355,6.3024,6.3198,6.4303,6.4361,6.3489,6.3489,6.2907,5.0321,5.0979,5.1909,5.1883,5.1784,5.1847,5.2309,5.2078,5.1814,5.2012,5.3463,5.5138,5.6421,5.8591,6.1287,6.4706,6.543,6.6449,6.8882,7.0526,7.1578,7.1808,7.3123,7.3983,7.3992,7.2768,7.2285,7.3047,7.1934,7.1124,7.0785,7.0845,7.0299,6.9015,6.9015,6.8462,6.7328,6.7328,6.7881,6.9015,6.9015,6.9015,6.9015,6.9015,6.9015,6.9015,6.9015,6.9015,6.9015,6.9015,6.9015,6.9015,6.9015,6.9015,6.9015,6.9015,6.9015,6.9015,6.9015,6.9015,6.9015,6.9015,6.9015,6.9015,6.9015,6.9015,6.9015,6.9015,6.8055,6.7008,6.7008,6.5263,6.346,6.3256,6.2384,6.1428,6.1224,6.1195,6.1195,6.1195,6.1195,6.1195,6.1195,6.1195,6.1195,6.1195,6.1195,6.1195,6.1195,6.1054,6.0941,6.1195,6.1054,6.0941,6.1195,6.1195,6.2209,6.4391,6.4536,6.4536,6.4536,6.3489,6.2384,6.1195,6.137,6.2122,6.3198,6.3402,6.3954,6.4827,6.4827,6.471,5.1094,5.1949,5.3067,5.3067,5.2769,5.2521,5.2521,5.2891,5.316,5.316,5.4982,5.6612,5.6887,5.9486,6.2028,6.3504,6.441,6.5693,6.7764,6.9342,7.0263,7.0263,7.1578,7.2795,0.0,7.3021,7.2511,7.2365,7.1684,7.0994,7.0144,7.0062,6.9411,6.7952,6.7982,6.7656,6.7034,6.6412,6.6281,6.6892,6.7619,6.7939,6.7968,6.8666,6.9015,6.9015,6.9015,6.9015,6.9015,6.9015,6.9015,6.9015,6.9015,6.9015,6.9015,6.9015,6.9015,6.9015,6.9015,6.9015,6.9015,6.9015,6.9015,6.9015,6.9015,6.9015,6.8869,6.8142,6.6979,6.5816,6.5118,6.3576,6.218,6.218,6.1602,6.1195,6.1195,6.1195,6.1195,6.1195,6.1195,6.1195,6.1195,6.1195,6.1195,6.1195,6.1195,6.1195,6.1195,6.1195,6.1195,6.1195,6.1805,6.2326,6.2326,6.2965,6.3867,6.503,6.5118,6.5118,6.5118,6.4536,6.3954,6.3373,6.4042,6.4681,6.5263,6.599,6.6281,6.6136,6.6136,6.5408,5.3659,0.0,5.52,5.596,5.5055,5.4084,0.0,5.414,5.4331,5.4731,5.6877,5.8623,5.8278,6.1226,6.3564,6.318,6.3847,6.5035,6.6811,6.8027,6.8849,6.9211,7.0263,7.1414,7.2531,7.263,7.2234,7.1477,7.138,7.0918,6.9731,6.9731,6.9064,6.7645,6.7917,6.8069,6.807,6.7139,6.6768,6.7123,6.7771,6.7852,6.7588,6.8304,6.8375,6.8113,6.8404,6.8549,6.8579,6.8898,6.9015,6.9015,6.9015,6.8811,6.8579,6.8898,6.8811,6.8608,6.8898,6.9015,6.9015,6.9015,6.9015,6.9015,6.9015,6.8579,6.7881,6.6863,6.5641,6.4449,6.346,6.2238,6.1195,6.1195,6.1195,6.1195,6.1195,6.1195,6.1195,6.1195,6.1195,6.1195,6.1195,6.1195,6.1195,6.1195,6.1195,6.1195,6.1195,6.1195,6.1195,6.1195,6.2442,6.3198,6.3198,6.4943,6.6019,6.6019,6.6019,6.6019,6.6019,6.5728,6.5554,6.5554,6.6223,6.6572,6.6572,6.791,6.8171,6.7502,6.7502,6.6455,0.0,5.915,5.8854,6.1484,5.9576,5.7018,5.7018,5.5578,0.0,5.6096,5.7658,5.9148,6.049,6.1565,6.2604,6.3878,6.3389,6.3851,6.6646,6.7139,6.7698,6.9079,6.9342,6.9441,6.9539,6.9539,7.0043,7.1422,7.1521,7.146,7.1173,7.1137,7.0529,6.9126,7.0497,7.1201,7.1218,7.114,7.1682,7.2871,7.1436,7.0273,6.8984,6.7768,6.6514,6.5467,6.663,6.7153,6.727,6.8491,6.9015,6.9015,6.9015,6.8259,6.7299,6.8549,6.823,6.7328,6.8579,6.9015,6.9015,6.9015,6.9015,6.9015,6.9015,6.7328,6.535,6.5263,6.4332,6.3314,6.3227,6.2238,6.1195,6.1195,6.1195,6.1195,6.1195,6.1195,6.1195,6.1195,6.1195,6.1195,6.1195,6.1195,6.1195,6.1195,6.1195,6.1195,6.1195,6.1195,6.1195,6.1195,6.2442,6.3198,6.3198,6.6601,6.8753,6.8753,6.8753,6.8753,6.8753,6.7532,6.6892,6.6892,6.5787,6.5234,6.5234,6.6514,6.7764,6.8869,6.8869,6.8782,6.1484,6.2865,6.3884,6.4049,6.3182,6.1561,5.8737,5.8268,5.836,5.8007,5.9084,6.0528,6.1533,6.2803,6.3969,6.531,6.5191,6.6125,6.9364,6.9803,7.0033,7.0559,6.9013,6.8257,6.9145,6.8422,6.8487,6.9967,7.0098,7.0029,7.0032,7.0944,7.1244,7.0672,7.0382,7.02,7.0237,6.9433,6.8707,6.8215,6.8456,6.8784,6.9216,6.8532,6.8087,6.7625,6.7233,6.6572,0.0,6.6368,6.6572,6.6572,6.6572,6.6281,6.5903,6.6397,6.6252,6.5903,6.6397,6.6572,6.6572,6.6572,6.6572,6.6572,6.6572,6.5903,6.4943,6.4158,6.3576,6.3024,6.2238,6.1657,6.1195,6.1195,6.1195,6.1195,6.1195,6.1195,6.1195,6.1195,6.1195,6.1195,6.1195,6.1195,6.1195,6.1195,6.1195,6.1195,6.1195,6.1977,6.218,6.1253,6.3867,6.5263,6.4449,6.7241,6.9015,6.9015,6.9015,6.9015,6.9015,6.852,6.8259,6.8259,6.7793,6.7561,6.7561,6.8026,6.852,6.9015,6.9015,6.8579,6.4904,6.6942,6.8323,6.783,6.7165,6.5484,6.0927,6.0871,6.1327,5.9757,6.0685,6.2069,6.3124,6.3974,6.4812,6.5587,6.5659,6.6809,7.0078,7.0725,7.0953,7.1446,6.9704,6.8685,6.9178,6.8323,6.8159,6.9178,6.9244,6.9244,6.9244,7.023,7.1414,7.2795,7.2408,7.2119,7.2065,7.1225,7.0255,6.9145,6.9629,6.981,6.9875,6.9289,6.8661,6.7831,6.7291,6.6514,6.5757,6.6165,6.6339,6.6339,6.6339,6.5845,6.5176,6.5554,6.5205,6.4565,6.4972,6.5118,6.5118,6.5118,6.5118,6.5118,6.5118,6.4536,6.3722,6.2849,6.2587,6.2384,6.1428,6.1195,6.1195,6.1195,6.1195,6.1195,6.1195,6.1195,6.1195,6.1195,6.1195,6.1195,6.1195,6.1195,6.1195,6.1195,6.1195,6.1195,6.1195,6.2064,6.2267,6.1282,6.4361,6.5903,6.4623,6.6514,6.7793,6.7793,6.7793,6.7793,6.7793,6.7793,6.7793,6.7793,6.7793,6.7997,6.8375,6.8375,6.8608,6.9015,6.9015,6.852,6.9474,7.1479,7.1874,7.3321,7.1719,6.8637,6.3843,6.3104,6.2968,6.1363,6.229,6.386,6.5394,6.5052,6.4562,6.4562,6.4318,6.5197,6.8005,6.8851,6.9803,7.1282,7.1479,7.0888,6.9375,6.9244,6.9244,6.9244,6.9244,0.0,6.9276,6.9276,7.1282,7.5655,7.7167,7.7891,7.7891,7.7891,7.7891,7.7891,7.632,7.4125,7.1514,6.9875,6.7742,6.5295,6.6455,6.7008,6.7095,6.8433,6.8986,6.8986,6.8986,6.7386,6.5263,6.6514,6.5408,6.3373,6.4652,6.5089,6.5059,6.5059,6.5059,6.5059,6.5059,6.3285,6.1195,6.1195,6.1195,6.1195,6.1195,6.1195,6.1195,6.1195,6.1195,6.1195,6.1195,6.1195,6.1195,6.1195,6.1195,6.1195,6.1195,6.1195,6.1195,6.1195,6.1166,6.1166,6.1166,6.1166,6.1166,6.1166,6.3576,6.4565,6.3314,6.4361,6.5118,6.5118,6.5118,6.5118,6.5118,6.5118,6.5118,6.5118,6.5118,6.5728,6.7008,6.7008,6.7677,6.8986,6.8986,6.8986,6.6715,7.0625,7.4406,7.3847,7.4086,7.2516,6.4561,6.4807,6.5608,6.1791,6.229,6.386,6.5394,6.5522,6.5516,6.5942,6.6883,6.7716,6.8372,7.0347,7.1297,7.0055,7.0855,7.0493,6.7928,6.8652,6.9244,6.9244,6.9244,6.9704,7.0756,7.0822,7.2367,7.5688,7.6214,7.6449,7.632,7.5346,7.4234,7.317,7.1678,7.1583,7.2755,7.0216,6.926,6.9492,6.7833,6.6514,6.5699,6.6106,6.6252,6.6252,6.6252,6.5787,6.5147,6.5525,6.4623,6.3256,6.3634,6.3169,6.2413,6.2413,6.2413,6.2413,6.2413,6.1889,6.1195,6.1195,6.1195,6.1195,6.1195,6.1195,6.1195,6.1195,6.1195,6.1195,6.1195,6.1195,6.1195,6.1195,6.1195,6.1195,6.1195,6.1195,6.1195,6.1195,6.0493,5.9883,5.9883,5.9883,5.9883,5.9883,6.2209,6.3605,6.3227,6.4361,6.5118,6.5118,6.5118,6.5118,6.5118,6.5118,6.5118,6.5118,6.5118,6.5292,6.567,6.567,6.5874,6.6252,6.6252,6.6746,6.787,7.2289,7.6675,7.529,7.5605,7.4216,6.6158,6.6236,6.675,6.2005,6.2754,6.5002,6.7214,6.6571,6.6233,6.7928,6.8134,6.8236,6.8569,7.0416,7.1217,6.9949,7.0694,7.0357,6.8093,6.8718,6.9244,6.9244,6.9244,7.0164,7.2268,7.2367,7.3682,7.6543,7.6641,7.6579,7.6525,7.5695,7.4453,7.2944,7.2116,7.2,7.2464,7.0664,7.0125,7.0465,6.8595,6.7386,6.6659,6.6659,6.6659,6.6659,6.6659,6.6339,6.5874,6.5874,6.5059,6.3954,6.3954,6.314,6.2064,6.2064,6.2064,6.1977,6.134,6.1195,6.1195,6.1195,6.1195,6.1195,6.1195,6.1195,6.1195,6.1195,6.1195,6.1195,6.1195,6.1195,6.1195,6.1195,6.1195,6.1195,6.1195,6.0842,6.0493,6.0493,5.9388,5.8748,5.9243,5.9301,5.9505,6.0028,6.1017,6.186,6.2384,6.314,6.3576,6.3576,6.3576,6.3576,6.3576,6.3576,6.3576,6.3576,6.3576,6.3838,6.4332,6.4332,6.4623,6.5118,6.5118,6.5525,7.0981,7.4926,7.8062,7.7041,7.6273,7.4155,6.8063,6.7491,6.6893,6.2005,6.3503,6.6678,6.9961,6.7891,6.6821,7.021,6.8693,6.7556,6.9001,6.9748,7.0277,7.0698,7.0706,7.0332,6.9331,6.9244,6.9244,6.9244,6.9244,7.046,7.3321,7.3748,7.5129,7.7825,7.7891,7.7891,7.7891,7.7793,7.6996,7.5631,7.5526,7.4062,7.1617,7.1381,7.0634,6.9488,6.9238,6.9112,6.9015,6.9015,6.9015,6.9015,6.9015,6.8288,6.7183,6.7183,6.6397,6.5292,6.5292,6.4449,6.3373,6.3256,6.3198,6.2995,6.1831,6.1282,6.1195,6.1195,6.1195,6.1195,6.1195,6.1195,6.1195,6.1195,6.1195,6.1195,6.1195,6.1195,6.1195,6.1195,6.1195,6.1137,6.1021,6.0086,5.9243,5.9156,5.8196,5.7905,5.8981,5.9126,5.957,6.0654,5.9953,5.986,6.0938,6.1166,6.1195,6.1195,6.1195,6.1195,6.1195,6.1195,6.1195,6.1195,6.1195,6.186,6.3024,6.3024,6.3634,6.4769,6.4769,6.4827,6.8267,7.105,7.4068,7.6249,7.6273,7.4155,6.8063,6.8375,6.832,6.2255,6.3503,6.6678,6.9961,6.7891,6.7178,7.1637,7.0917,7.0037,7.0713,7.1988,7.2277,7.0913,7.0706,7.0332,6.9331,6.9244,0.0,6.9244,6.9244,7.0033,7.1874,7.411,7.6115,7.7858,7.7891,7.7891,7.7891,7.6761,7.5977,7.5631,7.4453,7.4234,7.4639,7.3457,7.2839,7.2495,7.1204,7.0084,6.9015,6.9015,6.9015,6.9015,6.9015,6.884,6.8608,6.8608,6.7735,6.6601,6.6601,6.5787,6.4536,6.3518,6.3198,6.314,6.2878,6.2093,6.1195,6.1195,6.1195,6.1195,6.1195,6.1195,6.1195,6.1195,6.1195,6.1195,6.1195,6.1195,6.1195,6.1195,6.1195,6.0847,5.9912,5.9505,5.8981,5.8021,5.7672,5.7585,5.7847,5.7876,5.7822,5.7493,5.9455,6.0397,5.9422,6.0572,6.1195,6.1195,6.1195,6.1195,6.1195,6.1195,6.1195,6.1195,6.1195,6.1311,6.1573,6.1573,6.186,6.2122,6.2122,6.2646,6.874,7.1279,7.4155,7.6571,7.6351,7.4314,6.9612,6.84,6.7071,6.3004,6.3468,6.5822,6.9818,6.7891,6.7035,7.1102,7.0389,6.9721,7.0804,7.2299,7.3018,7.2228,7.1735,7.1072,7.0033,6.9471,6.9244,6.9244,6.9244,6.9276,6.9342,7.2137,7.4406,7.5819,7.5885,7.5885,7.5885,7.511,7.4673,7.4534,7.3797,7.3465,7.3395,7.2663,7.203,7.1383,7.1174,7.0299,6.9015,6.9773,6.9679,6.9015,6.9015,6.9015,6.9015,6.9015,6.8579,6.7968,6.7968,6.7124,6.5903,6.5234,6.503,6.4798,6.3576,6.2733,6.2093,6.134,6.1195,6.1195,6.1195,6.1195,6.1195,6.1195,6.1195,6.1195,6.1195,6.1195,6.0992,6.0464,6.0348,5.9941,5.8661,5.7934,5.7527,5.7498,5.6974,5.6794,5.7197,5.7049,5.718,5.7575,5.8337,5.8964,5.9058,5.9143,5.9281,5.9395,5.9475,5.9475,5.9475,5.9475,5.9475,5.9475,6.0028,6.0348,6.0348,6.0876,6.1195,6.1195,6.1195,6.1657,6.9911,7.2529,7.5055,7.6632,7.6001,7.4131,7.0984,6.8142,6.5608,6.3753,6.3824,6.5573,7.0139,6.832,6.7428,7.153,7.0353,6.9461,7.1138,7.2708,7.3491,0.0,7.2591,7.1708,7.0256,6.933,0.0,0.0,6.8948,6.8816,6.7863,7.0164,7.217,7.3649,7.3682,7.3682,7.3682,7.3682,7.3609,7.3565,7.3565,7.2837,7.1614,7.1353,7.0393,6.9125,7.0096,6.9645,6.8442,6.9616,6.9403,6.8346,6.8537,6.8712,6.8666,6.8887,6.9062,6.9015,6.9015,6.8288,6.7299,6.6834,6.6543,6.5903,6.3576,6.2704,6.2297,6.125,6.0959,6.0876,6.1108,6.1195,6.1195,6.1195,6.1195,6.1195,6.1195,6.1195,6.0901,5.9563,5.9126,5.8603,5.7381,5.648,5.6218,5.7032,5.6417,5.6103,5.6851,5.6423,5.642,5.7263,5.6351,5.6314,5.7665,5.688,5.6487,5.7075,5.7123,5.7258,5.7498,5.7498,5.7498,5.7498,5.8487,5.8981,5.8981,6.0086,6.0639,6.0639,6.0639,6.0755,6.9098,7.118,7.2898,7.4486,7.4356,7.3076,6.9917,6.8456,6.6875,6.3952,6.552,6.8498,7.1923,6.9925,7.0083,7.7488,7.5062,7.2779,7.4384,7.5954,7.5291,7.0858,7.1505,7.1071,6.7823,6.7421,6.6843,6.5594,6.783,6.9737,7.0855,7.1282,7.217,7.3649,7.3682,7.3682,7.3682,7.3682,7.3688,7.3664,7.3664,7.3541,7.3288,7.2013,7.0724,6.9327,6.8364,6.7058,6.5612,6.5822,6.5822,6.5732,6.6882,6.736,6.7515,6.8635,6.9045,6.9015,6.9015,6.8898,6.8375,6.6106,6.4623,6.3431,6.1977,6.0726,5.9766,5.9621,5.9563,5.9824,6.0988,6.1195,6.1195,6.1195,6.1195,6.1195,6.1195,6.1195,6.0901,5.9563,5.8458,5.7352,5.6073,5.6625,5.6916,5.5985,5.6403,5.6767,5.6962,5.583,5.4002,5.1319,5.2451,5.3092,5.193,5.2931,5.411,5.5444,5.5553,5.6153,5.7498,5.7498,5.7498,5.7498,5.7672,5.773,5.773,5.7934,5.8021,5.8021,5.8021,5.8545,6.9673,7.1584,7.2501,7.4063,7.4286,7.3309,7.0172,6.8529,6.7331,6.5917,6.676,6.8392,7.0714,6.9737,6.9739,7.3214,0.0,0.0,7.2351,7.3956,7.443,0.0,7.2524,0.0,7.0125,6.8951,6.8027,6.7402,6.7764,6.829,6.8948,6.977,7.0526,7.1183,7.1183,7.1183,7.1183,7.1183,7.1611,7.2466,7.2466,7.2425,7.2349,7.1666,7.0631,6.9202,6.8803,6.7676,6.6262,6.6321,6.5886,6.5237,6.571,6.5974,6.6053,6.6592,6.6884,6.6834,6.6834,6.6834,6.663,6.5467,6.474,6.4042,6.2733,6.1948,6.1191,5.9708,5.9301,5.9272,5.9185,5.9156,5.9156,5.9156,5.9156,5.9156,5.9156,5.9156,5.901,5.8399,5.7847,5.7091,5.5811,5.6654,5.7316,5.6409,5.6683,5.6302,5.4631,5.2391,5.0931,5.0314,5.0351,5.0511,5.1032,5.0838,5.1005,5.1916,5.2645,5.3445,5.413,5.4881,5.5317,5.5317,5.6044,5.6422,5.6422,5.7149,5.7498,5.7498,5.7498,5.7789,6.9245,7.1394,7.2209,7.2949,7.3688,7.331,7.014,6.8404,6.744,6.744,6.7773,6.8396,6.9571,6.9457,6.9392,7.0087,6.9451,0.0,7.0389,7.1887,0.0,7.3019,0.0,7.1824,7.1195,6.9899,0.0,6.9966,6.8752,6.7988,6.7988,6.8791,6.9244,6.9244,6.9244,6.9244,6.9244,6.9244,6.9803,7.092,7.092,7.0835,7.08,7.0477,6.9655,6.8669,6.8461,6.7694,6.6615,6.6815,6.6183,6.5199,6.5199,6.5176,6.5123,6.5123,6.5152,6.5001,6.4361,6.4334,6.4567,6.4246,6.4129,6.3896,6.2587,6.2209,6.1802,5.9854,5.9301,5.9156,5.8632,5.8225,5.7963,5.7963,5.773,5.7498,5.7498,5.7498,5.7498,5.7498,5.7498,5.7207,5.6247,5.6805,5.7254,5.6992,5.6302,5.4643,5.1615,4.9193,4.8302,4.957,4.8276,4.7997,4.9506,4.8541,4.8092,4.8772,5.0117,5.109,5.1532,5.2879,5.3699,5.3699,5.456,5.5084,5.5084,5.6044,5.6509,5.6509,5.6509,5.6683,6.6325,6.9503,7.1425,7.0019,7.1492,7.2497,6.9228,6.7949,6.744,6.744,6.865,6.9673,6.9746,6.9782,7.0596,7.3046,7.2172,7.1066,7.0643,7.1887,7.142,0.0,0.0,0.0,0.0,0.0,0.0,7.1933,7.1161,7.0525,7.0525,6.9747,6.9244,6.9244,6.9244,6.9244,6.9244,6.9244,6.9276,6.9342,6.9342,6.9288,6.9265,6.8055,6.7434,6.7246,6.609,6.5496,6.5396,6.5396,6.5396,6.5295,6.5295,6.5245,6.5111,6.5111,6.508,6.4769,6.2326,6.2314,6.3263,6.1901,6.137,6.125,5.9912,5.9505,5.9475,5.933,5.9301,5.9592,6.0784,6.0144,5.9185,5.9185,5.8341,5.7498,5.7498,5.7498,5.7498,5.7498,5.7498,5.7469,5.7411,5.7178,5.6934,5.699,5.4392,5.1491,4.8818,4.7392,4.6733,4.683,4.5782,4.5123,4.5166,4.5166,4.5699,4.722,4.8719,5.0117,5.1429,5.2879,5.3699,5.3699,5.3757,5.3688,5.3688,5.3873,5.3903,5.3903,5.3903,5.4473,6.7055,6.9369,7.0358,7.0887,7.2549,7.3143,6.9787,6.9691,6.9982,6.8822,6.9863,7.0973,7.0804,7.1391,7.1877,7.1681,7.061,6.9798,6.9574,7.0592,7.0811,6.9351,7.138,7.2125,0.0,0.0,0.0,7.315,7.1659,7.0706,7.0706,6.978,6.9244,6.9244,6.9244,6.9244,6.9244,6.9244,6.9244,6.9244,6.9244,6.875,6.7863,6.8313,6.8527,6.8438,6.7148,6.6548,6.6452,6.5674,6.5278,6.5178,6.4429,6.4007,6.3898,6.2978,6.3163,6.3903,6.295,6.3524,6.4501,6.4017,6.3313,6.2534,6.2057,6.1291,6.0406,5.9534,5.9301,5.9243,5.8923,5.7876,5.6916,5.6916,5.5927,5.4997,5.4997,5.5666,5.6276,5.6276,5.6945,5.773,5.8516,5.7748,5.6302,5.4272,5.0895,4.8351,4.7393,4.6245,4.5562,4.5562,4.522,4.4859,4.4859,4.4859,4.5069,4.5765,4.7195,4.861,5.0011,5.1504,5.2679,5.3601,5.3699,5.3699,5.3699,5.3699,5.4059,5.4795,5.4795,5.5063,6.5554,6.7704,6.8842,7.0004,7.1927,7.281,7.0056,7.0238,7.0512,6.8821,6.9317,7.0176,7.0547,7.1196,7.1664,7.1457,7.0642,7.0029,6.9822,7.0215,7.0567,7.0567,7.2235,0.0,0.0,0.0,0.0,7.2606,7.11,7.0157,7.0157,6.9159,6.8502,6.8237,6.827,6.8103,6.7797,6.7797,6.7797,6.7797,6.7797,6.7271,6.6383,6.7337,6.7797,6.7711,6.6797,6.6498,6.6409,6.5091,6.4586,6.4394,6.2777,6.2091,6.1944,6.0955,6.1457,6.2574,6.2121,6.308,6.4425,6.4007,6.3049,6.2108,6.2395,6.1616,6.0552,6.0086,5.997,5.9766,5.8981,5.7818,5.6829,5.6829,5.584,5.4793,5.4357,5.5287,5.6247,5.6247,5.7236,5.8516,5.9766,5.8688,5.6627,5.3601,5.0503,4.803,4.6855,4.566,4.4859,4.4859,4.4859,4.4859,4.4859,4.4859,4.4859,4.4859,4.6314,4.7865,4.9262,5.0777,5.2145,5.3601,5.4059,5.4252,5.4252,5.467,5.5205,5.5943,5.5943,5.5943,6.1466,6.429,6.6728,6.7106,6.9452,7.1288,6.9816,6.9426,6.8935,6.7434,6.6913,6.7264,6.888,6.9147,6.9956,7.2564,7.2464,7.1896,7.1343,7.0823,7.0516,7.0445,7.1873,7.2837,0.0,7.148,7.0587,7.0587,6.9599,6.9001,6.9001,6.7987,6.712,6.6333,6.6257,6.5795,6.4936,6.4936,6.4936,6.4936,6.4904,6.4904,6.4936,6.4904,6.4904,6.4936,6.4936,6.4936,6.4854,6.3718,6.3254,6.2991,6.0542,5.9505,5.9557,5.933,6.0128,6.1048,5.9799,6.0984,6.2847,6.1514,6.0382,5.9608,6.0711,6.03,5.9613,6.0895,6.1162,6.1162,6.1162,6.0173,5.9185,5.9185,5.8283,5.7091,5.5811,5.6567,5.7498,5.744,5.8428,5.965,6.0847,5.9713,5.7837,5.5096,5.3226,5.0735,4.7099,4.5635,4.4859,4.4859,4.4859,4.4859,4.4859,4.4859,4.4835,4.4811,4.6288,4.7839,4.9208,5.0645,5.2145,5.3601,5.4765,5.5328,5.5421,5.6543,5.7161,5.7161,5.7161,5.7161,6.0805,6.1845,6.3077,6.9074,7.0398,7.0368,7.1071,7.2218,7.2316,6.9353,6.8694,6.8757,6.9128,7.0009,7.0573,7.0189,7.06,7.0511,6.9256,6.9626,6.9428,6.7798,7.0093,7.1941,7.231,7.1607,7.1087,7.1087,6.9789,6.9001,6.9001,6.7987,6.712,6.6333,6.6257,6.5795,6.4936,6.4936,6.4936,6.4936,6.3851,6.3917,6.4904,6.3851,6.3917,6.4936,6.4936,6.4936,6.4936,6.4574,6.4458,6.4207,6.176,6.0702,6.064,5.9581,5.9961,6.1206,6.1718,6.3023,6.4291,6.3921,6.3023,6.2069,6.2323,6.1575,6.0604,6.1,6.0451,5.9795,5.9795,5.8228,5.6596,5.6596,5.6364,5.5753,5.4415,5.5898,5.7236,5.6305,5.712,5.773,5.6983,5.5558,5.3952,5.2126,4.9772,4.7464,4.5611,4.5147,4.4859,4.4859,4.3868,4.363,4.4859,4.3868,4.2942,4.2307,4.4256,4.5861,4.6515,4.8726,5.1166,5.3601,5.3962,5.451,5.5421,5.5698,5.6721,5.8388,5.8388,5.8388,5.7787,5.8347,5.9322,6.4249,6.5249,6.5625,6.8175,6.9577,6.9972,6.877,6.848,6.8636,6.9299,7.0033,7.0637,0.0,7.1412,7.1367,7.0314,7.0506,7.0316,6.8982,6.9559,7.006,7.0144,6.9924,6.961,6.9328,6.8427,6.7861,6.7645,6.7039,6.6379,6.5587,6.5519,6.4889,6.3655,6.3655,6.3456,6.3128,6.2273,6.2306,6.3128,6.2273,6.2339,6.3128,6.3128,6.3128,6.3128,6.2613,6.2417,6.2221,6.0332,5.9494,5.94,5.8623,5.9047,6.0313,6.0977,6.2055,6.3128,6.3128,6.2335,6.1361,6.1968,6.1214,6.0241,6.0324,5.983,5.9167,5.8724,5.7507,5.6393,5.6393,5.6393,5.6044,5.4706,5.6044,5.712,5.584,5.6625,5.7258,5.6289,5.4365,5.2077,4.9649,4.7368,4.5708,4.5049,4.4859,4.4859,4.4859,4.351,4.2647,4.2865,4.175,4.0769,4.018,4.2144,4.3764,4.457,4.7654,5.0435,5.2679,5.4259,5.5484,5.6124,5.6789,5.7828,5.9177,5.9177,5.9371,5.3084,5.4068,5.5667,5.6732,5.7604,5.9205,0.0,0.0,6.452,6.6042,6.6451,6.6932,6.8355,6.8891,6.9989,7.2595,7.2884,7.2756,7.2523,7.2097,7.1777,7.1781,6.9768,6.8168,6.7671,6.7557,6.7283,6.6703,6.6614,6.6366,6.5835,6.5783,6.5433,6.4562,6.4562,6.3679,6.2003,6.1863,6.1503,6.0748,6.0705,6.0629,6.0629,6.0629,6.0629,6.0629,6.0629,6.0629,6.0553,5.9515,5.908,5.8966,5.7766,5.7422,5.7508,5.7508,5.8189,5.908,5.908,5.9754,6.0629,6.0629,5.9944,5.9305,6.0473,6.0112,5.9304,5.9424,5.921,5.8846,5.7727,5.727,5.7062,5.7062,5.7178,5.6916,5.5636,5.6393,5.6916,5.5607,5.6276,5.7062,5.6852,5.4421,5.1332,4.7953,4.597,4.4859,4.4859,4.4718,4.46,4.46,4.3248,4.1652,3.99,3.8888,3.8359,3.8141,3.9791,4.1438,4.2902,4.6684,4.9636,5.1429,5.4898,5.6774,5.7054,5.8574,5.9301,5.9371,5.9371,5.9734,0.0,0.0,0.0,0.0,0.0,0.0,0.0,6.2022,6.2026,6.1026,6.1977,6.2678,6.1682,6.4809,6.7295,6.6521,6.8413,6.996,6.9916,6.9768,6.9667,6.9773,6.9306,6.8935,6.8714,6.8303,6.8032,6.789,6.7481,6.6993,6.6376,6.6329,6.5757,6.4562,6.4562,6.4054,6.2949,6.2176,6.1722,6.1613,6.0941,6.0629,6.0629,6.0629,6.0629,6.0629,6.0629,6.0629,6.0629,6.0366,6.0289,6.0211,5.8966,5.9161,5.9944,5.9944,6.0101,6.0289,6.0289,6.0443,6.0629,6.0629,6.0476,6.0354,6.0616,6.0525,6.032,6.034,5.9012,5.7523,5.7252,5.5796,5.4456,5.4456,5.5171,5.5607,5.427,5.5026,5.5578,5.424,5.4182,5.4028,5.2882,5.1254,4.9797,4.9016,4.663,4.4859,4.4859,4.3749,4.3031,4.3031,4.153,3.99,3.8154,3.7178,3.612,3.4879,3.6998,3.8844,4.032,4.2977,4.672,5.1401,5.3143,5.473,5.6244,5.7471,5.8288,5.872,5.872,5.8495,0.0,0.0,0.0,0.0,0.0,0.0,0.0,0.0,0.0,0.0,0.0,6.0441,0.0,0.0,6.5603,6.4688,6.7317,6.9436,6.9307,6.9223,6.9223,6.9312,6.9291,6.9277,6.9184,6.8984,6.8673,6.8448,6.812,6.7665,6.7112,6.7015,6.6524,6.5553,6.5501,6.4966,6.3871,6.34,6.2717,6.1792,6.143,6.0983,6.0629,6.0629,6.0629,6.0629,6.0629,6.0629,6.0629,6.0629,6.0629,6.0629,6.0022,6.0101,6.0629,6.0629,6.0629,6.0629,6.0629,6.0629,6.0629,6.0629,6.0629,6.0629,6.0629,6.0629,6.0553,5.9944,5.8917,5.7851,5.7335,5.6274,5.5391,5.5391,5.5462,5.5339,5.4658,5.4587,5.4386,5.3815,5.3699,5.3375,5.265,5.0749,4.9369,4.9369,4.6856,4.4859,4.4859,4.351,4.1977,4.0269,3.8494,3.6897,3.5121,3.4243,3.3183,3.1998,3.2832,3.3903,3.5427,3.9244,4.3323,4.7513,5.0678,5.3118,5.5098,5.6405,5.7358,5.8003,5.7626,5.7733,0.0,0.0,0.0,0.0,0.0,0.0,0.0,0.0,0.0,0.0,0.0,0.0,0.0,0.0,0.0,6.3629,6.6561,6.8965,6.9426,6.9475,6.9486,6.9452,6.949,6.944,6.9415,6.9402,6.9233,6.8789,6.8683,6.8373,6.7842,6.7701,6.733,6.6695,6.6695,6.6103,6.489,6.4778,6.3889,6.2313,6.2176,0.0,6.1165,6.0941,6.0899,6.0899,6.0705,6.0748,6.0899,6.0899,6.0899,6.0899,6.0899,6.0748,6.0629,6.0629,6.0629,6.0629,6.0629,6.0629,6.0705,6.0824,6.0748,6.0705,6.0824,6.0748,0.0,5.9515,5.908,5.872,5.7766,5.7335,5.7161,5.7161,5.6395,5.576,5.576,5.4954,5.4222,5.4059,5.3962,5.3865,5.3699,5.1084,4.8773,4.7759,4.5514,4.3747,4.3075,4.2167,4.0306,3.7349,3.5761,3.4222,3.2418,3.1099,3.0138,2.9485,2.8294,2.8327,3.0106,3.458,3.8449,4.1526,4.6101,5.0004,5.3066,5.4723,5.6132,5.7241,5.4497,5.447,0.0,0.0,0.0,0.0,0.0,0.0,0.0,0.0,0.0,0.0,0.0,0.0,0.0,0.0,0.0,0.0,6.3225,6.6325,6.9314,6.9833,6.9843,6.9746,6.9731,6.966,6.9415,6.9402,6.9364,6.9299,6.9285,6.9015,6.8358,6.8314,0.0,0.0,0.0,6.6999,6.6246,6.5564,6.4914,6.4234,6.34,6.3014,6.2883,6.2072,6.1651,6.1651,6.0941,6.1057,6.1651,6.1651,6.1651,6.1651,6.1651,6.1245,6.0629,6.0629,6.0629,6.0629,6.0629,0.0,0.0,6.1503,6.1245,6.0748,6.1469,6.1172,6.0629,6.0476,5.9675,5.8885,5.872,5.7936,5.7161,5.7161,5.7074,5.6986,5.6986,5.681,5.6454,5.5421,5.5172,5.489,5.3767,5.0374,4.6389,4.2261,4.1006,3.9553,3.6704,3.6997,3.6815,3.5401,3.5065,0.0,3.1611,2.8779,2.7074,2.6928,2.4157,2.3642,2.618,2.7315,2.9813,3.397,3.7396,4.2223,4.8686,5.1316,5.3928,5.6268,4.6305,4.4665,0.0,0.0,0.0,0.0,0.0,0.0,0.0,0.0,0.0,0.0,0.0,0.0,0.0,0.0,0.0,0.0,6.2719,6.5326,6.6769,6.7007,6.7731,6.9552,6.9779,6.9743,6.9626,6.9476,6.9477,6.9743,6.9543,6.9336,6.9233,6.8996,6.8611,6.8033,6.7634,6.732,6.7078,6.6054,6.5344,6.5004,6.4282,6.3651,6.3144,6.2245,6.1391,6.0549,6.0128,5.9627,5.9303,6.065,6.0957,6.0482,0.0,0.0,0.0,0.0,5.8465,5.813,5.813,5.813,5.8448,6.0037,6.0375,6.0366,6.2076,6.2003,6.1318,6.1318,6.065,5.9911,5.9911,5.9595,5.9161,5.9161,5.8638,5.8189,5.8189,5.7594,5.6986,5.6543,5.5851,0.0,5.4795,5.2001,4.8908,4.6079,4.4872,4.3106,3.9829,3.9008,3.6771,3.2005,3.148,3.0051,2.6649,2.5636,0.0,0.0,0.0,2.0596,1.9854,2.0864,0.0,0.0,0.0,3.6637,4.1788,4.2237,0.0,0.0,4.2626,4.1214,0.0,0.0,0.0,0.0,0.0,0.0,0.0,0.0,0.0,0.0,0.0,0.0,0.0,0.0,0.0,0.0,0.0,6.2529,6.34,6.4311,6.5744,6.8063,6.9207,6.979,6.979,6.9603,6.9639,6.997,6.9705,6.9623,6.979,6.9491,6.9129,6.8649,6.8201,6.7851,6.7633,6.682,6.5935,6.5019,6.4615,6.3784,6.2585,6.1681,6.0712,5.972,5.9332,5.8722,5.8192,5.9871,6.0195,5.9618,5.9771,5.9297,5.846,5.7901,5.7387,5.6918,5.6918,5.6918,5.7288,5.9157,5.9864,6.0343,6.2308,6.2541,6.2141,6.1933,6.143,6.0941,6.0705,6.0629,6.0629,6.0629,6.0022,5.9403,5.9403,5.872,5.8052,5.768,5.6898,5.606,5.4969,5.295,5.0475,4.7395,4.6364,4.4385,4.0308,3.9461,3.6553,2.9706,2.9384,2.7665,2.2868,2.2421,2.175,2.0014,1.9097,1.7639,1.5582,1.607,1.9,2.455,2.742,3.1475,0.0,0.0,0.0,0.0,0.0,0.0,0.0,0.0,0.0,0.0,0.0,0.0,0.0,0.0,0.0,0.0,0.0,0.0,0.0,0.0,0.0,0.0,0.0,0.0,5.9578,6.2762,6.4746,6.4694,6.7689,6.979,6.979,6.9783,6.9819,6.997,6.9971,6.9889,6.979,6.9783,6.9589,6.9184,6.9143,6.8849,6.8205,6.8171,6.6787,6.4153,6.4153,6.3078,6.11,6.03,5.992,5.9795,5.8923,5.9007,5.9781,5.985,5.9885,5.985,5.987,5.9297,5.8521,5.846,5.846,5.846,5.846,5.846,5.8615,5.9537,6.028,6.0999,6.1974,6.2629,6.2915,6.2038,6.1792,6.1613,6.0824,6.0629,6.0629,6.0629,6.0629,6.0629,6.0629,6.0553,6.0211,5.908,5.8803,5.7663,5.3941,5.2325,4.9126,4.2003,4.1718,0.0,3.376,3.5274,3.4786,2.9507,3.0317,2.8597,2.2105,1.9699,1.7712,1.5909,1.4696,1.452,1.5533,1.381,1.302,1.3332,1.873,2.6264,3.5775,0.0,0.0,0.0,0.0,0.0,0.0,0.0,0.0,0.0,0.0,0.0,0.0,0.0,0.0,0.0,0.0,0.0,0.0,0.0,0.0,0.0,0.0,0.0,0.0,0.0,6.0861,6.4022,6.4467,6.4962,6.6082,6.5175,6.4645,6.4937,6.6948,6.8176,6.8218,6.9207,6.9184,6.7961,6.7408,6.6616,6.5529,6.4862,6.4022,6.3102,6.2774,6.2043,6.1006,6.0212,5.9329,5.8331,5.799,5.7451,5.6893,5.8476,5.8483,5.7561,5.7561,5.738,5.696,5.6022,5.5685,5.5513,5.4493,5.4115,5.4473,5.6319,5.7027,5.7545,5.9421,6.0829,6.1568,6.0619,6.1088,6.1613,6.0824,6.0629,6.0629,6.0629,6.0629,6.0629,6.0629,6.0629,6.0553,6.0133,5.8803,5.6828,5.3856,5.2375,5.0049,4.5746,4.4432,4.2389,3.8075,3.5996,3.3116,2.872,2.7146,2.461,1.9664,1.8576,1.6433,1.2504,1.1867,1.0707,0.8788,1.0275,1.181,1.3076,1.6538,1.9254,2.109,0.0,0.0,0.0,0.0,0.0,0.0,0.0,0.0,0.0,0.0,0.0,0.0,0.0,0.0,0.0,0.0,0.0,0.0,0.0,0.0,0.0,0.0,0.0,0.0,0.0,0.0,6.212,6.2767,0.0,6.3537,6.2557,6.178,6.1537,6.3433,6.4882,6.5472,6.6508,6.6804,6.6219,6.5727,6.5024,6.4095,6.3382,6.2628,6.1755,6.1419,6.0559,5.9365,5.8879,5.8078,5.7105,5.7126,5.6562,5.5728,5.7254,5.7302,5.6266,5.5494,5.5069,5.4738,5.3811,5.3146,5.266,5.2763,5.2707,5.2998,5.4489,5.5034,5.5059,5.5204,5.6522,5.7521,5.5627,5.6906,5.8597,5.776,5.8295,5.9117,5.9117,5.9117,5.9117,5.9117,5.9511,5.9633,5.8774,5.738,5.5276,5.1964,5.1082,4.9784,4.6571,4.4965,4.2965,3.9971,3.6226,3.2171,2.7716,2.5352,2.2207,1.7538,1.6733,1.4827,1.0769,0.8162,0.6348,0.5331,0.7426,0.9604,1.1817,1.4586,1.533,0.0,0.0,0.0,0.0,0.0,0.0,0.0,0.0,0.0,0.0,0.0,0.0,0.0,0.0,0.0,0.0,0.0,0.0,0.0,0.0,0.0,0.0,0.0,0.0,0.0,0.0,0.0,5.9082,6.2261,0.0,0.0,0.0,0.0,5.9418,5.9413,6.0062,6.1428,6.1716,6.2462,6.3947,6.3968,6.3876,6.3735,6.3673,6.2474,6.0104,6.0104,5.8786,5.6359,5.6359,5.6359,5.6359,5.6359,5.6359,5.6278,5.6055,5.5961,5.5776,5.3614,5.233,5.1647,5.1647,5.0649,4.9805,5.2606,5.3684,5.3787,5.3718,5.3739,5.3156,4.9382,4.9875,0.0,0.0,4.9604,5.271,5.1979,5.392,5.6054,5.6289,5.6322,5.6322,5.6322,5.744,5.7574,5.482,5.4306,5.2852,4.7973,0.0,4.7817,4.3877,4.2872,4.1502,3.8815,3.5512,3.1625,2.6936,2.4812,2.1526,1.601,1.4429,1.2671,1.0314,0.3771,0.1561,0.4815,0.493,0.6307,0.9297,1.2532,0.0,0.0,0.0,0.0,0.0,0.0,0.0,0.0,0.0,0.0,0.0,0.0,0.0,0.0,0.0,0.0,0.0,0.0,0.0,0.0,0.0,0.0,0.0,0.0,0.0,0.0,5.4321,5.6834,5.8949,5.7851,5.7208,0.0,0.0,0.0,0.0,0.0,0.0,5.4317,5.5749,5.7311,5.8914,5.899,5.9455,6.0474,6.0196,5.9499,5.8382,5.81,5.7375,5.6359,5.6359,5.6359,5.6359,5.6359,5.6059,5.5217,5.1854,5.0578,5.0605,4.9342,4.7576,4.5667,4.5069,4.4586,4.4333,4.4479,4.5808,4.7265,4.6328,4.6035,4.5679,4.3718,0.0,0.0,0.0,0.0,4.7603,4.9535,5.0587,5.1814,5.4583,5.5248,5.5396,5.6147,5.6618,5.4835,4.78,4.7358,4.6599,4.1512,4.0306,0.0,3.9419,0.0,3.6178,3.5937,3.1473,2.7784,2.6592,2.2402,1.8505,1.5738,1.2901,0.9966,0.6765,0.2468,0.039,0.1307,0.1373,0.3864,0.9419,0.0,0.0,0.0,0.0,0.0,0.0,0.0,0.0,0.0,0.0,0.0,0.0,0.0,0.0,0.0,0.0,0.0,0.0,0.0,0.0,0.0,0.0,0.0,0.0,0.0,0.0,0.0,4.9344,5.184,5.4279,5.2953,5.1891,0.0,0.0,0.0,0.0,0.0,0.0,0.0,0.0,0.0,5.3257,5.3434,5.4552,5.6807,5.6555,5.6859,5.7724,5.7332,5.685,5.6359,5.6359,5.6151,5.5813,5.4523,5.2776,5.0628,4.8537,4.7835,4.7866,0.0,0.0,0.0,0.0,4.0529,4.0057,4.0334,4.1801,4.3184,4.0958,0.0,0.0,0.0,0.0,0.0,0.0,0.0,4.2774,4.4314,4.6995,4.9698,5.1826,5.2281,5.2431,5.2979,5.0463,4.6525,4.1241,4.0903,4.0203,3.598,3.5195,0.0,0.0,0.0,3.3311,3.3394,2.9273,2.6324,2.6018,2.125,1.7119,1.4943,1.2146,0.8296,0.3251,0.104,-0.1418,-0.4431,-0.1657,0.2703,0.0,0.0,0.0,0.0,0.0,0.0,0.0,0.0,0.0,0.0,0.0,0.0,0.0,0.0,0.0,0.0,0.0,0.0,0.0,0.0,0.0,0.0,0.0,0.0,0.0,0.0,0.0,0.0,0.0,4.4962,4.8154,0.0,0.0,0.0,0.0,0.0,0.0,0.0,0.0,0.0,0.0,0.0,0.0,0.0,4.9607,5.3115,5.2735,5.3768,5.6304,5.5835,5.5389,5.4942,5.4942,5.4492,5.3463,5.0884,0.0,4.4906,4.5096,0.0,0.0,0.0,0.0,0.0,0.0,0.0,0.0,0.0,0.0,0.0,0.0,0.0,0.0,0.0,0.0,0.0,0.0,0.0,0.0,0.0,0.0,4.7425,4.7685,4.7944,4.784,4.7166,4.1703,3.6573,3.5199,3.4935,3.3901,0.0,0.0,0.0,0.0,0.0,0.0,3.0996,2.8285,2.5945,2.5082,2.067,1.6607,1.3653,1.1132,0.7001,0.039,-0.0899,-0.4124,-1.0213,-0.3307,0.0,0.0,0.0,0.0,0.0,0.0,0.0,0.0,0.0,0.0,0.0,0.0,0.0,0.0,0.0,0.0,0.0,0.0,0.0,0.0,0.0,0.0,0.0,0.0,0.0,0.0,0.0,0.0,0.0,0.0,0.0,0.0,0.0,0.0,0.0,0.0,0.0,0.0,0.0,0.0,0.0,0.0,0.0,0.0,0.0,0.0,0.0,0.0,0.0,0.0,4.791,4.7468,4.7415,4.7415,4.6673,4.5349,4.4097,4.3507,4.3152,3.909,0.0,0.0,0.0,0.0,0.0,0.0,0.0,0.0,0.0,0.0,0.0,0.0,0.0,0.0,0.0,0.0,0.0,0.0,0.0,0.0,0.0,0.0,3.9042,4.097,4.2261,4.1856,3.7284,0.0,0.0,0.0,0.0,0.0,0.0,0.0,0.0,0.0,0.0,0.0,2.9234,2.7064,2.4891,2.3365,1.8889,1.47,1.1373,0.8038,0.4417,0.026,-0.5489,-0.9164,0.0,0.0,0.0,0.0,0.0,0.0,0.0,0.0,0.0,0.0,0.0,0.0,0.0,0.0,0.0,0.0,0.0,0.0,0.0,0.0,0.0,0.0,0.0,0.0,0.0,0.0,0.0,0.0,0.0,0.0,0.0,0.0,0.0,0.0,0.0,0.0,0.0,0.0,0.0,0.0,0.0,0.0,0.0,0.0,0.0,0.0,0.0,0.0,0.0,0.0,0.0,0.0,0.0,0.0,0.0,0.0,0.0,0.0,4.0484,3.7906,0.0,0.0,0.0,0.0,0.0,0.0,0.0,0.0,0.0,0.0,0.0,0.0,0.0,0.0,0.0,0.0,0.0,0.0,0.0,0.0,0.0,0.0,0.0,0.0,0.0,0.0,0.0,0.0,0.0,0.0,0.0,0.0,0.0,0.0,0.0,0.0,0.0,0.0,0.0,0.0,2.6847,2.5954,2.4647,2.2962,1.8384,1.4195,1.0755,0.7273,0.3809,0.0239,-0.6559,0.0,0.0,0.0,0.0,0.0,0.0,0.0,0.0,0.0,0.0,0.0,0.0,0.0,0.0,0.0,0.0,0.0,0.0,0.0,0.0,0.0,0.0,0.0,0.0,0.0,0.0,0.0,0.0,0.0,0.0,0.0,0.0,0.0,0.0,0.0,0.0,0.0,0.0,0.0,0.0,0.0,0.0,0.0,0.0,0.0,0.0,0.0,0.0,0.0,0.0,0.0,0.0,0.0,0.0,0.0,0.0,0.0,0.0,0.0,3.7411,3.3278,0.0,0.0,0.0,0.0,0.0,0.0,0.0,0.0,0.0,0.0,0.0,0.0,0.0,0.0,0.0,0.0,0.0,0.0,0.0,0.0,0.0,0.0,0.0,0.0,0.0,0.0,0.0,0.0,0.0,0.0,0.0,0.0,0.0,0.0,0.0,0.0,0.0,0.0,0.0,0.0,2.4961,2.5068,2.4394,2.1989,1.7754,1.395,1.0796,0.6627,0.2976,0.022,-0.5209,0.0,0.0,0.0,0.0,0.0,0.0,0.0,0.0,0.0,0.0,0.0,0.0,0.0,0.0,0.0,0.0,0.0,0.0,0.0,0.0,0.0,0.0,0.0,0.0,0.0,0.0,0.0,0.0,0.0,0.0,0.0,0.0,0.0,0.0,0.0,0.0,0.0,0.0,0.0,0.0,0.0,0.0,0.0,0.0,0.0,0.0,0.0,0.0,0.0,0.0,0.0,0.0,0.0,0.0,0.0,0.0,0.0,0.0,0.0,0.0,0.0,0.0,0.0,0.0,0.0,0.0,0.0,0.0,0.0,0.0,0.0,0.0,0.0,0.0,0.0,0.0,0.0,0.0,0.0,0.0,0.0,0.0,0.0,0.0,0.0,0.0,0.0,0.0,0.0,0.0,0.0,0.0,0.0,0.0,0.0,0.0,0.0,0.0,0.0,0.0,0.0,2.4266,2.48,2.3529,1.8829,1.5753,1.3061,1.0728,0.4296,0.0372,0.0,0.0,0.0,0.0,0.0,0.0,0.0,0.0,0.0,0.0,0.0,0.0,0.0,0.0,0.0,0.0,0.0,0.0,0.0,0.0,0.0,0.0,0.0,0.0,0.0,0.0,0.0,0.0,0.0,0.0,0.0,0.0,0.0,0.0,0.0,0.0,0.0,0.0,0.0,0.0,0.0,0.0,0.0,0.0,0.0,0.0,0.0,0.0,0.0,0.0,0.0,0.0,0.0,0.0,0.0,0.0,0.0,0.0,0.0,0.0,0.0,0.0,0.0,0.0,0.0,0.0,0.0,0.0,0.0,0.0,0.0,0.0,0.0,0.0,0.0,0.0,0.0,0.0,0.0,0.0,0.0,0.0,0.0,0.0,0.0,0.0,0.0,0.0,0.0,0.0,0.0,0.0,0.0,0.0,0.0,0.0,0.0,0.0,0.0,0.0,0.0,0.0,0.0,2.332,2.4365,2.341,1.8448,1.5378,1.2003,0.7685,0.2863,0.0,0.0,0.0,0.0,0.0,0.0,0.0,0.0,0.0,0.0,0.0,0.0,0.0,0.0,0.0,0.0,0.0,0.0,0.0,0.0,0.0,0.0,0.0,0.0,0.0,0.0,0.0,0.0,0.0,0.0,0.0,0.0,0.0,0.0,0.0,0.0,0.0,0.0,0.0,0.0,0.0,0.0,0.0,0.0,0.0,0.0,0.0,0.0,0.0,0.0,0.0,0.0,0.0,0.0,0.0,0.0,0.0,0.0,0.0,0.0,0.0,0.0,0.0,0.0,0.0,0.0,0.0,0.0,0.0,0.0,0.0,0.0,0.0,0.0,0.0,0.0,0.0,0.0,0.0,0.0,0.0,0.0,0.0,0.0,0.0,0.0,0.0,0.0,0.0,0.0,0.0,0.0,0.0,0.0,0.0,0.0,0.0,0.0,0.0,0.0,0.0,0.0,0.0,0.0,2.2124,2.3474,2.2661,1.7743,1.4518,1.0721,0.572,0.2052,0.0,0.0,0.0,0.0,0.0,0.0,0.0,0.0,0.0,0.0,0.0,0.0,0.0,0.0,0.0,0.0,0.0,0.0,0.0,0.0,0.0,0.0,0.0,0.0,0.0,0.0,0.0,0.0,0.0,0.0,0.0,0.0,0.0,0.0,0.0,0.0,0.0,0.0,0.0,0.0,0.0,0.0,0.0,0.0,0.0,0.0,0.0,0.0,0.0,0.0,0.0,0.0,0.0,0.0,0.0,0.0,0.0,0.0,0.0,0.0,0.0,0.0,0.0,0.0,0.0,0.0,0.0,0.0,0.0,0.0,0.0,0.0,0.0,0.0,0.0,0.0,0.0,0.0,0.0,0.0,0.0,0.0,0.0,0.0,0.0,0.0,0.0,0.0,0.0,0.0,0.0,0.0,0.0,0.0,0.0,0.0,0.0,0.0,0.0,0.0,0.0,0.0,0.0,0.0,2.064,2.174,2.0916,1.6085,1.2552,0.9091,0.5594,0.1982,0.0,0.0,0.0,0.0,0.0,0.0,0.0,0.0,0.0,0.0,0.0,0.0,0.0,0.0,0.0,0.0,0.0,0.0,0.0,0.0,0.0,0.0,0.0,0.0,0.0,0.0,0.0,0.0,0.0,0.0,0.0,0.0,0.0,0.0,0.0,0.0,0.0,0.0,0.0,0.0,0.0,0.0,0.0,0.0,0.0,0.0,0.0,0.0,0.0,0.0,0.0,0.0,0.0,0.0,0.0,0.0,0.0,0.0,0.0,0.0,0.0,0.0,0.0,0.0,0.0,0.0,0.0,0.0,0.0,0.0,0.0,0.0,0.0,0.0,0.0,0.0,0.0,0.0,0.0,0.0,0.0,0.0,0.0,0.0,0.0,0.0,0.0,0.0,0.0,0.0,0.0,0.0,0.0,0.0,0.0,0.0,0.0,0.0,0.0,0.0,0.0,0.0,0.0,0.0,2.0416,2.0025,1.8788,0.0,1.2552,0.9091,0.5594,0.2055,0.0,0.0,0.0,0.0,0.0,0.0,0.0,0.0,0.0,0.0,0.0,0.0,0.0,0.0,0.0,0.0,0.0,0.0,0.0,0.0,0.0,0.0,0.0,0.0,0.0,0.0,0.0,0.0,0.0,0.0,0.0,0.0,0.0,0.0,0.0,0.0,0.0,0.0,0.0,0.0,0.0,0.0,0.0,0.0,0.0,0.0,0.0,0.0,0.0,0.0,0.0,0.0,0.0,0.0,0.0,0.0,0.0,0.0,0.0,0.0,0.0,0.0,0.0,0.0,0.0,0.0,0.0,0.0,0.0,0.0,0.0,0.0,0.0,0.0,0.0,0.0,0.0,0.0,0.0,0.0,0.0,0.0,0.0,0.0,0.0,0.0,0.0,0.0,0.0,0.0,0.0,0.0,0.0,0.0,0.0,0.0,0.0,0.0,0.0,0.0,0.0,0.0,0.0,0.0,0.0,1.9088,1.768,0.0,1.2584,0.9114,0.5594,0.2048,0.0,0.0,0.0,0.0,0.0,0.0,0.0,0.0,0.0,0.0,0.0,0.0,0.0,0.0,0.0,0.0,0.0,0.0,0.0,0.0,0.0,0.0,0.0,0.0,0.0,0.0,0.0,0.0,0.0,0.0,0.0,0.0,0.0,0.0,0.0,0.0,0.0,0.0,0.0,0.0,0.0,0.0,0.0,0.0,0.0,0.0,0.0,0.0,0.0,0.0,0.0,0.0,0.0,0.0,0.0,0.0,0.0,0.0,0.0,0.0,0.0,0.0,0.0,0.0,0.0,0.0,0.0,0.0,0.0,0.0,0.0,0.0,0.0,0.0,0.0,0.0,0.0,0.0,0.0,0.0,0.0,0.0,0.0,0.0,0.0,0.0,0.0,0.0,0.0,0.0,0.0,0.0,0.0,0.0,0.0,0.0,0.0,0.0,0.0,0.0,0.0,0.0,0.0,0.0,0.0,1.869,1.7025,1.5708,1.2472,0.9007,0.5598,0.2487,0.0571,0.0,0.0,0.0,0.0,0.0,0.0,0.0,0.0,0.0,0.0,0.0,0.0,0.0,0.0,0.0,0.0,0.0,0.0,0.0,0.0,0.0,0.0,0.0,0.0,0.0,0.0,0.0,0.0,0.0,0.0,0.0,0.0,0.0,0.0,0.0,0.0,0.0,0.0,0.0,0.0,0.0,0.0,0.0,0.0,0.0,0.0,0.0,0.0,0.0,0.0,0.0,0.0,0.0,0.0,0.0,0.0,0.0,0.0,0.0,0.0,0.0,0.0,0.0,0.0,0.0,0.0,0.0,0.0,0.0,0.0,0.0,0.0,0.0,0.0,0.0,0.0,0.0,0.0,0.0,0.0,0.0,0.0,0.0,0.0,0.0,0.0,0.0,0.0,0.0,0.0,0.0,0.0,0.0,0.0,0.0,0.0,0.0,0.0,0.0,0.0,0.0,0.0,0.0,0.0,1.6851,1.4696,1.5493,1.2133,0.8566,0.5458,0.6997,0.5766,0.0298,0.0,0.0,0.0,0.0,0.0,0.0,0.0,0.0,0.0,0.0,0.0,0.0,0.0,0.0,0.0,0.0,0.0,0.0,0.0,0.0,0.0,0.0,0.0,0.0,0.0,0.0,0.0,0.0,0.0,0.0,0.0,0.0,0.0,0.0,0.0,0.0,0.0,0.0,0.0,0.0,0.0,0.0,0.0,0.0,0.0,0.0,0.0,0.0,0.0,0.0,0.0,0.0,0.0,0.0,0.0,0.0,0.0,0.0,0.0,0.0,0.0,0.0,0.0,0.0,0.0,0.0,0.0,0.0,0.0,0.0,0.0,0.0,0.0,0.0,0.0,0.0,0.0,0.0,0.0,0.0,0.0,0.0,0.0,0.0,0.0,0.0,0.0,0.0,0.0,0.0,0.0,0.0,0.0,0.0,0.0,0.0,0.0,0.0,0.0,0.0,0.0,0.0,0.0,1.6825,1.5282,1.4979,1.1729,0.8319,0.5102,0.8338,0.7451,0.0398,0.1347,0.0,0.0,0.0,0.0,0.0,0.0,0.0,0.0,0.0,0.0,0.0,0.0,0.0,0.0,0.0,0.0,0.0,0.0,0.0,0.0,0.0,0.0,0.0,0.0,0.0,0.0,0.0,0.0,0.0,0.0,0.0,0.0,0.0,0.0,0.0,0.0,0.0,0.0,0.0,0.0,0.0,0.0,0.0,0.0,0.0,0.0,0.0,0.0,0.0,0.0,0.0,0.0,0.0,0.0,0.0,0.0,0.0,0.0,0.0,0.0,0.0,0.0,0.0,0.0,0.0,0.0,0.0,0.0,0.0,0.0,0.0,0.0,0.0,0.0,0.0,0.0,0.0,0.0,0.0,0.0,0.0,0.0,0.0,0.0,0.0,0.0,0.0,0.0,0.0,0.0,0.0,0.0,0.0,0.0,0.0,0.0,0.0,0.0,0.0,0.0,0.0,0.0,0.0,1.7073,1.4316,1.1453,0.8523,0.5338,0.7778,0.722,0.1681,0.0,0.0,0.0,0.0,0.0,0.0,0.0,0.0,0.0,0.0,0.0,0.0,0.0,0.0,0.0,0.0,0.0,0.0,0.0,0.0,0.0,0.0,0.0,0.0,0.0,0.0,0.0,0.0,0.0,0.0,0.0,0.0,0.0,0.0,0.0,0.0,0.0,0.0,0.0,0.0,0.0,0.0,0.0,0.0,0.0,0.0,0.0,0.0,0.0,0.0,0.0,0.0,0.0,0.0,0.0,0.0,0.0,0.0,0.0,0.0,0.0,0.0,0.0,0.0,0.0,0.0,0.0,0.0,0.0,0.0,0.0,0.0,0.0,0.0,0.0,0.0,0.0,0.0,0.0,0.0,0.0,0.0,0.0,0.0,0.0,0.0,0.0,0.0,0.0,0.0,0.0,0.0,0.0,0.0,0.0,0.0,0.0,0.0,0.0,0.0,0.0,0.0,0.0,0.0,1.7766,1.3545,1.0527,0.8917,0.8695,0.6537,0.5901,0.7344,0.0,0.0,0.0,0.0,0.0,0.0,0.0,0.0,0.0,0.0,0.0,0.0,0.0,0.0]}]]]